[[{"header":{"parameterUnit":"m.s-1","parameterCategory":1,"la1":30.6,"la2":29.2853,"lo1":-89.7004,"lo2":-87.6739,"dy":0.0162,"dx":0.0183,"nx":112,"ny":82,"refTime":"2024-06-11T00:00:00:Z","depth":0,"parameterNumber":2,"parameterNumberName":"U-component_of_WINDS"},"data":[0.0,0.0,0.0,0.0,0.0,0.0,0.0,0.0,0.0,0.0,0.0,0.0,0.0,0.0,0.0,0.0,0.0,0.0,0.0,0.0,0.0,0.0,0.0,0.0,0.0,0.0,0.0,0.0,0.0,0.0,0.0,0.0,0.0,0.0,0.0,0.0,0.0,0.0,0.0,0.0,0.0,0.0,0.0,0.0,0.0,0.0,0.0,0.0,0.0,0.0,0.0,0.0,0.0,0.0,0.0,0.0,0.0,0.0,0.0,0.0,0.0,0.0,0.0,0.0,0.0,0.0,0.0,0.0,0.0,0.0,0.0,0.0,0.0,0.0,0.0,0.0,0.0,0.0,0.0,0.0,0.0,0.0,0.0,0.0,0.0,0.0,0.0,0.0,0.0,0.0,-3.1021,-3.2358,-3.3545,-3.4264,-3.423,-3.2947,-3.2065,-3.1838,0.0,0.0,0.0,0.0,0.0,0.0,0.0,0.0,0.0,0.0,0.0,0.0,0.0,0.0,0.0,0.0,0.0,0.0,0.0,0.0,0.0,0.0,0.0,0.0,0.0,0.0,0.0,0.0,0.0,0.0,0.0,0.0,0.0,0.0,0.0,0.0,0.0,0.0,0.0,0.0,0.0,0.0,0.0,0.0,0.0,0.0,0.0,0.0,0.0,0.0,0.0,0.0,0.0,0.0,0.0,0.0,0.0,0.0,0.0,0.0,0.0,0.0,0.0,0.0,0.0,0.0,0.0,0.0,0.0,0.0,0.0,0.0,0.0,0.0,0.0,0.0,0.0,0.0,0.0,0.0,0.0,0.0,0.0,0.0,0.0,0.0,0.0,0.0,0.0,0.0,0.0,0.0,0.0,0.0,0.0,0.0,0.0,0.0,0.0,0.0,0.0,0.0,0.0,0.0,-3.1898,-3.4071,-3.471,-3.4968,-3.4802,-3.3598,-3.2708,-3.2391,0.0,0.0,0.0,0.0,0.0,0.0,0.0,0.0,0.0,0.0,0.0,0.0,0.0,0.0,0.0,0.0,0.0,0.0,0.0,0.0,0.0,0.0,0.0,0.0,0.0,0.0,0.0,0.0,0.0,0.0,0.0,0.0,0.0,0.0,0.0,0.0,0.0,0.0,0.0,0.0,0.0,0.0,0.0,0.0,0.0,0.0,0.0,0.0,0.0,0.0,0.0,0.0,0.0,0.0,0.0,0.0,0.0,0.0,0.0,0.0,0.0,0.0,0.0,0.0,0.0,0.0,0.0,0.0,0.0,0.0,0.0,0.0,0.0,0.0,0.0,0.0,0.0,0.0,0.0,0.0,0.0,0.0,0.0,0.0,0.0,0.0,0.0,0.0,0.0,0.0,0.0,0.0,0.0,0.0,0.0,0.0,0.0,0.0,0.0,0.0,0.0,0.0,0.0,-3.1759,-3.3256,-3.5047,-3.5492,-3.5621,-3.5591,-3.4358,-3.3424,-3.3177,-3.1569,0.0,0.0,0.0,0.0,0.0,0.0,0.0,0.0,0.0,0.0,0.0,0.0,0.0,0.0,0.0,0.0,0.0,0.0,0.0,0.0,0.0,0.0,0.0,0.0,0.0,0.0,0.0,0.0,0.0,0.0,0.0,0.0,0.0,0.0,0.0,0.0,0.0,0.0,0.0,0.0,0.0,0.0,0.0,0.0,0.0,0.0,0.0,0.0,0.0,0.0,0.0,0.0,0.0,0.0,0.0,0.0,0.0,0.0,0.0,0.0,0.0,0.0,0.0,0.0,0.0,0.0,0.0,0.0,0.0,0.0,0.0,0.0,0.0,0.0,0.0,0.0,0.0,0.0,0.0,0.0,0.0,0.0,0.0,0.0,0.0,0.0,0.0,0.0,0.0,0.0,0.0,0.0,0.0,0.0,0.0,0.0,0.0,0.0,0.0,0.0,0.0,0.0,-3.308,-3.4182,-3.5661,-3.6038,-3.6258,-3.6414,-3.5094,-3.4179,-3.3999,-3.2578,0.0,0.0,0.0,0.0,0.0,0.0,0.0,0.0,0.0,0.0,0.0,0.0,0.0,0.0,0.0,0.0,0.0,0.0,0.0,0.0,0.0,0.0,0.0,0.0,0.0,0.0,0.0,0.0,0.0,0.0,0.0,0.0,0.0,0.0,0.0,0.0,0.0,0.0,0.0,0.0,0.0,0.0,0.0,0.0,0.0,0.0,0.0,0.0,0.0,0.0,0.0,0.0,0.0,0.0,0.0,0.0,0.0,0.0,0.0,0.0,0.0,0.0,0.0,0.0,0.0,0.0,0.0,0.0,0.0,0.0,0.0,0.0,0.0,0.0,0.0,0.0,0.0,0.0,0.0,0.0,0.0,0.0,0.0,0.0,0.0,0.0,0.0,0.0,0.0,0.0,0.0,0.0,0.0,0.0,0.0,0.0,0.0,0.0,0.0,0.0,0.0,0.0,-3.2893,-3.4054,-3.5979,-3.6569,-3.6906,-3.7118,-3.5835,-3.4964,-3.4792,-3.3346,0.0,0.0,0.0,0.0,0.0,0.0,0.0,0.0,0.0,0.0,0.0,0.0,0.0,0.0,0.0,0.0,0.0,0.0,0.0,0.0,0.0,0.0,0.0,0.0,0.0,0.0,0.0,0.0,0.0,0.0,0.0,0.0,0.0,0.0,0.0,0.0,0.0,0.0,0.0,0.0,0.0,0.0,0.0,0.0,0.0,0.0,0.0,0.0,0.0,0.0,0.0,0.0,0.0,0.0,0.0,0.0,0.0,0.0,0.0,0.0,0.0,0.0,0.0,0.0,0.0,0.0,0.0,0.0,0.0,0.0,0.0,0.0,0.0,0.0,0.0,0.0,0.0,0.0,0.0,0.0,0.0,0.0,0.0,0.0,0.0,0.0,0.0,0.0,0.0,0.0,0.0,0.0,0.0,0.0,0.0,0.0,0.0,0.0,0.0,0.0,0.0,0.0,-3.3207,-3.4364,-3.6322,-3.6937,-3.7139,-3.6991,-3.6045,-3.5201,-3.4672,0.0,0.0,0.0,0.0,0.0,0.0,0.0,0.0,0.0,0.0,0.0,0.0,0.0,0.0,0.0,0.0,0.0,0.0,0.0,0.0,0.0,0.0,0.0,0.0,0.0,0.0,0.0,0.0,0.0,0.0,0.0,0.0,0.0,0.0,0.0,0.0,0.0,0.0,0.0,0.0,0.0,0.0,0.0,0.0,0.0,0.0,0.0,0.0,0.0,0.0,0.0,0.0,0.0,0.0,0.0,0.0,0.0,0.0,0.0,0.0,0.0,0.0,0.0,0.0,0.0,0.0,0.0,0.0,0.0,0.0,0.0,0.0,0.0,0.0,0.0,0.0,0.0,0.0,0.0,0.0,0.0,0.0,0.0,0.0,0.0,0.0,0.0,0.0,0.0,0.0,0.0,0.0,0.0,0.0,0.0,0.0,0.0,0.0,0.0,0.0,0.0,0.0,-3.2531,-3.3484,-3.4728,-3.666,-3.7268,-3.7427,-3.7038,-3.6309,-3.5518,-3.4782,0.0,0.0,0.0,0.0,0.0,0.0,0.0,0.0,0.0,0.0,0.0,0.0,0.0,0.0,0.0,0.0,0.0,0.0,0.0,0.0,0.0,0.0,0.0,0.0,0.0,0.0,0.0,0.0,0.0,0.0,0.0,0.0,0.0,0.0,0.0,0.0,0.0,0.0,0.0,0.0,0.0,0.0,0.0,0.0,0.0,0.0,0.0,0.0,0.0,0.0,0.0,0.0,0.0,0.0,0.0,0.0,0.0,0.0,0.0,0.0,0.0,0.0,0.0,0.0,0.0,0.0,0.0,0.0,0.0,0.0,0.0,0.0,0.0,0.0,0.0,0.0,0.0,0.0,0.0,0.0,0.0,0.0,0.0,0.0,0.0,0.0,0.0,0.0,0.0,0.0,0.0,0.0,0.0,0.0,0.0,0.0,0.0,0.0,0.0,0.0,0.0,0.0,-3.2562,-3.3668,-3.5057,-3.6993,-3.7626,-3.7716,-3.7316,-3.6691,-3.5979,0.0,0.0,0.0,0.0,0.0,0.0,0.0,0.0,0.0,0.0,0.0,0.0,0.0,0.0,0.0,0.0,0.0,0.0,0.0,0.0,0.0,0.0,0.0,0.0,0.0,0.0,0.0,0.0,0.0,0.0,0.0,0.0,0.0,0.0,0.0,0.0,0.0,0.0,0.0,0.0,0.0,0.0,0.0,0.0,0.0,0.0,0.0,0.0,0.0,0.0,0.0,0.0,0.0,0.0,0.0,0.0,0.0,0.0,0.0,0.0,0.0,0.0,0.0,0.0,0.0,0.0,0.0,0.0,0.0,0.0,0.0,0.0,0.0,0.0,0.0,0.0,0.0,0.0,0.0,0.0,0.0,0.0,0.0,0.0,0.0,0.0,0.0,0.0,0.0,0.0,0.0,0.0,0.0,0.0,0.0,0.0,0.0,0.0,0.0,0.0,0.0,0.0,0.0,-3.2373,-3.3455,-3.4848,-3.678,-3.7535,-3.7555,-3.6664,-3.6287,-3.5588,-3.4362,0.0,0.0,0.0,0.0,0.0,0.0,0.0,0.0,0.0,0.0,0.0,0.0,0.0,0.0,0.0,0.0,0.0,0.0,0.0,0.0,0.0,0.0,0.0,0.0,0.0,0.0,0.0,0.0,0.0,0.0,0.0,0.0,0.0,0.0,0.0,0.0,0.0,0.0,0.0,0.0,0.0,0.0,0.0,0.0,0.0,0.0,0.0,0.0,0.0,0.0,0.0,0.0,0.0,0.0,0.0,0.0,0.0,0.0,0.0,0.0,0.0,0.0,0.0,0.0,0.0,0.0,0.0,0.0,0.0,0.0,0.0,0.0,0.0,0.0,0.0,0.0,0.0,0.0,0.0,0.0,0.0,0.0,0.0,0.0,0.0,0.0,0.0,0.0,0.0,0.0,0.0,0.0,0.0,0.0,0.0,0.0,0.0,0.0,0.0,0.0,0.0,0.0,-3.2026,-3.3035,-3.4237,-3.591,-3.6566,-3.6582,-3.576,-3.5524,-3.4931,-3.3809,0.0,0.0,0.0,0.0,0.0,0.0,0.0,0.0,0.0,0.0,0.0,0.0,0.0,0.0,0.0,0.0,0.0,0.0,0.0,0.0,0.0,0.0,0.0,0.0,0.0,0.0,0.0,0.0,0.0,0.0,0.0,0.0,0.0,0.0,0.0,0.0,0.0,0.0,0.0,0.0,0.0,0.0,0.0,0.0,0.0,0.0,0.0,0.0,0.0,0.0,0.0,0.0,0.0,0.0,0.0,0.0,0.0,0.0,0.0,0.0,0.0,0.0,0.0,0.0,0.0,0.0,0.0,0.0,0.0,0.0,0.0,0.0,0.0,0.0,0.0,0.0,0.0,0.0,0.0,0.0,0.0,0.0,0.0,0.0,0.0,0.0,0.0,0.0,0.0,0.0,0.0,0.0,0.0,0.0,0.0,0.0,0.0,0.0,0.0,0.0,0.0,0.0,-3.1624,-3.2467,-3.3414,-3.4701,-3.5137,-3.5193,-3.4787,-3.4622,-3.4223,-3.3472,0.0,0.0,0.0,0.0,0.0,0.0,0.0,0.0,0.0,0.0,0.0,0.0,0.0,0.0,0.0,0.0,0.0,0.0,0.0,0.0,0.0,0.0,0.0,0.0,0.0,0.0,0.0,0.0,0.0,0.0,0.0,0.0,0.0,0.0,0.0,0.0,0.0,0.0,0.0,0.0,0.0,0.0,0.0,0.0,0.0,0.0,0.0,0.0,0.0,0.0,0.0,0.0,0.0,0.0,0.0,0.0,0.0,0.0,0.0,0.0,-3.1288,-2.9836,0.0,0.0,0.0,0.0,0.0,0.0,0.0,0.0,0.0,0.0,0.0,0.0,0.0,0.0,0.0,0.0,0.0,0.0,0.0,0.0,0.0,0.0,0.0,0.0,0.0,0.0,0.0,0.0,0.0,0.0,0.0,0.0,0.0,0.0,0.0,0.0,0.0,0.0,0.0,0.0,-3.1255,-3.2047,-3.2945,-3.4204,-3.4763,-3.4911,-3.4433,-3.4183,-3.3678,-3.2854,-3.2079,0.0,0.0,0.0,0.0,0.0,0.0,0.0,0.0,0.0,0.0,0.0,0.0,0.0,0.0,0.0,0.0,0.0,0.0,0.0,0.0,0.0,0.0,0.0,0.0,0.0,0.0,0.0,0.0,0.0,0.0,0.0,0.0,0.0,0.0,0.0,0.0,0.0,0.0,0.0,0.0,0.0,0.0,0.0,0.0,0.0,0.0,0.0,0.0,0.0,0.0,0.0,0.0,0.0,0.0,0.0,0.0,0.0,0.0,0.0,-3.1979,-3.0921,0.0,0.0,0.0,0.0,0.0,0.0,0.0,0.0,0.0,0.0,0.0,0.0,0.0,0.0,0.0,0.0,0.0,0.0,0.0,0.0,0.0,0.0,0.0,0.0,0.0,0.0,0.0,0.0,0.0,0.0,0.0,0.0,0.0,0.0,0.0,0.0,0.0,0.0,0.0,0.0,-3.0664,-3.1183,-3.1812,-3.2704,-3.3113,-3.3277,-3.316,-3.2906,-3.2555,-3.2076,-3.1187,0.0,0.0,0.0,0.0,0.0,0.0,0.0,0.0,0.0,0.0,0.0,0.0,0.0,0.0,0.0,0.0,0.0,0.0,0.0,0.0,0.0,0.0,0.0,0.0,0.0,0.0,0.0,0.0,0.0,0.0,0.0,0.0,0.0,0.0,0.0,0.0,0.0,0.0,0.0,0.0,0.0,0.0,0.0,0.0,0.0,0.0,0.0,0.0,0.0,0.0,0.0,0.0,0.0,-3.5231,-3.5121,-3.4968,-3.4952,-3.4773,-3.438,-3.2728,-3.2251,-3.2486,-3.1211,0.0,0.0,0.0,0.0,0.0,0.0,0.0,0.0,0.0,0.0,0.0,0.0,0.0,0.0,0.0,0.0,0.0,0.0,0.0,0.0,0.0,0.0,-2.459,-2.5073,-2.5119,-2.5056,-2.5125,0.0,0.0,0.0,0.0,0.0,0.0,0.0,0.0,0.0,0.0,0.0,-3.0019,-3.0296,-3.0687,-3.1131,-3.1307,-3.148,-3.1709,-3.1508,-3.1304,-3.1186,-3.0305,-2.978,0.0,0.0,0.0,0.0,0.0,0.0,0.0,0.0,0.0,0.0,0.0,0.0,0.0,0.0,0.0,0.0,0.0,0.0,0.0,0.0,0.0,0.0,0.0,0.0,0.0,0.0,0.0,0.0,0.0,0.0,0.0,0.0,-2.798,-2.8769,0.0,0.0,0.0,0.0,0.0,0.0,0.0,0.0,0.0,0.0,0.0,0.0,0.0,-3.5083,-3.579,-3.579,-3.6279,-3.7289,-3.7289,-3.7289,-3.7245,-3.7069,-3.6586,-3.5757,-3.4684,0.0,-3.2571,-3.2275,0.0,0.0,0.0,0.0,0.0,0.0,0.0,0.0,0.0,0.0,0.0,0.0,0.0,0.0,0.0,0.0,0.0,0.0,0.0,0.0,0.0,0.0,-2.5647,-2.6168,-2.5922,-2.5754,-2.6395,-2.6652,-2.6735,-2.6865,-2.7564,-2.814,0.0,0.0,0.0,0.0,0.0,0.0,-2.9808,-3.0021,-3.0294,-3.0657,-3.0807,-3.0955,-3.1102,-3.0984,-3.0602,-2.9871,-2.9058,-2.8569,-2.8484,-2.7194,0.0,0.0,0.0,0.0,0.0,0.0,0.0,0.0,0.0,0.0,0.0,0.0,0.0,0.0,0.0,0.0,0.0,0.0,0.0,0.0,0.0,0.0,0.0,0.0,0.0,0.0,0.0,0.0,0.0,-2.7897,-2.8994,-2.9419,-3.0047,-3.0381,0.0,0.0,0.0,0.0,0.0,0.0,0.0,0.0,0.0,-3.5193,-3.5219,-3.5635,-3.6564,-3.659,-3.6824,-3.7345,-3.7345,-3.7345,-3.7345,-3.7254,-3.6942,-3.6411,-3.5699,-3.471,-3.3529,-3.2504,-3.1381,-3.0288,0.0,0.0,0.0,0.0,-2.8114,-2.7568,-2.74,-2.7474,-2.7621,-2.7392,0.0,0.0,0.0,0.0,0.0,0.0,0.0,-2.5371,-2.5371,-2.5532,-2.5853,-2.6375,-2.6329,-2.6345,-2.7052,-2.7419,-2.7498,-2.7016,-2.7433,-2.7868,-2.7876,-2.8299,0.0,0.0,0.0,-2.9526,-2.9682,-2.9744,-2.9898,-3.0144,-3.0206,-3.0297,-3.0477,-3.0328,-3.0092,-2.9744,-2.8681,-2.8024,-2.7995,-2.6749,-2.6778,0.0,0.0,0.0,0.0,0.0,0.0,0.0,0.0,0.0,0.0,0.0,0.0,0.0,0.0,0.0,0.0,0.0,0.0,0.0,0.0,0.0,0.0,0.0,0.0,0.0,0.0,0.0,0.0,-2.8937,-2.9871,-3.0184,-3.1076,-3.152,0.0,0.0,0.0,0.0,0.0,0.0,-3.3427,-3.3839,-3.4546,-3.5602,-3.5653,-3.608,-3.6922,-3.6922,-3.6922,-3.6922,-3.6922,-3.6875,-3.6828,-3.6828,-3.6615,-3.6285,-3.5953,-3.5157,-3.4003,-3.2645,-3.1461,-3.0507,-3.0449,-2.9789,-2.8923,-2.9189,-2.8872,-2.8303,-2.8212,-2.8345,-2.854,-2.8402,-2.7943,-2.7373,-2.7373,0.0,0.0,0.0,0.0,-2.6067,-2.6067,-2.6067,-2.6221,-2.6766,-2.6789,-2.6921,-2.7684,-2.8058,-2.798,-2.7244,-2.7459,-2.7788,-2.7911,-2.8124,0.0,-2.879,-2.9036,-2.924,-2.9334,-2.9366,-2.9369,-2.9467,-2.9498,-2.9557,-2.971,-2.9588,-2.9411,-2.9243,-2.8172,-2.7501,-2.7363,-2.6302,-2.6274,-2.748,0.0,0.0,0.0,0.0,0.0,0.0,0.0,0.0,0.0,0.0,0.0,0.0,0.0,0.0,0.0,0.0,0.0,0.0,0.0,0.0,0.0,0.0,0.0,0.0,0.0,0.0,0.0,0.0,0.0,-3.1252,-3.2159,0.0,0.0,0.0,0.0,-3.1845,-3.2374,-3.3064,-3.3805,-3.4622,-3.5447,-3.6304,-3.6377,-3.6402,-3.6452,-3.6452,-3.6452,-3.6452,-3.6452,-3.631,-3.6048,-3.6048,-3.5763,-3.5259,-3.5259,-3.4535,-3.3361,-3.2982,-3.2196,-3.1086,-3.0652,-3.0172,-2.9682,-2.9966,-2.9869,-2.972,-2.9984,-3.0078,-3.0032,-2.9573,-2.8746,-2.7943,-2.7943,-2.7575,0.0,0.0,-2.7098,-2.7098,-2.7098,-2.7098,-2.7277,-2.7782,-2.7552,-2.7502,-2.868,-2.8603,-2.8181,-2.7741,-2.8118,-2.8475,-2.8293,0.0,-2.8462,-2.8837,-2.8756,-2.8665,-2.8665,-2.8665,-2.8665,-2.8665,-2.8638,-2.8638,-2.8665,-2.8665,-2.8393,-2.7732,-2.7169,-2.663,-2.6202,-2.5572,-2.5687,-2.6636,-2.6636,0.0,0.0,0.0,0.0,0.0,0.0,0.0,0.0,0.0,0.0,0.0,0.0,0.0,0.0,0.0,0.0,0.0,0.0,0.0,0.0,0.0,0.0,0.0,0.0,0.0,0.0,0.0,0.0,-3.1527,-3.244,0.0,-3.2765,-3.2907,-3.3002,-3.2956,-3.3481,-3.3911,-3.4198,-3.4678,-3.5064,-3.5356,-3.5356,-3.5356,-3.5356,-3.5356,-3.5356,-3.5356,-3.5356,-3.5307,-3.5259,-3.5259,-3.5017,-3.4677,-3.4507,-3.407,-3.3466,-3.2579,-3.1716,-3.1042,-3.0687,-3.0339,-3.0043,-3.0341,-3.0254,-3.0053,-3.0147,-3.0216,-3.0147,-2.9665,-2.9251,-2.8884,-2.854,-2.831,-2.8172,-2.8172,-2.8172,-2.8172,-2.8172,-2.7943,-2.7759,-2.7943,-2.7851,-2.7847,-2.8257,-2.8568,-2.8738,-2.8574,-2.8671,-2.8866,-2.9042,-2.8812,-2.8799,-2.9304,-2.9232,-2.9171,-2.9308,-2.9308,-2.9181,-2.8806,-2.8812,-2.8651,-2.8243,-2.8216,-2.8109,-2.7862,-2.73,-2.6965,-2.6962,-2.6427,-2.6578,-2.7393,-2.7154,-2.7294,0.0,0.0,0.0,0.0,0.0,0.0,0.0,0.0,0.0,0.0,0.0,0.0,0.0,0.0,0.0,0.0,0.0,0.0,0.0,0.0,0.0,0.0,0.0,0.0,0.0,-3.0066,-3.1092,-3.1746,-3.2686,-3.3212,-3.3101,-3.3431,-3.3595,-3.3498,-3.3803,-3.404,-3.4162,-3.4359,-3.4482,-3.4531,-3.4531,-3.4531,-3.4531,-3.4531,-3.4531,-3.4531,-3.4531,-3.4506,-3.4433,-3.4433,-3.4286,-3.3991,-3.3843,-3.3668,-3.3472,-3.2448,-3.1708,-3.1203,-3.0674,-3.0352,-3.0216,-3.0397,-3.0352,-3.0216,-3.0216,-3.0216,-3.017,-2.9848,-2.9734,-2.9665,-2.932,-2.9206,-2.9206,-2.9206,-2.9091,-2.8976,-2.8976,-2.8609,-2.8195,-2.8012,-2.8103,-2.8218,-2.8218,-2.8737,-2.9196,-2.9358,-2.9234,-2.9136,-2.9275,-2.8983,-2.886,-2.9113,-2.9046,-2.8973,-2.909,-2.9125,-2.8995,-2.8638,-2.8612,-2.8377,-2.7769,-2.7717,-2.7639,-2.749,-2.6909,-2.6693,-2.6924,-2.6463,-2.6547,-2.7321,-2.7094,-2.7094,-2.7321,0.0,0.0,0.0,0.0,0.0,0.0,0.0,0.0,0.0,0.0,0.0,0.0,0.0,0.0,0.0,0.0,0.0,0.0,0.0,0.0,0.0,0.0,0.0,-2.935,-3.0536,-3.1478,-3.2022,-3.2773,-3.3392,-3.3641,-3.3691,-3.3592,-3.3342,-3.3292,-3.3419,-3.3668,-3.3691,-3.384,-3.4064,-3.4087,-3.4087,-3.4087,-3.4087,-3.4087,-3.4087,-3.4087,-3.3915,-3.3691,-3.3691,-3.3542,-3.3292,-3.3292,-3.3292,-3.3247,-3.2695,-3.219,-3.171,-3.0652,-3.0239,-3.0216,-3.0216,-3.0216,-3.0216,-3.0216,-3.0216,-3.0216,-3.0216,-3.0216,-3.0216,-3.0216,-3.0216,-3.0216,-3.0216,-2.9871,-2.9527,-2.9527,-2.9137,-2.8609,-2.8126,-2.8356,-2.87,-2.87,-2.9114,-2.9642,-3.0124,-2.9811,-2.9315,-2.9006,-2.885,-2.8679,-2.8439,-2.8213,0.0,-2.8099,-2.8062,-2.8037,-2.8049,-2.8037,-2.7848,-2.7272,-2.7222,-2.6997,-2.6506,-2.5979,-2.5812,-2.6151,-2.5607,-2.5587,-2.6246,-2.6462,-2.6462,-2.6272,0.0,0.0,0.0,0.0,0.0,0.0,0.0,0.0,0.0,0.0,0.0,0.0,0.0,0.0,0.0,0.0,0.0,0.0,0.0,0.0,0.0,-2.7521,-2.8078,-2.9014,-3.0219,-3.119,-3.1693,-3.2303,-3.2818,-3.3092,-3.3142,-3.3192,-3.3292,-3.3292,-3.3342,-3.3442,-3.3442,-3.3419,-3.3542,-3.3542,-3.3542,-3.3542,-3.3542,-3.3542,-3.3542,-3.3542,-3.3469,-3.3442,-3.3442,-3.3392,-3.3292,-3.3292,-3.3292,-3.3247,-3.2695,-3.219,-3.1685,-3.1042,-3.056,-3.0216,-3.0216,-3.0216,-3.0216,-3.0216,-3.0216,-3.0216,-3.0216,-3.0216,-3.0216,-3.0216,-3.0216,-3.0216,-3.0216,-3.0124,-3.0032,-3.0032,-2.9642,-2.916,-2.8632,-2.8609,-2.87,-2.87,-2.9114,-2.9642,-3.0124,-3.0099,-2.9979,-3.0106,-3.0052,-3.0031,-3.0073,-3.0025,0.0,-2.9747,-2.9747,-2.9429,-2.8607,-2.8876,-2.8807,-2.8063,-2.7989,-2.7915,-2.7804,-2.7249,-2.7061,-2.7337,-2.741,-2.7685,-2.817,-2.8075,-2.7937,0.0,0.0,0.0,0.0,0.0,0.0,0.0,0.0,0.0,0.0,0.0,0.0,0.0,0.0,0.0,0.0,0.0,0.0,0.0,0.0,0.0,0.0,-2.6988,-2.7511,-2.8069,-2.9548,-3.0691,-3.1227,-3.1783,-3.224,-3.2516,-3.2667,-3.2818,-3.2969,-3.2969,-3.3019,-3.3142,-3.3142,-3.3192,-3.3292,-3.3292,-3.3292,-3.3292,-3.3292,-3.3292,-3.3292,-3.3292,-3.3292,-3.3292,-3.3192,-3.3142,-3.3142,-3.2869,-3.2768,-3.2723,-3.2429,-3.2022,-3.1502,0.0,0.0,0.0,0.0,-2.9988,-2.9897,-2.9897,-2.9897,-2.9897,-2.976,-2.9715,-2.9715,-2.9623,-2.9555,-2.9623,-2.9715,-2.9715,-2.9806,-3.0011,-2.9897,-2.9485,-2.8841,-2.8861,-2.8907,-2.8494,-2.8729,-2.9188,-2.9668,-2.9579,0.0,-2.9897,-3.0115,-3.0178,-3.0071,-3.0109,-3.0086,-2.9983,-2.9983,-2.9744,-2.908,-2.9272,-2.9128,-2.8307,-2.8354,0.0,0.0,0.0,-2.7303,-2.731,-2.7619,0.0,0.0,0.0,0.0,0.0,0.0,0.0,0.0,-2.8574,-2.8839,0.0,0.0,0.0,0.0,0.0,0.0,0.0,0.0,0.0,0.0,0.0,0.0,0.0,0.0,0.0,0.0,-2.6064,-2.6648,-2.6879,-2.8475,-2.9828,-3.0474,-3.1043,-3.1454,-3.1761,-3.2088,-3.2291,-3.2342,-3.2342,-3.2443,-3.274,-3.274,0.0,0.0,0.0,-3.3119,-3.3119,-3.3119,-3.3119,-3.3119,-3.3119,-3.3119,-3.3069,-3.2818,-3.2718,-3.2667,-3.2139,-3.1863,-3.1863,-3.1863,-3.1554,-3.1053,-3.0961,-3.0537,-3.0034,-2.9829,-2.96,-2.9347,-2.9347,0.0,0.0,-2.9024,-2.8978,-2.8932,-2.8678,-2.8631,-2.8678,-2.8885,-2.9,-2.9139,-2.96,-2.976,-2.958,-2.8735,-2.8937,-2.9005,-2.8068,-2.8034,-2.8337,-2.8857,-2.8611,-2.8451,-2.8912,-2.9398,-2.9565,-2.9083,-2.9253,-2.9406,-2.9339,-2.9339,-2.9316,-2.9269,0.0,0.0,-2.8341,-2.8463,-2.8128,-2.6949,-2.6986,-2.6964,-2.6723,-2.7066,-2.7117,-2.6966,-2.7189,-2.7531,-2.799,-2.8023,-2.8736,-2.9886,-2.9047,-2.8966,0.0,0.0,0.0,0.0,0.0,0.0,0.0,0.0,0.0,0.0,0.0,0.0,0.0,0.0,0.0,-2.5392,-2.5703,-2.5973,-2.6227,-2.6808,-2.7653,-2.8953,-2.9586,-3.0109,-3.0651,-3.0754,-3.0991,-3.1403,-3.1454,-3.1556,-3.1834,-3.1834,-3.1885,-3.1936,-3.1936,-3.1936,-3.1936,-3.1936,-3.1936,-3.1936,-3.1936,0.0,-3.1936,-3.1659,-3.1556,-3.1505,-3.1197,-3.1043,-3.1043,-3.1043,-3.0528,-2.9811,-3.0211,-2.9933,-2.9255,-2.9024,-2.8792,-2.8581,-2.8373,-2.8279,-2.8279,-2.8233,-2.8233,-2.8186,-2.8139,-2.8139,0.0,-2.8186,-2.8373,-2.8581,-2.8675,-2.8792,-2.8714,-2.7811,-2.7657,-2.7569,-2.6973,-2.6929,-2.7151,-2.7827,-2.7911,-2.7904,-2.8147,-2.8751,-2.9169,-2.908,-2.9307,-2.9398,-2.9171,-2.9171,-2.9014,-2.8545,-2.8925,-2.9015,-2.8633,-2.8632,-2.8471,-2.8012,-2.763,-2.7445,-2.7568,-2.787,-2.7949,-2.7949,-2.8338,-2.8519,-2.8491,-2.8899,-2.9461,-3.0138,-2.9813,-3.0082,0.0,0.0,0.0,0.0,0.0,0.0,0.0,0.0,0.0,0.0,0.0,-2.3916,-2.4445,0.0,-2.481,-2.5022,-2.5158,-2.5311,-2.5421,-2.5679,-2.6373,-2.7672,-2.8475,-2.8986,-2.9323,-2.9586,-2.9848,-3.0141,-3.0141,-3.0245,-3.0526,-3.0578,-3.063,-3.0764,-3.0764,-3.0764,-3.0764,-3.0764,-3.0764,-3.0764,-3.0764,-3.0764,-3.0712,-3.0453,-3.0297,-3.0141,-2.9723,-2.946,-2.9303,-2.946,-2.9085,-2.8396,-2.8663,-2.8545,-2.8139,-2.7977,-2.7741,-2.7431,-2.7315,-2.7268,-2.722,-2.7098,-2.7051,-2.7051,-2.6887,-2.6839,-2.6887,-2.7003,-2.7241,-2.7499,-2.7715,-2.7977,-2.7971,-2.7401,-2.7122,-2.6821,-2.6281,-2.5959,-2.5958,-2.6629,-2.6592,-2.6526,-2.6975,-2.722,-2.7647,-2.842,-2.8653,-2.8699,-2.856,-2.856,-2.8473,-2.8166,-2.8269,-2.8265,-2.7982,-2.7508,-2.7213,-2.7129,-2.6721,-2.661,-2.6857,-2.7003,-2.7044,-2.7044,-2.7505,-2.7912,-2.829,-2.8795,-2.9454,-3.0206,-3.0107,-3.0414,0.0,0.0,0.0,0.0,0.0,0.0,0.0,-2.235,-2.2877,-2.3462,-2.3652,-2.3913,-2.4474,-2.4629,-2.4622,-2.4622,-2.4717,-2.4812,-2.4812,-2.4962,-2.5514,-2.6445,-2.7349,-2.7887,-2.7975,-2.8349,-2.8668,-2.8668,-2.8668,-2.8827,-2.9092,-2.9092,-2.9197,-2.9387,-2.9387,-2.9387,-2.9387,-2.9387,-2.9387,-2.9387,-2.9387,-2.9387,-2.9387,-2.9144,-2.888,-2.8668,-2.8189,-2.7833,-2.7618,-2.7887,-2.7524,-2.6922,-2.6953,-2.6774,-2.6552,-2.6696,-2.6504,-2.6119,-2.6071,-2.6022,-2.6022,-2.58,-2.5752,-2.5752,-2.5557,-2.5509,-2.5606,-2.58,-2.6062,-2.6352,-2.6716,-2.703,-2.7143,-2.6852,-2.6522,-2.6124,-2.562,-2.5114,-2.4918,-2.5472,-2.5269,-2.5179,-2.5759,-2.5703,-2.5974,-2.7363,-2.7552,-2.7552,-2.7552,-2.7552,-2.7552,-2.7552,-2.7363,-2.7132,-2.6832,-2.6054,-2.5623,-2.5586,-2.5402,-2.5401,-2.5633,-2.5738,-2.5824,-2.5869,-2.6324,-2.702,-2.7833,-2.8343,-2.8968,-2.976,-2.976,-3.017,-1.8894,-1.9303,-1.9599,-1.9691,-2.0288,-2.0995,0.0,-2.231,-2.3241,-2.3665,-2.4221,-2.4696,-2.4731,-2.4782,-2.4761,-2.4761,-2.4795,-2.4812,-2.4812,-2.4812,-2.4868,-2.5034,-2.5789,-2.6445,-2.6772,-2.6862,-2.6971,-2.7206,-2.7241,-2.7349,-2.7599,-2.7653,-2.7653,-2.7707,-2.7707,-2.7707,-2.7707,-2.7707,-2.7707,-2.7707,-2.7707,-2.7707,-2.7653,-2.7403,-2.726,-2.7206,-2.6916,-2.6754,-2.6754,-2.6754,-2.6291,-2.55,-2.5552,-2.4932,-2.4165,-2.4884,-2.4952,-2.4677,-2.448,-2.4362,-2.4381,-2.4332,-2.448,-2.4677,-2.4627,-2.4775,-2.4971,-2.5039,-2.5235,-2.543,-2.5479,-2.5703,-2.5827,-2.5326,-2.5189,-2.5031,-2.4552,-2.4415,-2.4441,-2.4714,-2.4716,-2.4727,-2.4993,-2.502,-2.5216,-2.5829,-2.5974,-2.5974,-2.5974,-2.5974,-2.5974,-2.5974,-2.5926,-2.5788,-2.5366,-2.5079,-2.474,-2.4415,-2.4541,-2.4637,-2.468,-2.5062,-2.5424,-2.5806,-2.6319,-2.6811,-2.7281,-2.7818,-2.8121,-2.8279,-2.8279,-2.9095,-1.844,-1.8548,-1.8673,-1.9401,-2.0003,-2.0574,-2.1338,-2.2175,-2.2925,-2.3491,-2.3861,-2.4144,-2.4496,-2.4721,-2.4913,-2.5138,-2.5326,-2.5406,-2.5406,-2.5275,-2.5138,-2.5138,-2.5284,-2.5459,-2.5771,-2.5953,-2.6118,-2.6227,-2.6227,-2.6282,-2.6373,-2.6427,-2.6427,-2.6427,-2.6427,-2.6427,-2.6427,-2.6427,-2.6427,-2.6427,-2.6427,-2.6427,-2.6427,-2.6282,-2.6118,-2.5935,-2.5679,-2.5569,-2.5569,-2.5734,-2.545,-2.4881,-2.4702,-2.4171,-2.3657,-2.4058,-2.4084,-2.3836,-2.3737,-2.3687,-2.3687,-2.3687,-2.3786,-2.3836,-2.3836,-2.3935,-2.4053,-2.4053,-2.4183,-2.4381,-2.4578,-2.4775,-2.4963,-2.4938,-2.4756,-2.4545,-2.4326,-2.4143,-2.4011,-2.4145,-2.4172,-2.4256,-2.4473,-2.4498,-2.4597,-2.4775,-2.5069,-2.5216,-2.5216,-2.5216,-2.5167,-2.502,-2.4792,-2.444,-2.39,-2.3651,-2.3556,-2.35,-2.3727,-2.4014,-2.4386,-2.4565,-2.4755,-2.4937,-2.5427,-2.5843,-2.6166,-2.6635,-2.6982,-2.7125,-2.7125,-2.7647,-1.7655,-1.7682,-1.783,-1.8945,-1.95,-1.9962,-2.0772,-2.143,-2.207,-2.2724,-2.3006,-2.332,-2.3868,-2.4267,-2.4597,-2.4942,-2.5235,-2.5402,-2.5402,-2.5167,-2.5,-2.5016,-2.4681,-2.4519,-2.4726,-2.5197,-2.5476,-2.5476,-2.5476,-2.5476,-2.5476,-2.5476,-2.5476,-2.5476,-2.5476,-2.5476,-2.5476,-2.5476,-2.5476,-2.5476,-2.5366,-2.5348,-2.5366,-2.5183,-2.4906,-2.4556,-2.4423,-2.4312,-2.4312,-2.4518,-2.4336,-2.3979,-2.3708,-2.337,-2.2928,-2.3046,-2.3075,-2.3038,-2.2887,-2.2837,-2.2787,-2.2736,-2.2787,-2.2937,-2.3038,-2.3138,-2.3288,-2.3356,-2.3438,-2.3538,-2.3737,-2.3886,-2.3985,-2.4183,-2.4012,-2.3809,-2.3809,-2.357,-2.3411,-2.3608,-2.3596,-2.3706,-2.3949,-2.4003,-2.4003,-2.4003,-2.4251,-2.4529,-2.4695,-2.4695,-2.4646,-2.443,-2.4189,-2.374,-2.3096,-2.2972,-2.2936,-2.2962,-2.3237,-2.3553,-2.4025,-2.409,-2.4195,-2.4311,-2.4619,-2.4975,-2.5234,-2.5595,-2.5849,-2.6071,-2.6071,-2.6264,-1.6128,-1.6564,-1.6914,-1.7754,-1.8448,-1.9003,-1.9319,-1.9839,-2.0458,-2.1117,-2.1744,-2.2348,-2.2902,-2.3341,-2.3657,-2.4007,-2.4039,-2.4039,-2.4039,-2.4023,-2.4023,-2.4055,-2.3737,-2.353,-2.353,-2.4361,-2.4812,-2.4812,-2.4812,-2.4812,-2.4812,-2.4812,-2.4812,-2.4812,-2.4812,-2.4812,-2.4812,-2.4812,-2.4812,-2.4812,-2.4552,-2.444,-2.444,-2.3809,-2.336,-2.3078,-2.3078,-2.3078,-2.3078,-2.3078,-2.2855,-2.2466,-2.245,-2.2037,-2.1449,-2.1486,-2.1781,-2.208,-2.1522,-2.1369,-2.1318,-2.1078,-2.1318,-2.1827,-2.208,-2.2485,-2.2987,-2.3306,-2.3188,-2.2937,-2.292,-2.2736,-2.2585,-2.2568,-2.2568,-2.2551,-2.2551,-2.2551,-2.2601,-2.2852,-2.2902,-2.302,-2.3356,-2.3406,-2.3406,-2.3406,-2.3456,-2.3655,-2.4152,-2.4202,-2.4202,-2.4202,-2.4183,-2.4018,-2.3517,-2.3462,-2.3297,-2.2913,-2.313,-2.3317,-2.3336,-2.357,-2.39,-2.4297,-2.4316,-2.4524,-2.4922,-2.4922,-2.4941,-2.4941,-2.4941,-2.5088,-1.5505,-1.5771,-1.6003,-1.6795,-1.7336,-1.7689,-1.8052,-1.8402,-1.8855,-1.955,-1.9846,-2.026,-2.1305,-2.178,-2.2321,-2.3237,-2.3575,-2.3791,-2.4023,-2.3853,-2.3669,-2.3669,-2.3361,-2.316,-2.316,-2.362,-2.3943,-2.3943,-2.3943,-2.3943,-2.3943,-2.3715,-2.3641,-2.3641,-2.3641,-2.3641,-2.3641,-2.3641,-2.3641,-2.3585,-2.3271,-2.3159,-2.3159,-2.2765,-2.2482,-2.2425,-2.2425,-2.2425,-2.2425,-2.2425,-2.2307,-2.2168,-2.1896,-2.1541,-2.1179,-2.0681,-2.0361,-2.021,-2.0637,-2.0652,-2.0498,-2.0395,-2.0498,-2.0704,-2.0944,-2.1148,-2.1353,-2.1674,-2.1674,-2.1573,-2.1556,-2.1505,-2.1454,-2.1454,-2.1454,-2.1505,-2.1641,-2.1692,-2.1759,-2.208,-2.208,-2.2131,-2.2232,-2.2283,-2.2283,-2.2283,-2.2937,-2.3456,-2.3655,-2.3655,-2.3655,-2.3655,-2.3422,-2.3157,-2.2965,-2.2877,-2.2865,-2.2991,-2.3297,-2.357,-2.3876,-2.3992,-2.4115,-2.4245,-2.4245,-2.4319,-2.4449,-2.4449,-2.4449,-2.4449,-2.4449,-2.4548,-1.4853,-1.5076,-1.5255,-1.6004,-1.636,-1.6596,-1.6891,-1.7126,-1.7443,-1.7973,-1.8212,-1.8573,-1.9611,-2.0056,-2.0655,-2.1689,-2.2097,-2.2342,-2.2659,-2.2529,-2.2461,-2.2461,-2.2187,-2.1985,-2.1985,-2.2051,-2.2423,-2.3255,-2.3189,-2.3126,-2.3126,-2.2855,-2.2667,-2.2667,-2.2667,-2.2667,-2.2667,-2.2667,-2.2611,-2.2498,-2.2199,-2.19,-2.1672,-2.1402,-2.1216,-2.1102,-2.1102,-2.1102,-2.1102,-2.1102,-2.1102,-2.1088,-2.0827,-2.0565,-2.0245,-1.9708,-1.9163,-1.8759,-1.9494,-1.9554,-1.9346,-1.9242,-1.9294,-1.9398,-1.9761,-1.9968,-2.0122,-2.0498,-2.0447,-2.0277,-2.0261,-2.0158,-2.0019,-2.0019,-2.0019,-2.0055,-2.021,-2.0261,-2.0313,-2.0585,-2.0637,-2.0688,-2.079,-2.079,-2.079,-2.079,-2.1438,-2.2114,-2.2736,-2.2787,-2.2787,-2.2787,-2.2611,-2.2472,-2.2472,-2.2589,-2.2748,-2.2997,-2.3309,-2.3632,-2.4035,-2.4053,-2.4102,-2.4202,-2.4202,-2.4202,-2.4202,-2.4202,-2.4202,-2.4202,-2.4202,-2.4251,-1.4266,-1.4512,-1.474,-1.5429,-1.5601,-1.5661,-1.6028,-1.6076,-1.6175,-1.6564,-1.6827,-1.7231,-1.7873,-1.8202,-1.8631,-1.9483,-1.9636,-1.9738,-2.0017,-2.0322,-2.0513,-2.0513,-2.0216,-2.0047,-2.0047,-1.9736,-2.0486,-2.2617,-2.2494,-2.2299,-2.2299,-2.2039,-2.19,-2.19,-2.19,-2.19,-2.19,-2.19,-2.1786,-2.1445,-2.1174,-2.0773,-2.0213,-1.9866,-1.9577,-1.9261,-1.9261,-1.9261,-1.9261,-1.9261,-1.9261,-1.9261,-1.9261,-1.9101,-1.8835,-1.8597,-1.8084,-1.7631,-1.8126,-1.816,-1.7884,-1.7635,-1.7726,-1.8042,-1.8565,-1.893,-1.9228,-1.9813,-1.9554,-1.9124,-1.9124,-1.8722,-1.8318,-1.8318,-1.8318,-1.8318,-1.8318,-1.8318,-1.8422,-1.867,-1.8722,-1.8826,-1.9072,-1.9124,-1.9124,-1.9124,-1.9124,-1.9694,-2.1369,-2.1573,-2.1573,-2.1573,-2.1827,-2.1979,-2.1979,-2.2467,-2.2769,-2.2769,-2.3138,-2.3456,-2.3705,-2.3755,-2.3854,-2.4102,-2.4102,-2.4102,-2.4152,-2.4152,-2.4152,-2.4152,-2.4152,-2.4152,-1.4845,-1.5006,-1.5092,-1.5505,-1.5601,-1.5601,-1.572,-1.559,-1.5438,-1.5547,-1.5535,-1.5749,-1.6529,-1.6791,-1.721,-1.819,-1.8545,-1.8766,-1.9036,-1.932,-1.9456,-1.9456,-1.9394,-1.9345,-1.9345,-1.9281,-1.9447,-2.0053,-2.0082,-2.0033,-2.0033,-1.9599,-1.9363,-1.9363,-1.9363,-1.9363,-1.9363,-1.9608,-1.9679,-1.9564,-1.9506,-1.9403,-1.9229,-1.8881,-1.8706,-1.8648,-1.8648,-1.8648,-1.8648,-1.8648,-1.8648,-1.8648,-1.8648,-1.8481,-1.8223,-1.8146,-1.7772,-1.7202,-1.7143,-1.7062,-1.7041,-1.6935,-1.6988,-1.7094,-1.7477,-1.7648,-1.7793,-1.816,-1.8146,-1.7937,-1.774,-1.7595,-1.7437,-1.7213,-1.716,-1.7213,-1.7437,-1.749,-1.7595,-1.7845,-1.7898,-1.795,-1.7989,-1.7989,-1.7989,-1.7989,-1.7989,-1.8461,-1.9694,-1.9849,-1.9901,-2.0107,-2.021,-2.0364,-2.0585,-2.1097,-2.1387,-2.1387,-2.2064,-2.2485,-2.2535,-2.2736,-2.2887,-2.2937,-2.2937,-2.3038,-2.3238,-2.3238,-2.3338,-2.3605,-2.3605,-2.3605,-1.4242,-1.448,-1.4659,-1.4945,-1.5186,-1.5332,-1.5296,-1.5226,-1.5135,-1.492,-1.4841,-1.4932,-1.5534,-1.5659,-1.6012,-1.6997,-1.7322,-1.7541,-1.7897,-1.8209,-1.8366,-1.8366,-1.8366,-1.8366,-1.8366,-1.8238,-1.8173,-1.8173,-1.8565,-1.8814,-1.8814,-1.8292,-1.7994,-1.7994,-1.7994,-1.7994,-1.7994,-1.8181,-1.8298,-1.8298,-1.811,-1.8052,-1.8052,-1.7713,-1.7596,-1.7596,-1.7596,-1.7596,-1.7596,-1.7596,-1.7596,-1.7596,-1.7596,-1.7453,-1.7365,-1.7359,-1.7155,-1.6871,-1.6728,-1.6698,-1.6634,-1.6439,-1.6365,-1.6418,-1.6696,-1.6802,-1.6855,-1.7107,-1.7107,-1.7014,-1.6855,-1.6696,-1.659,-1.6365,-1.6365,-1.6418,-1.659,-1.6643,-1.6696,-1.6842,-1.6842,-1.6842,-1.6842,-1.6842,-1.6842,-1.6842,-1.6842,-1.7054,-1.766,-1.8199,-1.8565,-1.8708,-1.8812,-1.8968,-1.9138,-1.9642,-2.0004,-2.0158,-2.0672,-2.1183,-2.1556,-2.1709,-2.1912,-2.2131,-2.2131,-2.2232,-2.2367,-2.2367,-2.2485,-2.2636,-2.2636,-2.2636,-1.3131,-1.341,-1.3751,-1.4004,-1.4461,-1.4816,-1.4717,-1.4819,-1.4844,-1.451,-1.4404,-1.4512,-1.4837,-1.488,-1.5171,-1.6075,-1.6247,-1.642,-1.685,-1.7205,-1.7431,-1.74,-1.74,-1.74,-1.74,-1.7141,-1.7001,-1.7001,-1.7628,-1.8018,-1.8018,-1.753,-1.7244,-1.7244,-1.7244,-1.7244,-1.7244,-1.7303,-1.7315,-1.7315,-1.7067,-1.6938,-1.6938,-1.6655,-1.6478,-1.6478,-1.6478,-1.6478,-1.6478,-1.6478,-1.6478,-1.6478,-1.6478,-1.6478,-1.6514,-1.6576,-1.661,-1.6575,-1.6613,-1.6642,-1.6558,-1.6163,-1.5994,-1.6048,-1.6275,-1.6328,-1.6382,-1.6637,-1.653,-1.6328,-1.6328,-1.6167,-1.5994,-1.5994,-1.5994,-1.5994,-1.5994,-1.5994,-1.5982,-1.5946,-1.5946,-1.5934,-1.5897,-1.5885,-1.5885,-1.5885,-1.5885,-1.5885,-1.5885,-1.6736,-1.7371,-1.7424,-1.7621,-1.7779,-1.7832,-1.8304,-1.867,-1.8916,-1.9228,-1.9731,-2.0467,-2.057,-2.079,-2.1267,-2.1267,-2.1267,-2.1318,-2.1318,-2.1302,-2.1353,-2.1353,-2.1385,-1.2773,-1.2851,-1.2979,-1.3315,-1.3444,-1.3627,-1.4005,-1.3933,-1.3848,-1.4145,-1.3991,-1.4046,-1.4748,-1.488,-1.5063,-1.5634,-1.5881,-1.6169,-1.6398,-1.6666,-1.6924,-1.7044,-1.7066,-1.7066,-1.7066,-1.7001,-1.7001,-1.7001,-1.6507,-1.6363,-1.6622,-1.6222,-1.5957,-1.5957,-1.5957,-1.5957,-1.5957,-1.6194,-1.6312,-1.6312,-1.6478,-1.6596,-1.6596,-1.6537,-1.6478,-1.6478,-1.6478,0.0,-1.6478,-1.6478,-1.6478,-1.6478,-1.6478,-1.6478,-1.6467,-1.6492,-1.6527,-1.6493,-1.6299,-1.6218,-1.6229,-1.649,-1.6561,-1.6561,-1.6617,-1.6617,-1.6617,-1.6673,-1.6673,-1.6617,-1.6617,-1.6617,-1.6561,-1.6561,-1.6561,-1.6561,-1.6561,-1.6561,-1.6489,-1.626,-1.6211,-1.6139,-1.5922,-1.5885,-1.5885,-1.5885,-1.5885,-1.5885,-1.5885,-1.6045,-1.6258,-1.6483,-1.659,-1.6683,-1.6882,-1.7265,-1.749,-1.7543,-1.7989,-1.8342,-1.8499,-1.8722,-1.8878,-1.8997,-1.8997,-1.9086,-1.9294,-1.9294,-1.9435,-1.9642,-1.9642,-1.974,-1.11,-1.1259,-1.1511,-1.1872,-1.2174,-1.2465,-1.2696,-1.2906,-1.3088,-1.3206,-1.3222,-1.3556,-1.4512,-1.471,-1.497,-1.5688,-1.5761,-1.583,-1.6118,-1.6013,-1.5977,-1.6193,-1.6029,-1.5899,-1.5899,-1.5899,-1.5899,-1.5899,-1.5469,-1.5428,-1.6002,-1.5608,-1.5353,-1.5353,-1.5542,-1.5601,-1.5601,-1.5779,-1.5839,-1.5839,-1.5957,-1.6005,-1.6005,-1.6005,-1.6005,-1.6005,-1.6005,-1.6005,-1.6005,-1.5828,-1.5769,-1.5769,-1.5413,-1.5294,-1.5294,-1.5472,-1.5521,-1.5569,-1.5755,-1.584,-1.5876,-1.6055,-1.6297,-1.647,-1.6638,-1.6706,-1.6706,-1.6706,-1.6706,-1.6706,-1.6706,-1.6706,-1.6706,-1.6706,-1.6706,-1.6706,-1.6706,-1.6706,-1.6658,-1.6525,-1.6501,-1.6453,-1.6332,-1.6308,-1.6308,-1.6308,-1.6308,-1.6308,-1.6308,-1.6308,-1.6254,-1.6082,-1.6111,-1.6164,-1.6258,-1.6418,-1.659,-1.6696,-1.6948,-1.7265,-1.7582,-1.7687,-1.7845,-1.8003,-1.8003,-1.8055,-1.8199,-1.8312,-1.8434,-1.8593,-1.8707,-1.886,-0.9427,-0.9727,-1.0065,-1.0429,-1.0846,-1.1183,-1.1305,-1.1742,-1.2086,-1.2028,-1.2365,-1.2947,-1.3901,-1.4184,-1.4514,-1.5353,-1.5276,-1.5248,-1.5562,-1.5116,-1.4894,-1.5154,-1.4866,-1.467,-1.467,-1.467,-1.467,-1.467,-1.4364,-1.4576,-1.537,-1.5033,-1.4818,-1.4818,-1.5056,-1.5186,-1.5186,-1.5186,-1.5186,-1.5186,-1.5186,-1.5186,-1.5186,-1.5186,-1.5186,-1.5186,-1.5186,-1.5186,-1.5175,-1.4937,-1.4759,-1.4639,-1.4172,-1.3933,-1.3933,-1.4093,-1.4212,-1.4272,-1.4818,-1.4997,-1.4997,-1.5056,-1.5507,-1.6114,-1.6353,-1.6466,-1.6466,-1.6466,-1.6466,-1.6466,-1.6466,-1.6466,-1.6466,-1.6523,-1.658,-1.658,-1.6762,-1.6762,-1.6794,-1.6791,-1.6791,-1.6767,-1.6706,-1.6706,-1.6706,-1.6706,-1.6706,-1.6706,-1.6706,-1.6706,-1.6537,-1.6115,-1.6066,-1.6066,-1.6066,-1.6066,-1.6174,-1.639,-1.639,-1.6605,-1.7088,-1.7088,-1.7195,-1.7396,-1.7396,-1.7396,-1.7409,-1.7631,-1.7736,-1.7736,-1.7929,-1.8072,-0.8866,-0.8964,-0.9098,-0.9396,-0.9457,-0.962,-0.9909,-1.0243,-1.0604,-1.0808,-1.1411,-1.2049,-1.2671,-1.3096,-1.3536,-1.3854,-1.3892,-1.3924,-1.4029,-1.3959,-1.397,-1.4027,-1.4006,-1.4006,-1.4006,-1.4006,-1.4006,-1.4006,-1.334,-1.3296,-1.4024,-1.3927,-1.3803,-1.3803,-1.3873,-1.3863,-1.3863,-1.3863,-1.3863,-1.3863,-1.3863,-1.3863,-1.3863,-1.3863,-1.3863,-1.3863,-1.3863,-1.3863,0.0,-1.3863,-1.3624,-1.3384,-1.3324,-1.3084,-1.2844,-1.2904,-1.2895,-1.2895,-1.2955,-1.2964,-1.3015,-1.3306,-1.4421,-1.5655,-1.5714,-1.5714,-1.5714,-1.5714,-1.5714,-1.5714,-1.5714,-1.5714,-1.5762,-1.6057,-1.6175,-1.6292,-1.6833,-1.695,-1.6996,-1.7047,-1.7056,-1.6984,-1.6742,-1.6706,-1.6706,-1.6706,-1.6706,-1.6706,-1.6706,-1.6706,-1.6682,-1.6634,-1.6622,-1.6622,-1.6622,-1.6622,-1.6622,-1.6677,-1.6677,-1.6677,-1.6733,-1.6733,-1.6733,-1.6789,-1.6789,-1.6789,-1.6789,-1.6813,-1.6826,-1.6826,-1.685,-1.6996,-0.7784,-0.8064,-0.836,-0.8671,-0.8732,-0.8781,-0.8916,-0.92,-0.9493,-0.9714,-1.0283,-1.0972,-1.1728,-1.2197,-1.2604,-1.3048,-1.2904,-1.2795,-1.2804,-1.2477,-1.2227,-1.225,-1.2099,-1.1967,-1.1967,-1.1967,-1.1967,-1.1967,-1.1618,-1.1479,-1.1744,-1.2395,-1.2784,-1.2784,-1.2964,-1.3084,-1.3084,-1.3084,-1.3084,-1.3084,-1.3084,-1.3084,-1.3084,-1.3084,-1.3084,-1.3084,-1.3084,-1.3084,0.0,-1.2904,-1.2595,-1.2234,-1.1872,-1.1571,-1.1269,-1.1269,-1.1269,-1.1269,-1.1511,-1.1571,-1.1571,-1.1692,-1.2165,-1.2955,-1.4093,-1.4451,-1.4451,-1.4451,-1.4451,-1.4451,-1.4451,-1.457,-1.4808,-1.5105,-1.5343,-1.5591,-1.5828,-1.6016,-1.6161,-1.6177,-1.6213,-1.6191,-1.6031,-1.602,-1.602,-1.602,-1.602,-1.6136,-1.6298,-1.6356,-1.6472,-1.6831,-1.6774,-1.6706,-1.6706,-1.6706,-1.6706,-1.6706,-1.6706,-1.6706,-1.6706,-1.6706,-1.6706,-1.6706,-1.6706,-1.6706,-1.6706,-1.6863,-1.6936,-1.6936,-1.7092,-1.7225,-0.6985,-0.7274,-0.7646,-0.7989,-0.8094,-0.8081,-0.8195,-0.8417,-0.8652,-0.8781,-0.9303,-0.9918,-1.0612,-1.1043,-1.1419,-1.1796,-1.1631,-1.1492,-1.1416,-1.1014,-1.0672,-1.0671,-1.0451,-1.0274,-1.032,-1.0366,-1.0392,-1.0392,-1.0248,-1.0103,-1.0022,-1.0823,-1.1323,-1.1511,-1.1692,-1.1812,-1.1812,-1.1812,-1.1812,-1.1812,-1.1812,-1.1812,-1.1812,-1.1812,-1.1812,-1.1812,-1.1812,-1.1812,0.0,-1.1571,-1.1269,-1.0967,-1.0543,-1.0186,-0.9883,-0.9883,-0.9883,-0.9943,-1.0186,-1.0247,-1.0247,-1.0247,-1.0247,-1.0482,-1.1864,-1.2526,-1.2826,-1.2826,-1.2826,-1.2826,-1.2826,-1.3006,-1.3246,-1.3665,-1.3913,-1.4152,-1.4451,-1.4689,-1.4937,-1.4997,-1.5056,-1.5056,-1.5056,-1.5056,-1.5056,-1.5056,-1.5056,-1.5175,-1.5461,-1.5521,-1.5758,-1.636,-1.6287,-1.6411,-1.6879,-1.6936,-1.6936,-1.6936,-1.6936,-1.6936,-1.6936,-1.6936,-1.6936,-1.6936,-1.6936,-1.6936,-1.6936,-1.7117,-1.7201,-1.7213,-1.7394,-1.7479,-0.6684,-0.6801,-0.689,-0.7296,-0.7301,-0.728,-0.7638,-0.7842,-0.7979,-0.8038,-0.8608,-0.9116,-0.9116,-0.9533,-0.9815,-0.9822,-0.9822,-0.9754,-0.966,-0.9623,-0.955,-0.9367,-0.9315,-0.9371,-0.9512,-0.9648,-0.9728,-0.9728,-0.9533,-0.9392,-0.9321,-0.9123,-0.9298,-0.9829,-0.9822,-0.9822,-0.9822,-0.9822,-0.9822,-0.9822,-0.9822,-0.9822,-0.9822,-0.9822,-0.9822,-0.9822,-0.9822,-0.9822,0.0,-0.9822,-0.964,-0.9335,-0.9335,-0.9159,-0.8915,-0.8915,-0.8915,-0.8915,-0.8915,-0.8915,-0.8915,-0.8915,-0.8915,-0.8915,-0.8915,-0.9822,-1.0846,-1.0846,-1.0846,-1.0846,-1.0846,-1.0846,-1.0967,-1.1571,-1.1752,-1.1993,-1.3006,-1.3246,-1.3306,-1.3665,-1.3725,-1.3725,-1.3725,-1.3725,-1.3725,-1.3725,-1.3725,-1.3844,-1.4083,-1.4143,-1.4381,-1.5056,-1.5105,-1.5758,-1.7349,-1.7479,-1.7479,-1.7479,-1.7479,-1.7479,-1.7479,-1.7479,-1.7479,-1.7479,-1.7479,-1.7479,-1.7479,-1.7479,-1.7479,-1.7479,-1.7479,-1.7479,-0.6218,-0.6462,-0.67,-0.6793,-0.6891,-0.6961,-0.6946,-0.7192,-0.746,-0.746,-0.8022,-0.8498,-0.8594,-0.8945,-0.9159,-0.9159,-0.9159,-0.9081,-0.8907,-0.8863,-0.8785,-0.8603,-0.8629,-0.8731,-0.8849,-0.89,-0.8923,-0.8923,-0.8883,-0.877,-0.8561,-0.8516,-0.8648,-0.9166,-0.9159,-0.9159,-0.9159,-0.9159,-0.9159,-0.9159,-0.9159,-0.9159,-0.9159,-0.9159,-0.9159,-0.9159,-0.9159,-0.9159,-0.9159,-0.9159,-0.8976,-0.8671,-0.8671,-0.8488,-0.8238,-0.8238,-0.8238,-0.8238,-0.8238,-0.8238,-0.8238,-0.8238,-0.8238,-0.8238,-0.8238,-0.8787,-0.9518,-0.9518,-0.9518,-0.9518,-0.97,-0.9761,-0.9883,-1.0301,-1.0604,-1.0846,-1.1148,-1.1382,-1.1563,-1.1692,-1.1752,-1.1752,-1.1752,-1.1752,-1.1752,-1.1752,-1.1752,-1.1804,-1.2157,-1.2346,-1.2706,-1.3366,-1.3665,-1.456,-1.6408,-1.6537,-1.6596,-1.6773,-1.6832,-1.6832,-1.6832,-1.702,-1.7138,-1.7138,-1.7373,-1.7479,-1.7479,-1.7479,-1.7479,-1.7479,-1.7479,-1.7479,-0.579,-0.6014,-0.6241,-0.6399,-0.6459,-0.6556,-0.665,-0.6872,-0.705,-0.709,-0.7402,-0.773,-0.7805,-0.8122,-0.8305,-0.8183,-0.8244,-0.8206,-0.7913,-0.7924,-0.7843,-0.777,-0.7889,-0.8003,-0.8112,-0.8163,-0.8189,-0.8189,-0.8189,-0.8091,-0.7863,-0.7847,-0.7933,-0.8127,-0.8366,-0.8549,-0.8549,-0.8549,-0.8549,-0.8549,-0.8549,-0.8549,-0.8549,-0.8549,-0.8549,-0.8549,-0.8549,-0.8549,0.0,-0.8549,-0.8427,-0.8183,-0.8183,-0.8055,-0.7872,-0.7872,-0.7872,-0.7872,-0.7872,-0.7872,-0.7872,-0.7872,-0.7872,-0.7872,-0.7872,-0.8177,-0.8549,-0.8549,-0.8549,-0.8543,-0.8726,-0.8787,-0.8848,-0.9214,-0.9457,-0.964,-0.9761,-0.9943,-1.0065,-1.0065,-1.0065,-1.0065,-1.0065,-1.0065,-1.0065,-1.0065,-1.0065,-1.0179,-1.0536,-1.0664,-1.1027,-1.1744,-1.1985,-1.2706,-1.4133,-1.4917,-1.5521,-1.5946,-1.5946,-1.6065,-1.636,-1.6537,-1.6726,-1.6785,-1.7009,-1.7126,-1.7126,-1.7256,-1.7315,-1.7315,-1.742,-1.7479,0.0,-0.5508,-0.5586,-0.5977,-0.6066,-0.621,-0.6602,-0.6686,0.0,-0.6818,-0.6898,-0.6903,-0.6903,-0.7143,-0.7266,-0.6959,-0.7143,-0.7266,-0.6959,-0.6908,-0.695,-0.6983,-0.7155,-0.726,-0.7304,-0.7403,-0.7526,-0.7526,-0.7517,-0.7426,-0.7217,-0.7198,-0.7107,-0.6908,-0.7505,-0.7811,-0.7811,-0.7811,-0.7811,-0.7811,-0.7811,-0.7811,-0.7811,-0.7811,-0.7811,-0.7811,-0.7811,-0.7872,-0.7872,-0.7872,-0.7872,-0.7872,-0.7872,-0.7872,-0.7872,-0.7872,-0.7872,-0.7872,-0.7872,-0.7872,-0.7872,-0.7872,-0.7872,-0.7872,-0.7872,-0.7872,-0.7872,-0.7872,-0.7872,-0.7872,-0.7872,-0.7872,-0.7994,-0.8305,-0.8372,-0.8427,-0.8732,-0.8854,-0.8854,-0.8854,-0.8854,-0.8854,-0.8854,-0.8854,-0.8854,-0.8854,-0.8854,-0.8915,-0.9153,-0.9214,-0.9457,-1.0126,-1.0186,-1.0482,-1.1072,-1.2877,-1.4212,-1.4867,-1.4937,-1.5235,-1.5876,-1.5935,-1.6113,-1.636,-1.6419,-1.6419,-1.6419,-1.6726,-1.6903,-1.6903,-1.7244,-1.742,-0.5504,0.0,-0.5529,-0.5681,-0.5814,-0.5873,0.0,-0.6259,-0.6499,-0.6521,-0.6714,-0.6903,-0.6903,-0.6959,-0.7021,-0.6903,-0.6959,-0.6959,-0.6903,-0.6965,-0.6988,-0.7155,-0.72,-0.7304,-0.7412,-0.7512,-0.7526,-0.7526,-0.745,-0.7345,-0.7217,-0.7131,-0.7027,-0.6903,-0.7082,-0.7143,-0.7143,-0.7143,-0.7143,-0.7143,-0.7143,-0.7143,-0.7143,-0.7143,-0.7143,-0.7143,-0.7143,-0.7266,-0.7505,-0.7505,-0.7689,-0.7872,-0.7872,-0.7872,-0.7872,-0.7872,-0.7872,-0.7872,-0.7872,-0.7872,-0.7872,-0.7872,-0.7872,-0.7872,-0.7872,-0.7872,-0.7872,-0.7872,-0.7872,-0.7872,-0.7872,-0.7872,-0.7933,-0.7994,-0.7994,-0.8055,-0.8116,-0.8116,-0.8116,-0.8116,-0.8116,-0.8116,-0.8116,-0.8116,-0.8116,-0.8116,-0.8116,-0.8177,-0.8238,-0.8427,-0.8671,-0.8854,-0.9098,-0.9396,-0.9754,-1.1322,-1.2466,-1.2877,-1.3135,-1.3435,-1.3863,-1.4391,-1.4748,-1.5046,-1.5531,-1.5839,-1.5839,-1.5898,-1.5957,-1.5957,-1.6242,-1.6419,-0.5549,-0.5541,-0.5529,-0.5564,-0.5712,-0.5782,-0.5782,-0.5973,-0.6162,-0.6162,-0.6285,-0.6469,-0.6469,-0.6591,-0.6591,-0.6469,-0.6591,-0.661,-0.6531,-0.6518,-0.6584,-0.6746,-0.6739,-0.6814,-0.6912,-0.692,-0.692,-0.692,-0.6938,-0.6844,-0.6637,-0.6643,-0.6571,-0.6473,-0.6469,-0.6591,-0.6903,-0.6903,-0.6903,-0.6903,-0.6903,-0.6903,-0.6903,-0.6903,-0.6903,-0.6903,-0.6903,-0.7021,-0.7143,-0.7143,-0.7266,-0.7444,-0.7444,-0.7444,-0.7444,-0.7444,-0.7444,-0.7444,-0.7444,-0.7444,-0.7444,-0.7444,-0.7444,-0.7444,-0.7444,-0.7566,-0.7689,-0.7872,-0.7872,-0.7872,-0.7872,-0.7872,-0.7872,-0.7872,-0.7872,-0.7872,-0.7872,-0.7872,-0.7872,-0.7872,-0.7872,-0.7872,-0.7872,-0.7872,-0.7872,-0.7872,-0.7872,-0.7872,-0.7872,-0.8055,-0.8183,-0.8183,-0.8305,-0.8482,-0.8665,-0.9579,-1.0482,-1.1261,-1.1511,-1.1872,-1.2475,-1.2835,-1.3255,-1.3734,-1.4093,-1.4282,-1.4282,-1.4391,-1.451,-1.451,-1.4986,-1.5165,-0.554,-0.5586,-0.5553,-0.56,-0.5745,-0.5802,-0.5802,-0.5863,-0.5916,-0.5916,-0.5904,-0.59,-0.5916,-0.6149,-0.6206,-0.5933,-0.6192,-0.6292,-0.6059,-0.6021,-0.6057,-0.6194,-0.6215,-0.6251,-0.6329,-0.6325,-0.6317,-0.6317,-0.6292,-0.621,-0.6001,-0.5976,-0.5936,-0.5921,-0.5916,-0.6162,-0.6719,-0.6719,-0.6719,-0.6719,-0.6719,-0.6719,-0.6719,-0.6719,-0.6719,-0.6719,-0.6719,0.0,-0.6837,-0.6837,-0.6837,-0.6903,-0.6903,-0.6903,-0.6903,-0.6903,-0.6903,-0.6903,-0.6903,-0.6903,-0.6903,-0.6903,-0.6903,-0.6903,-0.6903,-0.7082,-0.7388,-0.7689,-0.7811,-0.7872,-0.7872,-0.7872,-0.7872,-0.7872,-0.7872,-0.7872,-0.7872,-0.7872,-0.7872,-0.7872,-0.7872,-0.7872,-0.7872,-0.7872,-0.7872,-0.7872,-0.7872,-0.7872,-0.7872,-0.7872,-0.7872,-0.7872,-0.7872,-0.7872,-0.7872,-0.8183,-0.8793,-0.9883,-1.0004,-1.0482,-1.139,-1.145,-1.1752,-1.2414,-1.2414,-1.2414,-1.2414,-1.2706,-1.2826,-1.2826,-1.3426,-1.3665,-0.5556,-0.5576,-0.5605,-0.5835,-0.5884,-0.5896,-0.5896,-0.5908,-0.5916,-0.5916,-0.5855,-0.5827,-0.5904,-0.5916,-0.5912,-0.5944,-0.6092,-0.6209,-0.6157,-0.6227,-0.628,-0.6296,-0.6366,-0.6485,-0.6498,-0.6362,-0.6317,-0.6317,-0.6114,-0.6021,-0.5992,-0.592,-0.5933,-0.5916,-0.5916,-0.5978,-0.6039,-0.6039,-0.6039,-0.6039,-0.6039,-0.6039,-0.6039,-0.6039,-0.6039,-0.6039,0.0,-0.6223,-0.6464,-0.6464,-0.6653,-0.6903,-0.6903,-0.6903,-0.6903,-0.6903,-0.6903,-0.6903,-0.6903,-0.6903,-0.6903,-0.6903,-0.6903,-0.6903,-0.6903,-0.6959,-0.6959,-0.7021,-0.7449,-0.7872,-0.7872,-0.7872,-0.7872,-0.7872,-0.7872,-0.7872,-0.7872,-0.7872,-0.7872,-0.7872,-0.7872,-0.7872,-0.7872,-0.7872,-0.7872,-0.7872,-0.7872,-0.7872,-0.7872,-0.7872,-0.7872,-0.7872,-0.7872,-0.7872,-0.7872,-0.7933,-0.8055,-0.8238,-0.8787,-0.9396,-1.0058,-1.0361,-1.0725,-1.1088,-1.1088,-1.1088,-1.1088,-1.1148,-1.1148,-1.1209,-1.1555,-1.1864,-0.5548,-0.5584,-0.5629,-0.5872,-0.5916,-0.5916,-0.5916,-0.5916,-0.5916,-0.5916,-0.5884,-0.5867,-0.5908,-0.5925,-0.597,-0.61,-0.6153,-0.6198,-0.6247,-0.6292,-0.6317,-0.6317,-0.6353,-0.6362,-0.6313,-0.6268,-0.6223,-0.6114,-0.6037,-0.5968,-0.592,-0.5941,-0.5916,-0.5916,-0.5916,-0.5916,-0.5916,-0.5916,-0.5916,-0.5916,-0.5916,-0.5916,-0.5916,-0.5916,-0.5916,-0.5916,0.0,-0.5978,-0.6162,-0.6162,-0.6223,-0.6346,-0.6346,-0.6346,-0.6346,-0.6346,-0.6346,-0.6346,-0.6346,-0.6346,-0.6346,-0.6346,-0.6346,-0.6346,-0.6346,-0.6469,-0.6653,-0.6653,-0.6959,-0.7388,-0.7566,-0.7627,-0.7689,-0.7872,-0.7872,-0.7872,-0.7872,-0.7872,-0.7872,-0.7872,-0.7872,-0.7872,-0.7872,-0.7872,-0.7872,-0.7872,-0.7872,-0.7872,-0.7872,-0.7872,-0.7872,-0.7872,-0.7872,-0.7872,-0.7872,-0.7872,-0.7872,-0.7872,-0.8366,-0.8732,-0.9037,-0.9335,-0.964,-0.9761,-0.9761,-0.9761,-0.9761,-0.9761,-0.9761,-0.9761,-1.0058,-1.0301,-0.5569,-0.5552,-0.5592,-0.5814,-0.5884,-0.5916,-0.5916,-0.5916,-0.5916,-0.5916,-0.59,-0.5892,-0.5912,-0.601,-0.6104,-0.617,-0.6215,-0.6268,-0.6337,-0.6349,-0.6349,-0.6349,-0.6329,-0.6288,-0.6219,-0.6174,-0.6125,-0.5996,-0.5972,-0.5928,-0.5921,-0.5916,-0.5916,-0.5916,-0.5916,-0.5916,-0.5916,-0.5916,-0.5916,-0.5916,-0.5916,-0.5916,-0.5916,-0.5916,-0.5916,-0.5916,-0.5916,-0.5916,-0.5916,-0.5916,-0.5916,-0.5916,-0.5916,-0.5916,-0.5916,-0.5916,-0.5916,-0.5916,-0.5916,-0.5916,-0.5916,-0.5916,-0.5916,-0.5916,-0.5916,-0.6101,-0.628,-0.628,-0.6469,-0.6775,-0.7204,-0.7266,-0.7327,-0.7627,-0.7689,-0.7689,-0.7689,-0.7689,-0.7689,-0.775,-0.7811,-0.7811,-0.7872,-0.7872,-0.7872,-0.7872,-0.7872,-0.7872,-0.7872,-0.7872,-0.7872,-0.7872,-0.7872,-0.7872,-0.7872,-0.7872,-0.7872,-0.7872,-0.8122,-0.8305,-0.8305,-0.8549,-0.8671,-0.8671,-0.8671,-0.8671,-0.8671,-0.8671,-0.8671,-0.8671,-0.8848,-0.9031,-0.5492,-0.5516,-0.5541,-0.558,-0.579,-0.5916,-0.5916,-0.5916,-0.5916,-0.5916,-0.5851,-0.5818,-0.59,-0.6055,-0.6174,-0.6178,-0.639,-0.6502,-0.651,-0.651,-0.651,-0.651,-0.637,-0.6313,-0.6308,-0.6093,-0.5996,-0.5992,-0.5912,-0.5925,-0.5916,-0.5916,-0.5916,-0.5916,-0.5916,-0.5916,-0.5916,-0.5916,-0.5916,-0.5916,-0.5916,-0.5916,-0.5916,-0.5916,-0.5916,-0.5916,-0.5916,-0.5916,-0.5916,-0.5916,-0.5916,-0.5916,-0.5916,-0.5916,-0.5916,-0.5916,-0.5916,-0.5916,-0.5916,-0.5916,-0.5916,-0.5916,-0.5916,-0.5916,-0.5916,-0.5916,-0.5916,-0.5916,-0.5978,-0.6101,-0.6775,-0.6959,-0.6959,-0.6959,-0.6959,-0.6959,-0.6959,-0.6959,-0.7082,-0.7388,-0.7444,-0.7505,-0.7872,-0.7872,-0.7872,-0.7872,-0.7872,-0.7872,-0.7872,-0.7872,-0.7872,-0.7872,-0.7872,-0.7872,-0.7872,-0.7872,-0.7872,-0.7872,-0.7933,-0.7933,-0.7933,-0.7933,-0.7994,-0.7994,-0.7994,-0.7994,-0.7994,-0.7994,-0.7994,-0.7994,-0.7994,-0.8183,-0.5484,-0.5508,-0.5529,-0.5564,-0.5737,-0.5847,-0.5904,-0.5961,-0.6019,-0.6072,-0.601,-0.5961,-0.5932,-0.61,-0.6198,-0.6255,-0.637,-0.6502,-0.6378,-0.637,-0.6349,-0.6292,-0.6251,-0.621,-0.6093,-0.6029,-0.5968,-0.5912,-0.5937,-0.5916,-0.5916,-0.5916,-0.5916,-0.5916,-0.5916,-0.5916,-0.5916,-0.5916,-0.5916,-0.5916,-0.5916,-0.5916,-0.5916,-0.5916,-0.5916,-0.5916,-0.5916,-0.5916,-0.5916,-0.5916,-0.5916,-0.5916,-0.5916,-0.5916,-0.5916,-0.5916,-0.5916,-0.5916,-0.5916,-0.5916,-0.5916,-0.5916,-0.5916,-0.5916,-0.5916,-0.5916,-0.5916,-0.5916,-0.5916,-0.5978,-0.6469,-0.6591,-0.6653,-0.6837,-0.6903,-0.6903,-0.6903,-0.6903,-0.6959,-0.7082,-0.7082,-0.7143,-0.7266,-0.7266,-0.7266,-0.7266,-0.7266,-0.7266,-0.7266,-0.7266,-0.7388,-0.7566,-0.775,-0.7872,-0.7872,-0.7872,-0.7872,-0.7872,-0.7872,-0.7872,-0.7872,-0.7872,-0.7872,-0.7872,-0.7872,-0.7872,-0.7872,-0.7872,-0.7872,-0.7872,-0.7872,-0.7994,-0.5338,-0.5297,-0.5309,-0.5253,-0.5354,-0.547,-0.5582,-0.578,-0.5972,-0.6121,-0.6117,-0.6021,-0.5996,-0.61,-0.6178,-0.6296,-0.6325,-0.6325,-0.6317,-0.6292,-0.6251,-0.6186,-0.6157,-0.6117,-0.5996,-0.5964,-0.5924,-0.5921,-0.5916,-0.5916,-0.5916,-0.5916,-0.5916,-0.5916,-0.5916,-0.5916,-0.5916,-0.5916,-0.5916,-0.5916,-0.5916,-0.5916,-0.5916,-0.5916,-0.5916,-0.5916,-0.5916,-0.5916,-0.5916,-0.5916,-0.5916,-0.5916,-0.5916,-0.5916,-0.5916,-0.5916,-0.5916,-0.5916,-0.5916,-0.5916,-0.5916,-0.5916,-0.5916,-0.5916,-0.5916,-0.5916,-0.5916,-0.5916,-0.5916,-0.5978,-0.6158,-0.6219,-0.628,-0.653,-0.6591,-0.6591,-0.6591,-0.6591,-0.6591,-0.6714,-0.6714,-0.6775,-0.6898,-0.6903,-0.6903,-0.6903,-0.6903,-0.6903,-0.6903,-0.6903,-0.6959,-0.7204,-0.7449,-0.7566,-0.7566,-0.7566,-0.7566,-0.7566,-0.7689,-0.7811,-0.7872,-0.7872,-0.7872,-0.7872,-0.7872,-0.7872,-0.7872,-0.7872,-0.7872,-0.7872,-0.7872,-0.7872,-0.4987,-0.4875,-0.4819,-0.4592,-0.4596,-0.4749,-0.4899,-0.5425,-0.5883,-0.5972,-0.6121,-0.6153,-0.6005,-0.5992,-0.6049,-0.6288,-0.6106,-0.6053,-0.6288,-0.6235,-0.6178,-0.6178,-0.6104,-0.5988,-0.5988,-0.5908,-0.5916,-0.5916,-0.5916,-0.5916,-0.5916,-0.5916,-0.5916,-0.5916,-0.5916,-0.5916,-0.5916,-0.5916,-0.5916,-0.5916,-0.5916,-0.5916,-0.5916,-0.5916,-0.5916,-0.5916,-0.5916,-0.5916,-0.5916,-0.5916,-0.5916,-0.5916,-0.5916,-0.5916,-0.5916,-0.5916,-0.5916,-0.5916,-0.5916,-0.5916,-0.5916,-0.5916,-0.5916,-0.5916,-0.5916,-0.5916,-0.5916,-0.5916,-0.5916,-0.5916,-0.5916,-0.5916,-0.5916,-0.5916,-0.5916,-0.5916,-0.5916,-0.5916,-0.5978,-0.6342,-0.6403,-0.6526,-0.6841,-0.6903,-0.6903,-0.6903,-0.6903,-0.6903,-0.6903,-0.6903,-0.6903,-0.6903,-0.6903,-0.6903,-0.6903,-0.6903,-0.6903,-0.6903,-0.7209,-0.7572,-0.7872,-0.7872,-0.7872,-0.7872,-0.7872,-0.7872,-0.7872,-0.7872,-0.7872,-0.7872,-0.7872,-0.7872,-0.4648,-0.4672,-0.4756,-0.464,-0.4715,-0.4814,-0.4851,-0.5098,-0.539,-0.5667,-0.6042,-0.621,-0.5998,-0.6059,-0.6141,-0.6069,-0.6137,-0.6141,-0.6069,-0.6045,-0.6068,-0.6002,-0.5974,-0.5957,-0.5957,-0.5933,-0.5916,-0.5916,-0.5916,-0.5916,-0.5916,-0.5916,-0.5916,-0.5916,-0.5916,-0.5916,-0.5916,-0.5916,-0.5916,-0.5916,-0.5916,-0.5916,-0.5916,-0.5916,-0.5916,-0.5916,-0.5916,-0.5916,-0.5916,-0.5916,-0.5916,-0.5916,-0.5916,-0.5916,-0.5916,-0.5916,-0.5916,-0.5916,-0.5916,-0.5916,-0.5916,-0.5916,-0.5916,-0.5916,-0.5916,-0.5916,-0.5916,-0.5916,-0.5916,-0.5916,-0.5916,-0.5916,-0.5916,-0.5916,-0.5916,-0.5916,-0.5916,-0.5916,-0.5916,-0.6039,-0.6039,-0.6122,-0.6251,-0.6264,-0.6285,-0.6408,-0.6421,-0.6421,-0.6421,-0.6611,-0.6742,-0.6742,-0.699,-0.7117,-0.7117,-0.7117,-0.7117,-0.7117,-0.718,-0.7363,-0.7516,-0.775,-0.7872,-0.7872,-0.7872,-0.7872,-0.7872,-0.7872,-0.7872,-0.7872,-0.8021,-0.8059,-0.4313,-0.4418,-0.4464,-0.4144,-0.4151,-0.4228,-0.427,-0.4742,-0.5213,-0.534,-0.5698,-0.5866,-0.5682,-0.5674,-0.5705,-0.5657,-0.5678,-0.5651,-0.567,-0.5581,-0.5605,-0.5675,-0.5732,-0.5732,-0.5916,-0.5794,-0.5732,-0.5732,-0.5548,-0.5486,-0.5486,-0.5486,-0.5486,-0.5486,-0.5609,-0.5732,-0.5732,-0.5855,-0.5916,-0.5916,-0.5916,-0.5916,-0.5916,-0.5916,-0.5916,-0.5916,-0.5916,-0.5916,-0.5916,-0.5916,-0.5916,-0.5916,-0.5916,-0.5916,-0.5916,-0.5916,-0.5916,-0.5916,-0.5916,-0.5916,-0.5916,-0.5916,-0.5916,-0.5916,-0.5916,-0.5916,-0.5916,-0.5916,-0.5916,-0.5916,-0.5916,-0.5916,-0.5916,-0.5916,-0.5916,-0.5916,-0.5916,-0.5916,-0.5929,-0.5965,-0.5912,-0.5998,-0.6088,-0.6104,-0.6121,-0.6174,-0.6182,-0.6182,-0.6182,-0.6374,-0.6503,-0.6503,-0.6695,-0.6823,-0.6823,-0.6823,-0.6823,-0.6823,-0.6951,-0.7028,-0.7089,-0.7453,-0.764,-0.764,-0.764,-0.764,-0.764,-0.764,-0.764,-0.764,-0.7713,-0.7812,-0.398,-0.3971,-0.3942,-0.3301,-0.3253,-0.3328,-0.3263,-0.4119,-0.4948,-0.5006,-0.5134,-0.5229,-0.5083,-0.4966,-0.4863,-0.4993,-0.485,-0.4767,-0.4903,-0.487,-0.4892,-0.5259,-0.5259,-0.5378,-0.5683,-0.5432,-0.5244,-0.5237,-0.4995,-0.481,-0.481,-0.481,-0.481,-0.481,-0.5114,-0.5237,-0.5237,-0.5609,-0.5732,-0.5794,-0.5855,-0.5855,-0.5855,-0.5855,-0.5916,-0.5916,-0.5916,-0.5916,-0.5916,-0.5916,-0.5916,-0.5916,-0.5916,-0.5916,-0.5916,-0.5916,-0.5921,-0.5929,-0.5929,-0.5937,-0.5941,-0.5933,-0.5929,-0.5929,-0.5929,-0.5929,-0.5933,-0.5941,-0.5941,-0.5941,-0.5941,-0.5941,-0.5941,-0.5941,-0.5937,-0.5929,-0.5929,-0.5937,-0.5965,-0.5988,-0.6001,-0.6029,-0.6178,-0.6194,-0.6194,-0.6202,-0.6206,-0.6206,-0.6206,-0.6206,-0.6206,-0.6206,-0.6206,-0.6206,-0.6206,-0.6206,-0.6206,-0.6206,-0.6533,-0.6661,-0.6661,-0.7025,-0.7207,-0.7207,-0.7207,-0.7207,-0.7207,-0.7207,-0.7207,-0.7207,-0.7217,-0.7355,-0.2973,-0.3101,-0.3225,-0.2994,-0.2871,-0.2678,-0.2401,-0.2559,-0.303,-0.3992,-0.4512,-0.4686,-0.4253,-0.425,-0.4213,-0.3923,-0.3831,-0.3768,-0.3837,-0.3837,-0.3893,-0.4279,-0.4279,-0.4322,-0.4398,-0.433,-0.4306,-0.4256,-0.4127,-0.413,-0.413,-0.413,-0.413,-0.413,-0.4192,-0.425,-0.425,-0.4561,-0.4745,-0.4745,-0.5237,-0.5483,-0.5544,-0.5794,-0.5916,-0.5916,-0.5916,-0.5916,-0.5916,-0.5916,-0.5916,-0.5916,-0.5916,-0.5916,-0.5916,-0.5916,-0.5961,-0.596,-0.596,-0.6068,-0.6112,-0.5984,-0.596,-0.596,-0.596,-0.596,-0.5976,-0.6104,-0.6125,-0.6125,-0.6125,-0.6125,-0.6125,-0.6125,-0.6072,-0.596,-0.596,-0.6076,-0.6129,-0.6149,-0.6153,-0.6182,-0.6272,-0.6288,-0.6313,-0.6452,-0.6461,-0.6461,-0.6461,-0.6461,-0.6461,-0.6461,-0.6461,-0.6461,-0.6461,-0.6461,-0.6461,-0.6461,-0.6527,-0.6527,-0.6527,-0.6974,-0.7207,-0.7207,-0.7207,-0.7207,-0.7207,-0.7207,-0.7207,-0.7207,-0.7228,-0.7331,-0.2458,-0.2499,-0.2466,-0.2094,-0.1799,-0.1554,-0.1285,-0.1296,-0.1494,-0.1914,-0.2761,-0.33,-0.2874,-0.2821,-0.2711,-0.2333,-0.2282,-0.2235,-0.2253,-0.2256,-0.2385,-0.2705,-0.2769,-0.2826,-0.2995,-0.2846,-0.2762,-0.2678,-0.2598,-0.2527,-0.2527,-0.2527,-0.2527,-0.2527,-0.2835,-0.302,-0.302,-0.3512,-0.382,-0.3943,-0.4312,-0.4619,-0.493,-0.5609,-0.5916,-0.5916,-0.5916,-0.5916,-0.5916,-0.5916,-0.5945,-0.592,-0.592,-0.6006,-0.6043,-0.6043,-0.6072,-0.6112,-0.6112,-0.6145,-0.6174,-0.6129,-0.6112,-0.6112,-0.6112,-0.6112,-0.6125,-0.617,-0.6182,-0.6182,-0.6182,-0.6182,-0.6182,-0.6182,-0.6145,-0.6112,-0.6112,-0.6149,-0.6194,-0.6235,-0.6247,-0.6276,-0.6366,-0.6382,-0.6398,-0.6514,-0.6522,-0.6522,-0.6522,-0.6522,-0.6522,-0.6522,-0.6522,-0.6522,-0.6522,-0.6522,-0.6522,-0.6522,-0.6522,-0.6522,-0.6522,-0.6758,-0.6836,-0.6836,-0.6836,-0.6836,-0.6836,-0.6836,-0.6836,-0.6836,-0.6889,-0.6978,-0.1912,-0.1736,-0.1419,-0.0819,-0.0376,-0.0123,0.0,0.0,0.0,0.0308,-0.0747,-0.1635,-0.1197,-0.1072,-0.0884,-0.0508,-0.0449,-0.0453,-0.0455,-0.0455,-0.0584,-0.0908,-0.0973,-0.1102,-0.1357,-0.1148,-0.101,-0.0945,-0.0808,-0.074,-0.074,-0.0802,-0.0802,-0.074,-0.1295,-0.1541,-0.148,-0.2156,-0.2648,-0.2895,-0.3143,-0.3579,-0.4206,-0.5074,-0.5621,-0.5794,-0.5794,-0.5855,-0.5916,-0.5933,-0.5924,-0.5992,-0.6005,-0.6117,-0.6182,-0.6182,-0.619,-0.6202,-0.6202,-0.6215,-0.6223,-0.621,-0.6202,-0.6202,-0.6202,-0.6202,-0.6206,-0.6223,-0.6227,-0.6227,-0.6227,-0.6227,-0.6227,-0.6227,-0.6227,-0.6223,-0.6206,-0.6215,-0.6251,-0.6325,-0.6341,-0.6366,-0.651,-0.6522,-0.6522,-0.6522,-0.6522,-0.6522,-0.6522,-0.6522,-0.6522,-0.6522,-0.6522,-0.6522,-0.6522,-0.6522,-0.6522,-0.6522,-0.6522,-0.6522,-0.6522,-0.6522,-0.6522,-0.6522,-0.6522,-0.6522,-0.6522,-0.6522,-0.6522,-0.6522,-0.6522,-0.6652,-0.062,-0.0175,0.0305,0.0636,0.1017,0.1378,0.1604,0.1662,0.1665,0.1726,0.0679,-0.0062,0.0629,0.0757,0.089,0.1305,0.1378,0.1319,0.1268,0.127,0.1136,0.0802,0.0735,0.0732,0.0723,0.0713,0.0703,0.0757,0.0497,0.0308,0.0308,0.0,0.0,0.0308,0.0185,0.0308,0.0616,-0.0062,-0.0431,-0.0493,-0.1665,-0.2545,-0.3204,-0.3643,-0.4428,-0.5483,-0.5483,-0.5605,-0.5925,-0.594,-0.598,-0.5996,-0.6133,-0.617,-0.6182,-0.6182,-0.6231,-0.63,-0.63,-0.6349,-0.6469,-0.6325,-0.63,-0.63,-0.63,-0.63,-0.6317,-0.6394,-0.6485,-0.6485,-0.6485,-0.6485,-0.6485,-0.6485,-0.6485,-0.6394,-0.6317,-0.6362,-0.6489,-0.6498,-0.6502,-0.6506,-0.6518,-0.6522,-0.6522,-0.6522,-0.6522,-0.6522,-0.6522,-0.6522,-0.6522,-0.6522,-0.6522,-0.6522,-0.6522,-0.6522,-0.6522,-0.6522,-0.6522,-0.6522,-0.6522,-0.6522,-0.6522,-0.6522,-0.6522,-0.6522,-0.6522,-0.6522,-0.6522,-0.6522,-0.6522,-0.6522,0.0746,0.1068,0.141,0.169,0.1952,0.2267,0.2566,0.2641,0.2651,0.2816,0.2389,0.2022,0.1956,0.1982,0.2143,0.2499,0.252,0.2538,0.2486,0.2487,0.242,0.2286,0.2286,0.228,0.2268,0.2238,0.2215,0.2265,0.2105,0.1953,0.1936,0.1812,0.1805,0.1912,0.1726,0.1665,0.1849,0.1356,0.1052,0.0874,0.0125,-0.0629,-0.1276,-0.1404,-0.2542,-0.4359,-0.4548,-0.4804,-0.5189,-0.5224,-0.5454,-0.5884,-0.5923,-0.6157,-0.6399,-0.6399,-0.6357,-0.6394,-0.6394,-0.6419,-0.6514,-0.6406,-0.6394,-0.6394,-0.6394,-0.6394,-0.6402,-0.651,-0.6522,-0.6522,-0.6522,-0.6522,-0.6522,-0.6522,-0.6522,-0.651,-0.6402,-0.6427,-0.6522,-0.6522,-0.6522,-0.6522,-0.6522,-0.6522,-0.6522,-0.6522,-0.6522,-0.6522,-0.6522,-0.6522,-0.6522,-0.6522,-0.6522,-0.6522,-0.6522,-0.6522,-0.6522,-0.6522,-0.6522,-0.6522,-0.6522,-0.6522,-0.6522,-0.6522,-0.6522,-0.6522,-0.6522,-0.6522,-0.6522,-0.6522,-0.6522,-0.6522,0.1927,0.2156,0.2318,0.2573,0.2783,0.2997,0.326,0.3291,0.3379,0.3619,0.3722,0.3618,0.3069,0.3053,0.3169,0.3446,0.3477,0.3497,0.3497,0.3497,0.3497,0.3497,0.3497,0.3497,0.3497,0.3457,0.3428,0.3428,0.3317,0.3209,0.3238,0.3173,0.3089,0.3105,0.2855,0.2787,0.2837,0.2529,0.2175,0.1829,0.1576,0.121,0.0648,0.0518,-0.052,-0.2278,-0.3037,-0.3608,-0.4061,-0.4142,-0.4695,-0.5402,-0.5488,-0.5797,-0.625,-0.6317,-0.6317,-0.6384,-0.6455,-0.6522,-0.6522,-0.6522,-0.6522,-0.6522,-0.6522,-0.6522,-0.6522,-0.6522,-0.6522,-0.6522,-0.6522,-0.6522,-0.6522,-0.6522,-0.6522,-0.6522,-0.6522,-0.6522,-0.6522,-0.6522,-0.6522,-0.6522,-0.6522,-0.6522,-0.6522,-0.6522,-0.6522,-0.6522,-0.6522,-0.6522,-0.6522,-0.6522,-0.6522,-0.6522,-0.6522,-0.6522,-0.6522,-0.6522,-0.6522,-0.6522,-0.6522,-0.6522,-0.6522,-0.6522,-0.6522,-0.6522,-0.6522,-0.6522,-0.6522,-0.6522,-0.6522,-0.6522,0.2626,0.3006,0.3258,0.3247,0.3565,0.3822,0.3881,0.3833,0.3927,0.4034,0.4104,0.4144,0.4142,0.4147,0.4168,0.4227,0.4238,0.4241,0.4241,0.4241,0.4241,0.4241,0.4241,0.4241,0.4241,0.4184,0.4152,0.4152,0.3769,0.3544,0.3606,0.3286,0.3201,0.3469,0.3469,0.357,0.3828,0.3579,0.3109,0.2523,0.2523,0.2371,0.2106,0.1711,0.1459,0.1205,-0.0717,-0.1931,-0.2578,-0.3007,-0.3616,-0.4347,-0.4675,-0.5108,-0.5513,-0.5845,-0.5912,-0.5979,-0.6384,-0.6522,-0.6522,-0.6522,-0.6522,-0.6522,-0.6522,-0.6522,-0.6522,-0.6522,-0.6522,-0.6522,-0.6522,-0.6522,-0.6522,-0.6522,-0.6522,-0.6522,-0.6522,-0.6522,-0.6522,-0.6522,-0.6522,-0.6522,-0.6522,-0.6522,-0.6522,-0.6522,-0.6522,-0.6522,-0.6522,-0.6522,-0.6522,-0.6522,-0.6522,-0.6522,-0.6522,-0.6522,-0.6522,-0.6522,-0.6522,-0.6522,-0.6522,-0.6522,-0.6522,-0.6522,-0.6522,-0.6522,-0.6522,-0.6522,-0.6522,-0.6522,-0.6522,-0.6522,0.33,0.3449,0.354,0.3561,0.3742,0.3927,0.3888,0.3924,0.39,0.3943,0.3997,0.4112,0.415,0.4221,0.4283,0.4305,0.4308,0.4308,0.4308,0.4308,0.4308,0.4308,0.4308,0.4308,0.4308,0.4289,0.4275,0.4275,0.4121,0.4026,0.3989,0.3859,0.3834,0.3904,0.3867,0.3839,0.3943,0.3878,0.3738,0.3632,0.3632,0.3474,0.3206,0.3072,0.2879,0.2554,0.1862,0.0728,-0.0596,-0.0932,-0.1667,-0.2602,-0.322,-0.3967,-0.4705,-0.5041,-0.5376,-0.558,-0.5714,-0.5915,-0.6116,-0.6116,-0.6317,-0.6522,-0.6522,-0.6522,-0.6522,-0.6522,-0.6522,-0.6522,-0.6522,-0.6522,-0.6522,-0.6522,-0.6522,-0.6522,-0.6522,-0.6522,-0.6522,-0.6522,-0.6522,-0.6522,-0.6522,-0.6522,-0.6522,-0.6522,-0.6522,-0.6522,-0.6522,-0.6522,-0.6522,-0.6522,-0.6522,-0.6522,-0.6522,-0.6522,-0.6522,-0.6522,-0.6522,-0.6522,-0.6522,-0.6522,-0.6522,-0.6522,-0.6522,-0.6522,-0.6522,-0.6522,-0.6522,-0.6522,-0.6522,-0.6522,0.3589,0.3616,0.3649,0.3649,0.3709,0.3838,0.388,0.3861,0.3907,0.3905,0.3962,0.4085,0.4145,0.424,0.4308,0.4308,0.4308,0.4308,0.4308,0.4308,0.4308,0.4308,0.4308,0.4308,0.4308,0.4308,0.4308,0.4308,0.4308,0.4289,0.4248,0.4248,0.4218,0.4158,0.4098,0.4065,0.4065,0.4065,0.4115,0.4215,0.4215,0.4116,0.3969,0.3969,0.3835,0.3566,0.3566,0.2689,0.1209,0.0874,0.0067,-0.0941,-0.1681,-0.2622,-0.3696,-0.4235,-0.4708,-0.5044,-0.5315,-0.5513,-0.5711,-0.5711,-0.5915,-0.6116,-0.6116,-0.6116,-0.6183,-0.625,-0.6317,-0.6317,-0.6455,-0.6522,-0.6522,-0.6522,-0.6522,-0.6522,-0.6522,-0.6522,-0.6522,-0.6522,-0.6522,-0.6522,-0.6522,-0.6522,-0.6522,-0.6522,-0.6522,-0.6522,-0.6522,-0.6522,-0.6522,-0.6522,-0.6522,-0.6522,-0.6522,-0.6522,-0.6522,-0.6522,-0.6522,-0.6522,-0.6522,-0.6522,-0.6522,-0.6522,-0.6522,-0.6522,-0.6522,-0.6522,-0.6522,-0.6522,-0.6522,-0.6522,0.0,0.0,0.0,0.3589,0.3589,0.3619,0.3736,0.3822,0.3815,0.3992,0.4076,0.4139,0.4204,0.4264,0.4305,0.4308,0.4308,0.4308,0.4311,0.4311,0.4311,0.4313,0.4313,0.4311,0.4311,0.4311,0.4311,0.4308,0.4308,0.4308,0.4308,0.4308,0.4281,0.4218,0.4158,0.4128,0.4128,0.4128,0.4158,0.4218,0.4218,0.4251,0.4308,0.4308,0.4308,0.4308,0.4308,0.3701,0.2689,0.2353,0.1613,0.0538,-0.0202,-0.1142,-0.2286,-0.3362,-0.3969,-0.4375,-0.5114,-0.5379,-0.5379,-0.5379,-0.5379,-0.5379,-0.5379,-0.5379,-0.5446,-0.5778,-0.5912,-0.5979,-0.6384,-0.6455,-0.6455,-0.6522,-0.6522,-0.6522,-0.6522,-0.6522,-0.6522,-0.6522,-0.6522,-0.6522,-0.6522,-0.6527,-0.6527,-0.6527,-0.6531,-0.6531,-0.6531,-0.6527,-0.6527,-0.6527,-0.6522,-0.6522,-0.6522,-0.6522,-0.6522,-0.6522,-0.6522,-0.6522,-0.6522,-0.6522,-0.6522,-0.6522,-0.6522,-0.6522,-0.6522,-0.6522,-0.6522,-0.6522,-0.6522,-0.6522,0.3589,0.0,0.0,0.0,0.0,0.0,0.363,0.3638,0.3689,0.3872,0.3921,0.3992,0.4183,0.4232,0.4256,0.43,0.4308,0.4322,0.4368,0.4373,0.439,0.4428,0.4433,0.4417,0.4376,0.4373,0.4354,0.4311,0.4308,0.4308,0.4308,0.4308,0.4281,0.4218,0.4202,0.4191,0.4191,0.4191,0.4221,0.4283,0.4283,0.4292,0.4308,0.4308,0.4308,0.4308,0.4308,0.4106,0.3835,0.3497,0.3026,0.2353,0.1413,0.0336,-0.074,-0.1816,-0.2623,-0.3228,-0.3969,-0.4372,-0.4641,-0.491,-0.5178,-0.5379,-0.5379,-0.5379,-0.545,-0.5513,-0.5513,-0.5647,-0.5982,-0.6046,-0.6116,-0.6451,-0.6522,-0.6522,-0.6522,-0.6522,-0.6522,-0.6522,-0.6522,-0.6543,-0.6541,-0.6553,-0.6574,-0.6643,-0.6651,-0.6651,-0.6651,-0.6594,-0.6553,-0.6553,-0.656,-0.6522,-0.6522,-0.6522,-0.6522,-0.6522,-0.6522,-0.6522,-0.6522,-0.6522,-0.6522,-0.6522,-0.6522,-0.6522,-0.6522,-0.6522,-0.6522,-0.6522,-0.6522,-0.6522,0.3589,0.3589,0.3589,0.3589,0.0,0.0,0.3589,0.3589,0.364,0.3883,0.3979,0.4107,0.4333,0.4503,0.4526,0.4461,0.4492,0.4462,0.439,0.4398,0.442,0.4474,0.4482,0.4469,0.4436,0.4412,0.4384,0.4349,0.4322,0.4308,0.4308,0.4308,0.4292,0.4256,0.4253,0.4253,0.4253,0.4253,0.4273,0.4308,0.4308,0.4308,0.4308,0.4308,0.4308,0.4308,0.4308,0.4308,0.4308,0.4104,0.3768,0.3362,0.2556,0.1616,0.0539,-0.0539,-0.1413,-0.2153,-0.2894,-0.3365,-0.3631,-0.3833,-0.4168,-0.4507,-0.4507,-0.4574,-0.4775,-0.491,-0.5178,-0.5446,-0.5647,-0.5714,-0.5781,-0.5982,-0.608,-0.6103,-0.6306,-0.6334,-0.6349,-0.6517,-0.6509,-0.6541,-0.6631,-0.6647,-0.6664,-0.6717,-0.6725,-0.6725,-0.6725,-0.668,-0.6647,-0.6647,-0.6598,-0.6566,-0.6566,-0.6566,-0.6566,-0.6566,-0.6533,-0.6509,-0.6509,-0.6543,-0.6522,-0.6522,-0.6522,-0.6522,-0.6522,-0.6522,-0.6522,-0.6522,-0.6522,-0.6522,0.3589,0.3589,0.3589,0.3589,0.3589,0.0,0.3645,0.3645,0.3694,0.3934,0.4213,0.4398,0.4594,0.4894,0.5046,0.4788,0.4787,0.4726,0.4467,0.4414,0.4439,0.4496,0.4501,0.4499,0.4493,0.4447,0.4412,0.4398,0.4341,0.4308,0.4308,0.4308,0.4308,0.4308,0.4308,0.4308,0.4308,0.4308,0.4308,0.4308,0.4308,0.4308,0.4308,0.4308,0.4308,0.4308,0.4308,0.4308,0.4308,0.4241,0.4104,0.3835,0.343,0.2623,0.1683,0.0606,-0.0202,-0.0943,-0.1683,-0.222,-0.2556,-0.2554,-0.2825,-0.3161,-0.3161,-0.343,-0.3768,-0.4104,-0.4708,-0.5245,-0.5245,-0.5319,-0.5326,-0.5393,-0.5451,-0.5574,-0.5985,-0.6041,-0.6144,-0.6493,-0.6611,-0.6635,-0.6725,-0.6741,-0.6745,-0.6754,-0.6758,-0.6758,-0.6758,-0.6745,-0.6741,-0.6741,-0.6733,-0.6725,-0.6725,-0.6725,-0.6725,-0.6725,-0.6651,-0.6607,-0.6607,-0.6529,-0.6547,-0.6535,-0.6535,-0.6535,-0.6535,-0.6527,-0.6522,-0.6522,-0.6522,-0.6522,0.3589,0.3589,0.3589,0.3589,0.3589,0.0,0.3868,0.3924,0.4023,0.4461,0.4598,0.475,0.4913,0.505,0.5094,0.5042,0.4847,0.469,0.4514,0.4507,0.4561,0.4621,0.463,0.461,0.4559,0.4545,0.4499,0.4406,0.4341,0.4308,0.4308,0.4308,0.4308,0.4308,0.4308,0.4308,0.4308,0.4308,0.4308,0.4308,0.4308,0.4308,0.4308,0.4308,0.4308,0.4308,0.4308,0.4308,0.4308,0.4037,0.4037,0.4174,0.3835,0.3365,0.2825,0.2017,0.1278,0.0538,-0.0202,-0.0874,-0.148,-0.1748,-0.2286,-0.2825,-0.2825,-0.3026,-0.3362,-0.3362,-0.3768,-0.4171,-0.4442,-0.4747,-0.5062,-0.5403,-0.5529,-0.5587,-0.5656,-0.5667,-0.5831,-0.6301,-0.6539,-0.6729,-0.6815,-0.6827,-0.6851,-0.6929,-0.6937,-0.6937,-0.6937,-0.6876,-0.6827,-0.6827,-0.6766,-0.6725,-0.6725,-0.6725,-0.6725,-0.6725,-0.6709,-0.67,-0.67,-0.6684,-0.6639,-0.6566,-0.6566,-0.6566,-0.6562,-0.6555,-0.6522,-0.6522,-0.6522,-0.6522,0.3589,0.3589,0.3589,0.3589,0.0,0.0,0.0,0.4148,0.4355,0.4616,0.4826,0.5004,0.5139,0.5361,0.5386,0.534,0.5097,0.4804,0.4606,0.4591,0.4561,0.4654,0.4665,0.4651,0.4621,0.4591,0.4523,0.4409,0.4341,0.4308,0.4308,0.4308,0.4308,0.4308,0.4308,0.4308,0.4308,0.4308,0.4308,0.4308,0.4308,0.4308,0.4308,0.4308,0.4308,0.4308,0.4308,0.4174,0.4037,0.3633,0.3499,0.3499,0.3499,0.3297,0.2894,0.2354,0.1816,0.1279,0.074,0.0067,-0.0606,-0.074,-0.1413,-0.2153,-0.2153,-0.2501,-0.2991,-0.3195,-0.3416,-0.3572,-0.3778,-0.3935,-0.4162,-0.437,-0.4628,-0.4885,-0.5026,-0.5266,-0.5515,-0.5979,-0.6173,-0.6369,-0.6841,-0.6921,-0.6937,-0.6982,-0.699,-0.699,-0.699,-0.6949,-0.6921,-0.6921,-0.6884,-0.686,-0.686,-0.686,-0.686,-0.686,-0.6815,-0.679,-0.679,-0.6749,-0.6705,-0.666,-0.666,-0.666,-0.666,-0.6611,-0.659,-0.659,-0.659,-0.659,0.3589,0.3589,0.3589,0.3589,0.0,0.4036,0.0,0.0,0.0,0.4814,0.503,0.523,0.5373,0.5625,0.5766,0.5602,0.5262,0.5029,0.4779,0.4606,0.4477,0.46,0.4613,0.4621,0.4646,0.458,0.4501,0.4406,0.4333,0.4289,0.4289,0.43,0.4308,0.4308,0.4308,0.4308,0.4308,0.4308,0.4308,0.4308,0.4308,0.4308,0.4308,0.4308,0.4308,0.4308,0.4308,0.4104,0.3768,0.3295,0.2892,0.2556,0.2892,0.2827,0.2559,0.229,0.1952,0.1548,0.1279,0.0741,0.0067,0.0067,-0.0607,-0.1554,-0.1689,-0.2116,-0.2691,-0.2965,-0.3128,-0.3225,-0.3225,-0.3231,-0.3307,-0.3307,-0.3627,-0.4021,-0.4305,-0.4702,-0.5101,-0.5538,-0.561,-0.5901,-0.6627,-0.6773,-0.6773,-0.6845,-0.6918,-0.6918,-0.699,-0.699,-0.699,-0.699,-0.699,-0.699,-0.699,-0.699,-0.699,-0.699,-0.6921,-0.6951,-0.6951,-0.6798,-0.6749,-0.6749,-0.6749,-0.6749,-0.6749,-0.677,-0.6762,-0.6725,-0.6725,-0.6725,0.0,0.0,0.0,0.0,0.3813,0.4092,0.4369,0.0,0.4935,0.5238,0.0,0.5459,0.5491,0.0,0.0,0.5746,0.5331,0.5016,0.5026,0.4592,0.4292,0.4414,0.4428,0.4469,0.4572,0.4482,0.4414,0.4398,0.4292,0.4226,0.4226,0.4278,0.4308,0.4308,0.4308,0.4308,0.4308,0.4308,0.4308,0.4308,0.4308,0.4308,0.4308,0.4308,0.4308,0.4308,0.4308,0.4104,0.3768,0.3026,0.2354,0.175,0.2154,0.2289,0.2223,0.2223,0.1952,0.1616,0.1548,0.1077,0.0471,0.0471,-0.0272,-0.1303,-0.1921,-0.2217,-0.224,-0.231,-0.2591,-0.2873,-0.2873,-0.3111,-0.3353,-0.3353,-0.3459,-0.3567,-0.3637,-0.3932,-0.4371,-0.4738,-0.5029,-0.5392,-0.5829,-0.597,-0.6047,-0.6413,-0.6486,-0.6631,-0.699,-0.699,-0.699,-0.699,-0.699,-0.699,-0.699,-0.699,-0.699,-0.699,-0.6978,-0.6974,-0.6974,-0.6888,-0.691,-0.691,-0.691,-0.691,-0.691,-0.6921,-0.688,-0.6725,-0.6725,-0.6725,0.0,0.0,0.0,0.0,0.0,0.0,0.448,0.0,0.5214,0.0,0.0,0.0,0.0,0.0,0.0,0.0,0.5367,0.4925,0.4959,0.4425,0.4134,0.4322,0.4346,0.4365,0.4414,0.4343,0.4292,0.4292,0.4245,0.4215,0.4215,0.4275,0.4308,0.4308,0.4308,0.4308,0.4308,0.4308,0.4308,0.4308,0.4308,0.4308,0.4308,0.4308,0.4308,0.4308,0.4308,0.4104,0.3768,0.3026,0.2287,0.1548,0.1346,0.1077,0.0943,0.0943,0.0808,0.0673,0.0673,0.0337,-0.0135,-0.0612,-0.1094,-0.1515,-0.2013,-0.2248,-0.2271,-0.2271,-0.2355,-0.2509,-0.2509,-0.2664,-0.2747,-0.2747,-0.2978,-0.3136,-0.3136,-0.35,-0.3791,-0.3937,-0.4083,-0.4301,-0.4447,-0.5171,-0.5829,-0.6047,-0.6047,-0.6192,-0.6627,-0.6627,-0.6773,-0.699,-0.699,-0.699,-0.699,-0.699,-0.699,-0.699,-0.699,-0.699,-0.699,-0.6954,-0.6933,-0.6933,-0.6933,-0.6933,-0.6933,-0.697,-0.6954,-0.688,-0.688,-0.688,0.2841,0.0,0.0,0.0,0.0,0.0,0.0,0.0,0.0,0.0,0.0,0.0,0.0,0.0,0.5682,0.5746,0.0,0.4749,0.4749,0.4256,0.3959,0.421,0.4262,0.4283,0.4283,0.4229,0.4191,0.4191,0.4177,0.4166,0.4166,0.424,0.4283,0.4283,0.43,0.4308,0.4308,0.4308,0.4308,0.4308,0.4308,0.4308,0.4308,0.4308,0.4308,0.4308,0.4308,0.4104,0.3768,0.3094,0.2422,0.1682,0.0807,0.0269,0.0,0.0,0.0,0.0,-0.0135,-0.0337,-0.0746,-0.1507,-0.1728,-0.1811,-0.211,-0.2278,-0.2303,-0.2303,-0.2318,-0.2333,-0.2333,-0.2333,-0.2333,-0.2333,-0.2551,-0.2771,-0.2771,-0.3063,-0.3354,-0.3354,-0.3427,-0.35,-0.35,-0.4517,-0.5389,-0.5462,-0.561,-0.5829,-0.6341,-0.6413,-0.6555,-0.699,-0.699,-0.699,-0.699,-0.699,-0.699,-0.699,-0.699,-0.699,-0.699,-0.699,-0.699,-0.699,-0.699,-0.699,-0.699,-0.699,-0.699,-0.699,-0.699,-0.699,0.0,0.0,0.0,0.3157,0.0,0.0,0.0,0.0,0.4613,0.0,0.0,0.0,0.0,0.0,0.0,0.0,0.0,0.0,0.0,0.4133,0.3911,0.3973,0.4147,0.4218,0.4218,0.4164,0.4128,0.4128,0.4074,0.3978,0.3978,0.4155,0.4218,0.4218,0.4278,0.4308,0.4308,0.4308,0.4308,0.4308,0.4308,0.4308,0.4308,0.4308,0.4308,0.4308,0.4308,0.4104,0.3768,0.3362,0.2758,0.2084,0.0942,0.0269,0.0,0.0,0.0,-0.0067,-0.0404,-0.0747,-0.1168,-0.1581,-0.175,-0.1859,-0.2217,-0.2309,-0.2331,-0.2331,-0.2333,-0.2333,-0.2333,-0.2333,-0.2333,-0.2333,-0.2333,-0.2333,-0.2333,-0.2624,-0.2917,-0.2917,-0.3209,-0.35,-0.35,-0.3862,-0.4299,-0.4665,-0.5029,-0.5541,-0.6268,-0.6413,-0.6555,-0.699,-0.699,-0.699,-0.699,-0.699,-0.699,-0.699,-0.699,-0.699,-0.699,-0.699,-0.699,-0.699,-0.699,-0.699,-0.699,-0.699,-0.699,-0.699,-0.699,-0.699,0.0,0.0,0.1896,0.2415,0.0,0.0,0.0,0.0,0.0,0.0,0.0,0.0,0.0,0.0,0.0,0.0,0.0,0.0,0.0,0.4133,0.3895,0.3914,0.3954,0.3978,0.3978,0.3959,0.3948,0.3948,0.3962,0.3989,0.4093,0.4172,0.4234,0.4275,0.4297,0.4308,0.4308,0.4308,0.4308,0.4308,0.4308,0.4308,0.4308,0.4308,0.4308,0.4308,0.4308,0.4241,0.4104,0.3768,0.3295,0.2758,0.1952,0.1279,0.0606,-0.0337,-0.0741,-0.0809,-0.1157,-0.1369,-0.1586,-0.1966,-0.2132,-0.2151,-0.224,-0.2324,-0.2333,-0.2333,-0.2333,-0.2333,-0.2333,-0.2333,-0.2333,-0.2333,-0.2333,-0.2333,-0.2333,-0.2405,-0.2478,-0.2478,-0.2624,-0.2697,-0.2697,-0.3061,-0.3498,-0.4226,-0.4371,-0.4738,-0.5541,-0.5614,-0.5756,-0.6188,-0.641,-0.6631,-0.6631,-0.6845,-0.699,-0.699,-0.699,-0.699,-0.699,-0.699,-0.699,-0.699,-0.699,-0.699,-0.699,-0.699,-0.699,-0.699,-0.699,-0.699,0.03,0.0592,0.0,0.1579,0.208,0.0,0.3022,0.0,0.3842,0.0,0.0,0.0,0.0,0.0,0.0,0.0,0.0,0.0,0.0,0.401,0.3889,0.3889,0.3889,0.3889,0.3889,0.3889,0.3889,0.3889,0.3922,0.3959,0.3997,0.412,0.4169,0.421,0.4232,0.4253,0.4275,0.4275,0.4286,0.4308,0.4308,0.4308,0.4308,0.4308,0.4308,0.4308,0.4308,0.4308,0.4308,0.4037,0.3835,0.3499,0.2827,0.222,0.148,0.0,-0.0608,-0.0747,-0.1028,-0.1176,-0.1329,-0.1922,-0.2082,-0.2165,-0.2254,-0.2333,-0.2333,-0.2333,-0.2333,-0.2333,-0.2333,-0.2333,-0.2333,-0.2333,-0.2333,-0.2333,-0.2333,-0.2333,-0.2333,-0.2333,-0.2333,-0.2333,-0.2333,-0.2478,-0.2915,-0.3571,-0.3935,-0.4299,-0.4956,-0.5104,-0.532,-0.5756,-0.6047,-0.6192,-0.6192,-0.6555,-0.6773,-0.6773,-0.6918,-0.699,-0.699,-0.699,-0.699,-0.699,-0.699,-0.699,-0.699,-0.699,-0.699,-0.699,-0.699,-0.699]},{"header":{"parameterUnit":"m.s-1","parameterCategory":1,"la1":30.6,"la2":29.2853,"lo1":-89.7004,"lo2":-87.6739,"dy":0.0162,"dx":0.0183,"nx":112,"ny":82,"refTime":"2024-06-11T00:00:00:Z","depth":0,"parameterNumber":3,"parameterNumberName":"V-component_of_WINDS"},"data":[0.0,0.0,0.0,0.0,0.0,0.0,0.0,0.0,0.0,0.0,0.0,0.0,0.0,0.0,0.0,0.0,0.0,0.0,0.0,0.0,0.0,0.0,0.0,0.0,0.0,0.0,0.0,0.0,0.0,0.0,0.0,0.0,0.0,0.0,0.0,0.0,0.0,0.0,0.0,0.0,0.0,0.0,0.0,0.0,0.0,0.0,0.0,0.0,0.0,0.0,0.0,0.0,0.0,0.0,0.0,0.0,0.0,0.0,0.0,0.0,0.0,0.0,0.0,0.0,0.0,0.0,0.0,0.0,0.0,0.0,0.0,0.0,0.0,0.0,0.0,0.0,0.0,0.0,0.0,0.0,0.0,0.0,0.0,0.0,0.0,0.0,0.0,0.0,0.0,0.0,3.1292,3.1384,3.1213,3.1123,3.1161,3.019,2.9706,2.995,0.0,0.0,0.0,0.0,0.0,0.0,0.0,0.0,0.0,0.0,0.0,0.0,0.0,0.0,0.0,0.0,0.0,0.0,0.0,0.0,0.0,0.0,0.0,0.0,0.0,0.0,0.0,0.0,0.0,0.0,0.0,0.0,0.0,0.0,0.0,0.0,0.0,0.0,0.0,0.0,0.0,0.0,0.0,0.0,0.0,0.0,0.0,0.0,0.0,0.0,0.0,0.0,0.0,0.0,0.0,0.0,0.0,0.0,0.0,0.0,0.0,0.0,0.0,0.0,0.0,0.0,0.0,0.0,0.0,0.0,0.0,0.0,0.0,0.0,0.0,0.0,0.0,0.0,0.0,0.0,0.0,0.0,0.0,0.0,0.0,0.0,0.0,0.0,0.0,0.0,0.0,0.0,0.0,0.0,0.0,0.0,0.0,0.0,0.0,0.0,0.0,0.0,0.0,0.0,3.0736,3.0813,3.0507,3.033,3.052,2.9464,2.8938,2.9293,0.0,0.0,0.0,0.0,0.0,0.0,0.0,0.0,0.0,0.0,0.0,0.0,0.0,0.0,0.0,0.0,0.0,0.0,0.0,0.0,0.0,0.0,0.0,0.0,0.0,0.0,0.0,0.0,0.0,0.0,0.0,0.0,0.0,0.0,0.0,0.0,0.0,0.0,0.0,0.0,0.0,0.0,0.0,0.0,0.0,0.0,0.0,0.0,0.0,0.0,0.0,0.0,0.0,0.0,0.0,0.0,0.0,0.0,0.0,0.0,0.0,0.0,0.0,0.0,0.0,0.0,0.0,0.0,0.0,0.0,0.0,0.0,0.0,0.0,0.0,0.0,0.0,0.0,0.0,0.0,0.0,0.0,0.0,0.0,0.0,0.0,0.0,0.0,0.0,0.0,0.0,0.0,0.0,0.0,0.0,0.0,0.0,0.0,0.0,0.0,0.0,0.0,0.0,3.0204,3.0141,2.9999,2.9715,2.956,2.9535,2.8575,2.8108,2.8399,2.7808,0.0,0.0,0.0,0.0,0.0,0.0,0.0,0.0,0.0,0.0,0.0,0.0,0.0,0.0,0.0,0.0,0.0,0.0,0.0,0.0,0.0,0.0,0.0,0.0,0.0,0.0,0.0,0.0,0.0,0.0,0.0,0.0,0.0,0.0,0.0,0.0,0.0,0.0,0.0,0.0,0.0,0.0,0.0,0.0,0.0,0.0,0.0,0.0,0.0,0.0,0.0,0.0,0.0,0.0,0.0,0.0,0.0,0.0,0.0,0.0,0.0,0.0,0.0,0.0,0.0,0.0,0.0,0.0,0.0,0.0,0.0,0.0,0.0,0.0,0.0,0.0,0.0,0.0,0.0,0.0,0.0,0.0,0.0,0.0,0.0,0.0,0.0,0.0,0.0,0.0,0.0,0.0,0.0,0.0,0.0,0.0,0.0,0.0,0.0,0.0,0.0,0.0,2.946,2.9388,2.9266,2.8988,2.8712,2.8514,2.7666,2.7248,2.7409,2.6558,0.0,0.0,0.0,0.0,0.0,0.0,0.0,0.0,0.0,0.0,0.0,0.0,0.0,0.0,0.0,0.0,0.0,0.0,0.0,0.0,0.0,0.0,0.0,0.0,0.0,0.0,0.0,0.0,0.0,0.0,0.0,0.0,0.0,0.0,0.0,0.0,0.0,0.0,0.0,0.0,0.0,0.0,0.0,0.0,0.0,0.0,0.0,0.0,0.0,0.0,0.0,0.0,0.0,0.0,0.0,0.0,0.0,0.0,0.0,0.0,0.0,0.0,0.0,0.0,0.0,0.0,0.0,0.0,0.0,0.0,0.0,0.0,0.0,0.0,0.0,0.0,0.0,0.0,0.0,0.0,0.0,0.0,0.0,0.0,0.0,0.0,0.0,0.0,0.0,0.0,0.0,0.0,0.0,0.0,0.0,0.0,0.0,0.0,0.0,0.0,0.0,0.0,2.8846,2.8512,2.8812,2.8251,2.781,2.7592,2.6698,2.6168,2.6396,2.5587,0.0,0.0,0.0,0.0,0.0,0.0,0.0,0.0,0.0,0.0,0.0,0.0,0.0,0.0,0.0,0.0,0.0,0.0,0.0,0.0,0.0,0.0,0.0,0.0,0.0,0.0,0.0,0.0,0.0,0.0,0.0,0.0,0.0,0.0,0.0,0.0,0.0,0.0,0.0,0.0,0.0,0.0,0.0,0.0,0.0,0.0,0.0,0.0,0.0,0.0,0.0,0.0,0.0,0.0,0.0,0.0,0.0,0.0,0.0,0.0,0.0,0.0,0.0,0.0,0.0,0.0,0.0,0.0,0.0,0.0,0.0,0.0,0.0,0.0,0.0,0.0,0.0,0.0,0.0,0.0,0.0,0.0,0.0,0.0,0.0,0.0,0.0,0.0,0.0,0.0,0.0,0.0,0.0,0.0,0.0,0.0,0.0,0.0,0.0,0.0,0.0,0.0,2.8424,2.8076,2.8378,2.7834,2.7169,2.6507,2.5949,2.5516,2.5248,0.0,0.0,0.0,0.0,0.0,0.0,0.0,0.0,0.0,0.0,0.0,0.0,0.0,0.0,0.0,0.0,0.0,0.0,0.0,0.0,0.0,0.0,0.0,0.0,0.0,0.0,0.0,0.0,0.0,0.0,0.0,0.0,0.0,0.0,0.0,0.0,0.0,0.0,0.0,0.0,0.0,0.0,0.0,0.0,0.0,0.0,0.0,0.0,0.0,0.0,0.0,0.0,0.0,0.0,0.0,0.0,0.0,0.0,0.0,0.0,0.0,0.0,0.0,0.0,0.0,0.0,0.0,0.0,0.0,0.0,0.0,0.0,0.0,0.0,0.0,0.0,0.0,0.0,0.0,0.0,0.0,0.0,0.0,0.0,0.0,0.0,0.0,0.0,0.0,0.0,0.0,0.0,0.0,0.0,0.0,0.0,0.0,0.0,0.0,0.0,0.0,0.0,2.8844,2.8097,2.7624,2.794,2.7389,2.6635,2.5694,2.5306,2.487,2.4355,0.0,0.0,0.0,0.0,0.0,0.0,0.0,0.0,0.0,0.0,0.0,0.0,0.0,0.0,0.0,0.0,0.0,0.0,0.0,0.0,0.0,0.0,0.0,0.0,0.0,0.0,0.0,0.0,0.0,0.0,0.0,0.0,0.0,0.0,0.0,0.0,0.0,0.0,0.0,0.0,0.0,0.0,0.0,0.0,0.0,0.0,0.0,0.0,0.0,0.0,0.0,0.0,0.0,0.0,0.0,0.0,0.0,0.0,0.0,0.0,0.0,0.0,0.0,0.0,0.0,0.0,0.0,0.0,0.0,0.0,0.0,0.0,0.0,0.0,0.0,0.0,0.0,0.0,0.0,0.0,0.0,0.0,0.0,0.0,0.0,0.0,0.0,0.0,0.0,0.0,0.0,0.0,0.0,0.0,0.0,0.0,0.0,0.0,0.0,0.0,0.0,0.0,2.8808,2.7877,2.7205,2.7498,2.6962,2.6225,2.5289,2.4749,2.4268,0.0,0.0,0.0,0.0,0.0,0.0,0.0,0.0,0.0,0.0,0.0,0.0,0.0,0.0,0.0,0.0,0.0,0.0,0.0,0.0,0.0,0.0,0.0,0.0,0.0,0.0,0.0,0.0,0.0,0.0,0.0,0.0,0.0,0.0,0.0,0.0,0.0,0.0,0.0,0.0,0.0,0.0,0.0,0.0,0.0,0.0,0.0,0.0,0.0,0.0,0.0,0.0,0.0,0.0,0.0,0.0,0.0,0.0,0.0,0.0,0.0,0.0,0.0,0.0,0.0,0.0,0.0,0.0,0.0,0.0,0.0,0.0,0.0,0.0,0.0,0.0,0.0,0.0,0.0,0.0,0.0,0.0,0.0,0.0,0.0,0.0,0.0,0.0,0.0,0.0,0.0,0.0,0.0,0.0,0.0,0.0,0.0,0.0,0.0,0.0,0.0,0.0,0.0,2.9021,2.8072,2.741,2.7653,2.7021,2.6114,2.4789,2.4649,2.4288,2.3451,0.0,0.0,0.0,0.0,0.0,0.0,0.0,0.0,0.0,0.0,0.0,0.0,0.0,0.0,0.0,0.0,0.0,0.0,0.0,0.0,0.0,0.0,0.0,0.0,0.0,0.0,0.0,0.0,0.0,0.0,0.0,0.0,0.0,0.0,0.0,0.0,0.0,0.0,0.0,0.0,0.0,0.0,0.0,0.0,0.0,0.0,0.0,0.0,0.0,0.0,0.0,0.0,0.0,0.0,0.0,0.0,0.0,0.0,0.0,0.0,0.0,0.0,0.0,0.0,0.0,0.0,0.0,0.0,0.0,0.0,0.0,0.0,0.0,0.0,0.0,0.0,0.0,0.0,0.0,0.0,0.0,0.0,0.0,0.0,0.0,0.0,0.0,0.0,0.0,0.0,0.0,0.0,0.0,0.0,0.0,0.0,0.0,0.0,0.0,0.0,0.0,0.0,2.8647,2.7781,2.7112,2.7184,2.6628,2.5734,2.452,2.4587,2.4346,2.3564,0.0,0.0,0.0,0.0,0.0,0.0,0.0,0.0,0.0,0.0,0.0,0.0,0.0,0.0,0.0,0.0,0.0,0.0,0.0,0.0,0.0,0.0,0.0,0.0,0.0,0.0,0.0,0.0,0.0,0.0,0.0,0.0,0.0,0.0,0.0,0.0,0.0,0.0,0.0,0.0,0.0,0.0,0.0,0.0,0.0,0.0,0.0,0.0,0.0,0.0,0.0,0.0,0.0,0.0,0.0,0.0,0.0,0.0,0.0,0.0,0.0,0.0,0.0,0.0,0.0,0.0,0.0,0.0,0.0,0.0,0.0,0.0,0.0,0.0,0.0,0.0,0.0,0.0,0.0,0.0,0.0,0.0,0.0,0.0,0.0,0.0,0.0,0.0,0.0,0.0,0.0,0.0,0.0,0.0,0.0,0.0,0.0,0.0,0.0,0.0,0.0,0.0,2.804,2.7243,2.6578,2.6387,2.6,2.5394,2.4415,2.4582,2.4468,2.4041,0.0,0.0,0.0,0.0,0.0,0.0,0.0,0.0,0.0,0.0,0.0,0.0,0.0,0.0,0.0,0.0,0.0,0.0,0.0,0.0,0.0,0.0,0.0,0.0,0.0,0.0,0.0,0.0,0.0,0.0,0.0,0.0,0.0,0.0,0.0,0.0,0.0,0.0,0.0,0.0,0.0,0.0,0.0,0.0,0.0,0.0,0.0,0.0,0.0,0.0,0.0,0.0,0.0,0.0,0.0,0.0,0.0,0.0,0.0,0.0,3.422,3.2847,0.0,0.0,0.0,0.0,0.0,0.0,0.0,0.0,0.0,0.0,0.0,0.0,0.0,0.0,0.0,0.0,0.0,0.0,0.0,0.0,0.0,0.0,0.0,0.0,0.0,0.0,0.0,0.0,0.0,0.0,0.0,0.0,0.0,0.0,0.0,0.0,0.0,0.0,0.0,0.0,2.8452,2.7736,2.7157,2.6964,2.6434,2.5715,2.4845,2.5122,2.5148,2.4814,2.4671,0.0,0.0,0.0,0.0,0.0,0.0,0.0,0.0,0.0,0.0,0.0,0.0,0.0,0.0,0.0,0.0,0.0,0.0,0.0,0.0,0.0,0.0,0.0,0.0,0.0,0.0,0.0,0.0,0.0,0.0,0.0,0.0,0.0,0.0,0.0,0.0,0.0,0.0,0.0,0.0,0.0,0.0,0.0,0.0,0.0,0.0,0.0,0.0,0.0,0.0,0.0,0.0,0.0,0.0,0.0,0.0,0.0,0.0,0.0,3.5439,3.4341,0.0,0.0,0.0,0.0,0.0,0.0,0.0,0.0,0.0,0.0,0.0,0.0,0.0,0.0,0.0,0.0,0.0,0.0,0.0,0.0,0.0,0.0,0.0,0.0,0.0,0.0,0.0,0.0,0.0,0.0,0.0,0.0,0.0,0.0,0.0,0.0,0.0,0.0,0.0,0.0,2.8345,2.7832,2.729,2.6959,2.6517,2.6058,2.5444,2.5709,2.5838,2.5687,2.5481,0.0,0.0,0.0,0.0,0.0,0.0,0.0,0.0,0.0,0.0,0.0,0.0,0.0,0.0,0.0,0.0,0.0,0.0,0.0,0.0,0.0,0.0,0.0,0.0,0.0,0.0,0.0,0.0,0.0,0.0,0.0,0.0,0.0,0.0,0.0,0.0,0.0,0.0,0.0,0.0,0.0,0.0,0.0,0.0,0.0,0.0,0.0,0.0,0.0,0.0,0.0,0.0,0.0,3.8448,3.8496,3.8581,3.8649,3.8705,3.8689,3.7074,3.6453,3.6558,3.4816,0.0,0.0,0.0,0.0,0.0,0.0,0.0,0.0,0.0,0.0,0.0,0.0,0.0,0.0,0.0,0.0,0.0,0.0,0.0,0.0,0.0,0.0,3.3846,3.451,3.4573,3.4329,3.3646,0.0,0.0,0.0,0.0,0.0,0.0,0.0,0.0,0.0,0.0,0.0,2.8177,2.7822,2.739,2.6884,2.6679,2.6414,2.6139,2.638,2.6501,2.6459,2.6228,2.6116,0.0,0.0,0.0,0.0,0.0,0.0,0.0,0.0,0.0,0.0,0.0,0.0,0.0,0.0,0.0,0.0,0.0,0.0,0.0,0.0,0.0,0.0,0.0,0.0,0.0,0.0,0.0,0.0,0.0,0.0,0.0,0.0,3.8336,3.8968,0.0,0.0,0.0,0.0,0.0,0.0,0.0,0.0,0.0,0.0,0.0,0.0,0.0,3.7787,3.8464,3.8464,3.9075,4.0163,4.0163,4.0163,4.0204,4.0366,4.0278,3.9974,3.9463,0.0,3.7884,3.7623,0.0,0.0,0.0,0.0,0.0,0.0,0.0,0.0,0.0,0.0,0.0,0.0,0.0,0.0,0.0,0.0,0.0,0.0,0.0,0.0,0.0,0.0,3.53,3.5935,3.5679,3.5366,3.5671,3.4891,3.3838,3.2881,3.1989,3.1116,0.0,0.0,0.0,0.0,0.0,0.0,2.8287,2.8118,2.7881,2.7423,2.7196,2.7027,2.6858,2.6994,2.6956,2.6603,2.6222,2.6064,2.6272,2.5193,0.0,0.0,0.0,0.0,0.0,0.0,0.0,0.0,0.0,0.0,0.0,0.0,0.0,0.0,0.0,0.0,0.0,0.0,0.0,0.0,0.0,0.0,0.0,0.0,0.0,0.0,0.0,0.0,0.0,3.8397,3.9724,3.9848,3.9964,3.9415,0.0,0.0,0.0,0.0,0.0,0.0,0.0,0.0,0.0,3.943,3.9459,3.9926,4.0877,4.0906,4.1168,4.175,4.175,4.175,4.175,4.1831,4.1847,4.1794,4.1891,4.155,4.0855,3.9168,3.7816,3.6743,0.0,0.0,0.0,0.0,3.5984,3.6501,3.7114,3.7642,3.8017,3.7701,0.0,0.0,0.0,0.0,0.0,0.0,0.0,3.492,3.492,3.5142,3.5584,3.6219,3.6156,3.6095,3.6643,3.6222,3.5275,3.3964,3.2766,3.1777,3.1301,3.028,0.0,0.0,0.0,2.8638,2.8476,2.8411,2.8249,2.7987,2.7861,2.7762,2.7623,2.7729,2.7756,2.7556,2.6863,2.6478,2.6566,2.5439,2.5522,0.0,0.0,0.0,0.0,0.0,0.0,0.0,0.0,0.0,0.0,0.0,0.0,0.0,0.0,0.0,0.0,0.0,0.0,0.0,0.0,0.0,0.0,0.0,0.0,0.0,0.0,0.0,0.0,4.0103,4.1114,4.0885,4.1146,4.0708,0.0,0.0,0.0,0.0,0.0,0.0,3.9925,3.9884,4.0359,4.1409,4.1468,4.1873,4.285,4.285,4.285,4.285,4.285,4.289,4.293,4.293,4.3061,4.3339,4.3615,4.3609,4.3229,4.0766,3.9463,3.8872,3.777,3.7199,3.6937,3.7026,3.7373,3.7903,3.8214,3.8746,3.9281,3.9092,3.846,3.7763,3.7763,0.0,0.0,0.0,0.0,3.596,3.596,3.596,3.609,3.6756,3.6787,3.6884,3.7584,3.7404,3.663,3.5027,3.3758,3.2825,3.2464,3.1235,0.0,2.9813,2.9355,2.8986,2.889,2.8858,2.8798,2.8643,2.861,2.8605,2.8503,2.8573,2.8588,2.8425,2.7564,2.6966,2.6772,2.5734,2.5651,2.6595,0.0,0.0,0.0,0.0,0.0,0.0,0.0,0.0,0.0,0.0,0.0,0.0,0.0,0.0,0.0,0.0,0.0,0.0,0.0,0.0,0.0,0.0,0.0,0.0,0.0,0.0,0.0,0.0,0.0,4.2331,4.258,0.0,0.0,0.0,0.0,4.0305,4.0882,4.1382,4.1839,4.2282,4.2715,4.317,4.316,4.319,4.325,4.325,4.325,4.325,4.325,4.3369,4.3536,4.3536,4.3771,4.4128,4.4128,4.4103,4.3972,4.2984,4.1864,4.0696,3.9946,3.9232,3.877,3.9586,4.0,4.0257,4.1081,4.1399,4.1336,4.0704,3.9566,3.846,3.846,3.7954,0.0,0.0,3.7383,3.7383,3.7383,3.7383,3.7543,3.8239,3.7923,3.7766,3.8937,3.8654,3.7653,3.5828,3.5034,3.439,3.3421,0.0,3.1404,3.106,3.0171,2.9554,2.9554,2.9554,2.9554,2.9554,2.9526,2.9526,2.9554,2.9554,2.9274,2.8717,2.8012,2.7337,2.6663,2.6022,2.5799,2.6118,2.6118,0.0,0.0,0.0,0.0,0.0,0.0,0.0,0.0,0.0,0.0,0.0,0.0,0.0,0.0,0.0,0.0,0.0,0.0,0.0,0.0,0.0,0.0,0.0,0.0,0.0,0.0,0.0,0.0,4.3195,4.3541,0.0,4.2412,4.2499,4.2623,4.2659,4.3241,4.3698,4.387,4.3891,4.3983,4.4151,4.4151,4.4151,4.4151,4.4151,4.4151,4.4151,4.4151,4.4189,4.4228,4.4228,4.4419,4.4685,4.4768,4.4905,4.4919,4.3827,4.2862,4.1951,4.1095,4.0722,4.0601,4.0817,4.0979,4.1175,4.1494,4.1588,4.1494,4.083,4.0261,3.9756,3.9281,3.8965,3.8776,3.8776,3.8776,3.8776,3.8776,3.846,3.8207,3.846,3.8333,3.824,3.8714,3.8873,3.8748,3.8091,3.7281,3.6535,3.5944,3.4566,3.3349,3.2905,3.1971,3.1282,3.1155,3.1155,3.0952,3.0554,3.0495,3.0324,2.9958,2.9929,2.9815,2.9618,2.9021,2.8478,2.8103,2.7426,2.7224,2.7573,2.7095,2.7175,0.0,0.0,0.0,0.0,0.0,0.0,0.0,0.0,0.0,0.0,0.0,0.0,0.0,0.0,0.0,0.0,0.0,0.0,0.0,0.0,0.0,0.0,0.0,0.0,0.0,4.3038,4.3892,4.4098,4.4476,4.4476,4.3826,4.4164,4.4481,4.4554,4.496,4.5173,4.5129,4.498,4.4836,4.4799,4.4799,4.4799,4.4799,4.4799,4.4799,4.4799,4.4799,4.4867,4.4874,4.4874,4.4986,4.521,4.5321,4.5499,4.5546,4.4457,4.3643,4.2947,4.1834,4.1489,4.1588,4.1456,4.1489,4.1588,4.1588,4.1588,4.1525,4.1083,4.0925,4.083,4.0356,4.0198,4.0198,4.0198,4.004,3.9882,3.9882,3.9376,3.8807,3.8555,3.8681,3.8839,3.8839,3.9282,3.9818,4.0039,3.906,3.8057,3.7555,3.6193,3.4933,3.4314,3.3341,3.2677,3.2521,3.2489,3.2344,3.1876,3.1847,3.1586,3.0977,3.0918,3.0831,3.0598,3.0017,2.9581,2.9318,2.8627,2.8282,2.8354,2.7813,2.7813,2.8354,0.0,0.0,0.0,0.0,0.0,0.0,0.0,0.0,0.0,0.0,0.0,0.0,0.0,0.0,0.0,0.0,0.0,0.0,0.0,0.0,0.0,0.0,0.0,4.3718,4.4849,4.5482,4.5101,4.5524,4.575,4.5568,4.5531,4.5604,4.5787,4.5823,4.5682,4.5499,4.5531,4.542,4.5204,4.5235,4.5235,4.5235,4.5235,4.5235,4.5235,4.5235,4.5315,4.5531,4.5531,4.5641,4.5823,4.5823,4.5823,4.576,4.5001,4.4306,4.3545,4.2189,4.162,4.1588,4.1588,4.1588,4.1588,4.1588,4.1588,4.1588,4.1588,4.1588,4.1588,4.1588,4.1588,4.1588,4.1588,4.1114,4.064,4.064,4.0103,3.9376,3.8713,3.9029,3.9503,3.9503,4.0072,4.0798,4.1462,4.0287,3.8902,3.8058,3.7093,3.6135,3.5276,3.4302,0.0,3.3636,3.3666,3.3636,3.3576,3.3636,3.3336,3.2646,3.2586,3.2317,3.1658,3.1029,3.0557,3.0216,2.9653,2.9049,2.8455,2.8254,2.8254,2.8484,0.0,0.0,0.0,0.0,0.0,0.0,0.0,0.0,0.0,0.0,0.0,0.0,0.0,0.0,0.0,0.0,0.0,0.0,0.0,0.0,0.0,4.48,4.5374,4.5107,4.5439,4.5916,4.633,4.624,4.6116,4.5968,4.5932,4.5896,4.5823,4.5823,4.5787,4.5714,4.5714,4.5682,4.5641,4.5641,4.5641,4.5641,4.5641,4.5641,4.5641,4.5641,4.5646,4.5714,4.5714,4.575,4.5823,4.5823,4.5823,4.576,4.5001,4.4306,4.3611,4.2726,4.2062,4.1588,4.1588,4.1588,4.1588,4.1588,4.1588,4.1588,4.1588,4.1588,4.1588,4.1588,4.1588,4.1588,4.1588,4.1462,4.1336,4.1336,4.0798,4.0135,3.9408,3.9376,3.9503,3.9503,4.0072,4.0798,4.1462,4.1238,4.0793,4.0408,3.952,3.8699,3.8319,3.741,0.0,3.6982,3.6982,3.6586,3.5643,3.5978,3.5733,3.4424,3.4334,3.4243,3.4031,3.3425,3.2974,3.2796,3.2378,3.1988,3.1562,3.1594,3.1716,0.0,0.0,0.0,0.0,0.0,0.0,0.0,0.0,0.0,0.0,0.0,0.0,0.0,0.0,0.0,0.0,0.0,0.0,0.0,0.0,0.0,0.0,4.6393,4.7173,4.7298,4.6944,4.6812,4.7067,4.6789,4.6474,4.633,4.6223,4.6116,4.6008,4.6008,4.5972,4.5932,4.5932,4.5896,4.5823,4.5823,4.5823,4.5823,4.5823,4.5823,4.5823,4.5823,4.5823,4.5823,4.5896,4.5932,4.5932,4.608,4.6152,4.6088,4.5674,4.5101,4.4368,0.0,0.0,0.0,0.0,4.1753,4.1818,4.1818,4.1818,4.1818,4.1916,4.1948,4.1948,4.2013,4.2013,4.2013,4.1948,4.1948,4.1883,4.1784,4.1434,4.0863,3.9787,3.9724,3.9787,3.9218,3.9723,4.0452,4.1117,4.1373,0.0,4.1722,4.0791,3.9866,3.9456,3.8886,3.8508,3.8637,3.8637,3.8328,3.7558,3.7805,3.7619,3.6477,3.6292,0.0,0.0,0.0,3.4634,3.418,3.3879,0.0,0.0,0.0,0.0,0.0,0.0,0.0,0.0,3.2871,3.3469,0.0,0.0,0.0,0.0,0.0,0.0,0.0,0.0,0.0,0.0,0.0,0.0,0.0,0.0,0.0,0.0,4.7632,4.8826,4.9634,4.8827,4.7967,4.7605,4.7236,4.6963,4.6756,4.658,4.6439,4.6404,4.6404,4.6333,4.6219,4.6219,0.0,0.0,0.0,4.59,4.59,4.59,4.59,4.59,4.59,4.59,4.5936,4.6116,4.6187,4.6223,4.6545,4.6687,4.6687,4.6687,4.6235,4.5395,4.3506,4.2321,4.172,4.1915,4.2077,4.2206,4.2206,0.0,0.0,4.2429,4.246,4.2492,4.2617,4.2648,4.2617,4.2523,4.2492,4.2397,4.2077,4.2012,4.1565,4.0008,4.0103,4.0198,3.89,3.9212,4.0004,4.0737,4.1147,4.159,4.2363,4.1406,4.0322,3.9755,3.9533,3.9469,3.9469,3.9469,3.9438,3.9375,0.0,0.0,3.8653,3.8466,3.7839,3.667,3.6303,3.5783,3.4984,3.472,3.4631,3.4749,3.4723,3.5001,3.5584,3.5707,3.6289,3.7321,3.579,3.5453,0.0,0.0,0.0,0.0,0.0,0.0,0.0,0.0,0.0,0.0,0.0,0.0,0.0,0.0,0.0,4.8391,4.9375,5.0027,5.0114,4.9762,4.9252,4.8545,4.8162,4.7836,4.7538,4.7471,4.727,4.6997,4.6963,4.6894,4.6754,4.6754,4.6719,4.6684,4.6684,4.6684,4.6684,4.6684,4.6684,4.6684,4.6684,0.0,4.6684,4.6825,4.6894,4.6929,4.7134,4.7236,4.7236,4.7236,4.6452,4.5147,4.3651,4.2749,4.227,4.2429,4.2586,4.2775,4.2867,4.2929,4.2929,4.2959,4.2959,4.299,4.3021,4.3021,0.0,4.299,4.2867,4.2775,4.2713,4.2586,4.2073,4.0655,4.043,4.0301,3.943,3.9366,3.9876,4.1353,4.1673,4.1959,4.2829,4.2425,4.1949,4.1821,4.1662,4.1598,4.1757,4.1757,4.1533,4.0956,4.1405,4.1437,4.0608,4.0513,4.01,3.918,3.7769,3.6837,3.6501,3.6321,3.626,3.626,3.6848,3.725,3.7468,3.809,3.8743,3.9455,3.748,3.7314,0.0,0.0,0.0,0.0,0.0,0.0,0.0,0.0,0.0,0.0,0.0,4.6561,4.721,0.0,4.8824,4.9241,5.0048,5.0627,5.0572,5.0397,4.9994,4.9286,4.8827,4.848,4.8322,4.8162,4.8,4.777,4.777,4.7704,4.7572,4.7538,4.7505,4.7372,4.7372,4.7372,4.7372,4.7372,4.7372,4.7372,4.7372,4.7372,4.7405,4.7572,4.7671,4.777,4.8032,4.8193,4.8289,4.8193,4.7231,4.5775,4.51,4.4061,4.3021,4.308,4.3232,4.3476,4.3502,4.3532,4.3562,4.3684,4.3713,4.3713,4.3768,4.3798,4.3768,4.3743,4.3595,4.3479,4.3295,4.308,4.2664,4.1496,4.0978,4.0522,3.9801,3.9406,3.9687,4.13,4.1741,4.2245,4.3485,4.3562,4.3292,4.2836,4.268,4.2649,4.2743,4.2743,4.2613,4.2254,4.2608,4.2704,4.2376,4.1659,4.0824,3.9844,3.8608,3.7828,3.7653,3.7596,3.7567,3.7567,3.8294,3.8772,3.9028,3.9724,4.0355,4.0821,3.9773,3.9637,0.0,0.0,0.0,0.0,0.0,0.0,0.0,4.6727,4.6906,4.7576,4.7831,4.8094,4.8556,4.9264,4.9792,4.9792,5.0398,5.0873,5.0873,5.0757,5.0481,4.9999,4.9466,4.9165,4.907,4.8855,4.8668,4.8668,4.8668,4.8574,4.8416,4.8416,4.8353,4.8192,4.8192,4.8192,4.8192,4.8192,4.8192,4.8192,4.8192,4.8192,4.8192,4.8385,4.8543,4.8668,4.8948,4.9195,4.9316,4.9165,4.8158,4.6747,4.6684,4.5568,4.3972,4.3885,4.4001,4.4231,4.4259,4.4288,4.4288,4.4463,4.4491,4.4491,4.4603,4.4631,4.4575,4.4463,4.4355,4.4184,4.3919,4.368,4.3333,4.2455,4.1832,4.1205,4.0507,3.9996,4.0072,4.1566,4.2055,4.2745,4.417,4.4519,4.4316,4.3472,4.3353,4.3353,4.3353,4.3353,4.3353,4.3353,4.3472,4.3525,4.3573,4.2309,4.1105,4.0066,3.9209,3.865,3.8544,3.852,3.8557,3.8715,3.9397,3.9965,4.0403,4.1143,4.166,4.1916,4.1916,4.1621,4.3325,4.387,4.4807,4.5832,4.6382,4.688,0.0,4.8256,4.8725,4.9475,5.0075,5.0495,5.0565,5.067,5.0768,5.0768,5.0838,5.0873,5.0873,5.0873,5.0846,5.0764,5.0341,4.9999,4.9825,4.9732,4.9674,4.959,4.9526,4.9466,4.9282,4.9252,4.9252,4.9222,4.9222,4.9222,4.9222,4.9222,4.9222,4.9222,4.9222,4.9222,4.9252,4.9436,4.956,4.959,4.9703,4.9791,4.9791,4.9791,4.8931,4.7582,4.7554,4.6645,4.5328,4.4892,4.4899,4.5096,4.5203,4.5222,4.5257,4.5283,4.5203,4.5096,4.5123,4.5042,4.4934,4.494,4.4831,4.472,4.4692,4.4519,4.4176,4.3428,4.3192,4.2922,4.2206,4.197,4.2226,4.324,4.3464,4.3817,4.4743,4.4906,4.4797,4.4401,4.4316,4.4316,4.4316,4.4316,4.4316,4.4316,4.4344,4.4108,4.3495,4.2576,4.1688,4.0836,3.9754,3.9142,3.9115,3.8871,3.9056,3.9738,4.0431,4.1089,4.1808,4.2531,4.2892,4.2929,4.2929,4.2333,4.5929,4.6053,4.6509,4.8784,4.9046,4.9064,5.0268,5.0545,5.0596,5.0809,5.1025,5.1193,5.107,5.1395,5.1649,5.154,5.1926,5.2235,5.2235,5.1821,5.154,5.154,5.099,5.0509,5.0307,5.0257,5.0171,5.0114,5.0114,5.0086,4.9994,4.9965,4.9965,4.9965,4.9965,4.9965,4.9965,4.9965,4.9965,4.9965,4.9965,4.9965,4.9965,5.0086,5.0171,5.0222,5.0397,5.0453,5.0453,5.0369,4.9681,4.87,4.8221,4.7439,4.643,4.5606,4.5415,4.5546,4.5598,4.5624,4.5624,4.5624,4.5572,4.5546,4.5546,4.5494,4.5476,4.5476,4.5363,4.5257,4.515,4.5042,4.4804,4.4415,4.398,4.3605,4.3326,4.289,4.2875,4.3784,4.3947,4.4213,4.5074,4.5238,4.5184,4.5042,4.4879,4.4797,4.4797,4.4797,4.4824,4.4906,4.4497,4.3978,4.3339,4.2449,4.1742,4.1325,4.0788,4.0666,4.099,4.0883,4.0996,4.1297,4.2005,4.2484,4.2699,4.3465,4.371,4.3621,4.3621,4.3292,4.7696,4.777,4.8007,5.1009,5.1301,5.1166,5.2232,5.2219,5.1994,5.1797,5.1672,5.1617,5.1625,5.2042,5.2448,5.2588,5.3054,5.3407,5.3407,5.2913,5.256,5.2596,5.189,5.1405,5.1262,5.0815,5.0544,5.0544,5.0544,5.0544,5.0544,5.0544,5.0544,5.0544,5.0544,5.0544,5.0544,5.0544,5.0544,5.0544,5.0599,5.0564,5.0599,5.0647,5.0784,5.091,5.1061,5.1114,5.1114,5.0972,5.0453,4.9714,4.9151,4.8317,4.7402,4.6605,4.6155,4.5955,4.603,4.6055,4.608,4.6105,4.608,4.6005,4.5955,4.5905,4.5829,4.5838,4.5752,4.5701,4.5598,4.552,4.5468,4.5363,4.4923,4.4544,4.4544,4.4096,4.3915,4.4518,4.4613,4.482,4.5399,4.5502,4.5502,4.5502,4.5371,4.5177,4.513,4.513,4.5157,4.523,4.4783,4.4182,4.3552,4.2865,4.2352,4.2071,4.192,4.2057,4.2464,4.2471,4.2547,4.2751,4.3294,4.3586,4.3707,4.422,4.4435,4.4259,4.4259,4.4145,4.8028,4.8623,4.9123,5.156,5.2642,5.3109,5.3078,5.2886,5.2607,5.2431,5.2173,5.2173,5.2827,5.2891,5.3135,5.392,5.3992,5.3992,5.3992,5.3956,5.3956,5.4028,5.3314,5.285,5.285,5.1653,5.0873,5.0873,5.0873,5.0873,5.0873,5.0873,5.0873,5.0873,5.0873,5.0873,5.0873,5.0873,5.0873,5.0873,5.1043,5.1096,5.1096,5.135,5.1556,5.1683,5.1683,5.1683,5.1683,5.1683,5.1183,5.0459,5.0423,4.9495,4.8175,4.8116,4.7382,4.6423,4.6684,4.6754,4.6778,4.6929,4.6778,4.6542,4.6423,4.6228,4.598,4.5863,4.5879,4.6005,4.597,4.6105,4.6179,4.6144,4.6144,4.6109,4.6109,4.6109,4.6084,4.596,4.5935,4.592,4.5838,4.5812,4.5812,4.5812,4.5787,4.5684,4.5423,4.5397,4.5397,4.5397,4.5363,4.5052,4.4345,4.4242,4.3931,4.3207,4.3047,4.2945,4.298,4.2852,4.3116,4.3833,4.3868,4.4243,4.4961,4.4961,4.4995,4.4995,4.4995,4.4913,4.9176,4.9829,5.0371,5.2865,5.3553,5.3643,5.3563,5.3444,5.3244,5.2993,5.2382,5.2098,5.2565,5.2582,5.2906,5.4087,5.4707,5.5209,5.5747,5.5353,5.5091,5.5091,5.4374,5.3907,5.3907,5.2896,5.2235,5.2235,5.2235,5.2235,5.2235,5.1738,5.1428,5.1428,5.1428,5.1428,5.1428,5.1428,5.1428,5.1454,5.151,5.1561,5.1561,5.1736,5.186,5.1884,5.1884,5.1884,5.1884,5.1884,5.1765,5.1442,5.0964,5.0139,4.9146,4.8722,4.7967,4.7182,4.7039,4.7075,4.7143,4.7187,4.7143,4.7053,4.6903,4.6812,4.6719,4.6613,4.6613,4.6661,4.6625,4.6649,4.6672,4.6672,4.6672,4.6649,4.6543,4.6519,4.6531,4.6423,4.6423,4.6398,4.635,4.6326,4.6326,4.6326,4.6005,4.5787,4.5684,4.5684,4.5684,4.5684,4.5233,4.4842,4.459,4.4064,4.3806,4.4048,4.3931,4.4096,4.4552,4.4534,4.4646,4.4886,4.4886,4.5024,4.5264,4.5264,4.5264,4.5264,4.5264,4.5211,4.9744,5.0492,5.1091,5.3599,5.4145,5.4073,5.3981,5.3907,5.3683,5.3136,5.2518,5.2267,5.2804,5.2762,5.3285,5.5062,5.5741,5.6358,5.7157,5.683,5.6479,5.6479,5.5789,5.5281,5.5281,5.475,5.4133,5.3483,5.3171,5.3028,5.3028,5.2251,5.1822,5.1822,5.1822,5.1822,5.1822,5.1822,5.1846,5.1896,5.1982,5.2066,5.2161,5.2315,5.2348,5.2394,5.2394,5.2394,5.2394,5.2394,5.2394,5.2358,5.1874,5.1221,5.0424,4.9713,4.8961,4.8239,4.7651,4.75,4.7585,4.7627,4.7606,4.7563,4.7414,4.7327,4.7262,4.7143,4.7165,4.7196,4.716,4.7204,4.7306,4.7306,4.7306,4.7248,4.7182,4.716,4.7138,4.7062,4.7039,4.7017,4.6972,4.6972,4.6972,4.6972,4.6637,4.6363,4.6105,4.608,4.608,4.608,4.56,4.532,4.532,4.4694,4.4525,4.5012,4.4896,4.5036,4.5441,4.5476,4.545,4.5397,4.5397,4.5397,4.5397,4.5397,4.5397,4.5397,4.5397,4.5371,4.9956,5.082,5.1405,5.3808,5.4409,5.4392,5.4326,5.4271,5.3956,5.2938,5.2568,5.2642,5.3417,5.343,5.4109,5.6583,5.7026,5.7322,5.8134,5.8194,5.8127,5.8127,5.7486,5.7007,5.7007,5.7116,5.6477,5.4772,5.3807,5.3339,5.3339,5.2558,5.2066,5.2066,5.2066,5.2066,5.2066,5.2066,5.2114,5.2255,5.2408,5.2568,5.2828,5.2959,5.3066,5.3099,5.3099,5.3099,5.3099,5.3099,5.3099,5.3099,5.3099,5.2658,5.1924,5.1096,5.0368,4.9617,4.848,4.8092,4.8153,4.8287,4.8212,4.8094,4.7895,4.7752,4.7591,4.7392,4.75,4.7632,4.7632,4.7834,4.8032,4.8032,4.8032,4.8032,4.8032,4.8032,4.7992,4.7854,4.7834,4.7793,4.7653,4.7632,4.7632,4.7632,4.7632,4.7399,4.6754,4.6661,4.6661,4.6661,4.6542,4.6471,4.6471,4.6193,4.6045,4.6045,4.5905,4.5787,4.5658,4.5632,4.5581,4.545,4.545,4.545,4.5423,4.5423,4.5423,4.5423,4.5423,4.5423,5.1984,5.2548,5.2848,5.4071,5.4409,5.4409,5.4375,5.3924,5.3399,5.3123,5.2027,5.1513,5.2826,5.2456,5.2772,5.5164,5.6034,5.6702,5.7518,5.8164,5.8572,5.8572,5.8386,5.8238,5.8238,5.8259,5.8122,5.7626,5.6125,5.5229,5.5229,5.3849,5.302,5.302,5.302,5.302,5.302,5.2972,5.2987,5.303,5.3051,5.313,5.3193,5.3318,5.338,5.34,5.34,5.34,5.34,5.34,5.34,5.34,5.34,5.292,5.2183,5.1962,5.143,5.0675,4.9787,4.903,4.8458,4.8495,4.8477,4.8439,4.8344,4.8323,4.8229,4.8092,4.8055,4.8134,4.8248,4.8343,4.84,4.8439,4.8458,4.8439,4.84,4.8381,4.8343,4.8209,4.819,4.817,4.8114,4.8114,4.8114,4.8114,4.8114,4.7935,4.7399,4.7335,4.7313,4.7226,4.7182,4.7115,4.7062,4.6835,4.666,4.666,4.6387,4.6228,4.6204,4.6105,4.603,4.6005,4.6005,4.5955,4.5854,4.5854,4.5803,4.571,4.571,4.571,5.2922,5.3343,5.3537,5.435,5.4526,5.4364,5.4009,5.3541,5.2998,5.2247,5.1335,5.1024,5.2231,5.203,5.2577,5.538,5.622,5.6929,5.8086,5.8644,5.8922,5.8922,5.8922,5.8922,5.8922,5.8962,5.8982,5.8982,5.7138,5.6027,5.6027,5.4472,5.3583,5.3583,5.3583,5.3583,5.3583,5.3561,5.3521,5.3521,5.3543,5.3563,5.3563,5.3717,5.3756,5.3756,5.3756,5.3756,5.3756,5.3756,5.3756,5.3756,5.3756,5.3515,5.305,5.2641,5.2215,5.1732,5.0916,5.0268,4.9713,4.8954,4.8732,4.8714,4.8661,4.8624,4.8606,4.8476,4.8476,4.855,4.8606,4.8661,4.8697,4.8732,4.8732,4.8714,4.8697,4.8679,4.8661,4.8569,4.8569,4.8569,4.8569,4.8569,4.8569,4.8569,4.8569,4.8495,4.8194,4.8035,4.7895,4.7797,4.7756,4.7695,4.7669,4.7421,4.727,4.7204,4.6981,4.6753,4.6625,4.6554,4.6459,4.6398,4.6398,4.635,4.6242,4.6242,4.6228,4.6154,4.6154,4.6154,5.3409,5.3783,5.3898,5.464,5.4683,5.4345,5.3521,5.3209,5.2634,5.1024,5.0648,5.082,5.1743,5.1893,5.2907,5.6061,5.6662,5.7263,5.8764,5.9028,5.9084,5.9215,5.9215,5.9215,5.9215,5.929,5.929,5.929,5.7434,5.6288,5.6288,5.4763,5.387,5.387,5.387,5.387,5.387,5.3851,5.3888,5.3888,5.3926,5.3926,5.3926,5.4055,5.4109,5.4109,5.4109,5.4109,5.4109,5.4109,5.4109,5.4109,5.4109,5.4109,5.4016,5.3179,5.2882,5.277,5.1898,5.1601,5.1341,4.9745,4.9224,4.9207,4.9174,4.9156,4.9138,4.9011,4.9047,4.9156,4.9156,4.9209,4.9224,4.9224,4.9224,4.9224,4.9224,4.9224,4.9187,4.9076,4.9076,4.9039,4.8927,4.889,4.889,4.889,4.889,4.889,4.889,4.8605,4.8382,4.8363,4.825,4.8192,4.8173,4.7995,4.7854,4.7715,4.7591,4.7342,4.7071,4.7026,4.6972,4.6801,4.6801,4.6801,4.6778,4.6778,4.6742,4.6719,4.6719,4.679,5.478,5.4843,5.4852,5.4933,5.4941,5.4655,5.3671,5.2923,5.2137,5.1005,5.0236,5.0221,5.1646,5.1893,5.2531,5.4521,5.5385,5.6156,5.7187,5.7883,5.854,5.9197,5.9272,5.9272,5.9272,5.929,5.929,5.929,5.7806,5.6832,5.6797,5.5205,5.4306,5.4306,5.4306,5.4306,5.4306,5.4235,5.42,5.42,5.4109,5.4073,5.4073,5.4091,5.4109,5.4109,5.4109,0.0,5.4109,5.4109,5.4109,5.4109,5.4109,5.4109,5.4072,5.3941,5.3849,5.3737,5.2897,5.2636,5.2469,5.1322,5.0971,5.0971,5.0952,5.0952,5.0952,5.0934,5.0934,5.0952,5.0952,5.0952,5.0971,5.0971,5.0971,5.0971,5.0971,5.0971,5.0748,5.0042,4.9893,4.967,4.9002,4.889,4.889,4.889,4.889,4.889,4.889,4.8838,4.8767,4.8733,4.8697,4.8624,4.8514,4.842,4.8381,4.8362,4.8114,4.7939,4.7879,4.7834,4.7772,4.7767,4.7767,4.7689,4.7606,4.7606,4.7506,4.7421,4.7421,4.7803,5.4865,5.5032,5.5339,5.5262,5.5197,5.4811,5.3394,5.2741,5.2011,5.061,5.0,5.0153,5.1673,5.1941,5.2639,5.4709,5.542,5.6131,5.7389,5.7986,5.8603,5.9395,5.956,5.9595,5.9595,5.9595,5.9595,5.9595,5.8497,5.7578,5.6975,5.5341,5.4439,5.4439,5.4426,5.4409,5.4409,5.4357,5.434,5.434,5.4306,5.4251,5.4251,5.4251,5.4251,5.4251,5.4251,5.4251,5.4251,5.4303,5.432,5.432,5.4422,5.4455,5.4455,5.4405,5.4351,5.4296,5.3836,5.3689,5.3596,5.3135,5.2284,5.1452,5.1397,5.1416,5.1416,5.1416,5.1416,5.1416,5.1416,5.1416,5.1416,5.1416,5.1416,5.1416,5.1416,5.1416,5.1268,5.0859,5.0785,5.0636,5.0265,5.019,5.019,5.019,5.019,5.019,5.019,5.019,4.9838,4.8949,4.8857,4.884,4.8767,4.8714,4.8697,4.8661,4.8532,4.842,4.8306,4.8267,4.8209,4.8151,4.8151,4.8131,4.8035,4.8493,4.8656,4.8596,4.9054,4.9455,5.486,5.5164,5.566,5.5593,5.5473,5.4968,5.3187,5.2692,5.2093,5.0341,5.0058,5.0516,5.1881,5.225,5.301,5.5128,5.5555,5.617,5.7825,5.8186,5.8646,5.9668,5.9902,5.995,5.995,5.995,5.995,5.995,5.8979,5.7921,5.6866,5.5379,5.4587,5.4587,5.4522,5.4526,5.4526,5.4526,5.4526,5.4526,5.4526,5.4526,5.4526,5.4526,5.4526,5.4526,5.4526,5.4526,5.4489,5.4554,5.4603,5.4635,5.4799,5.486,5.486,5.4738,5.4707,5.4692,5.4587,5.4538,5.4538,5.4522,5.342,5.2096,5.2062,5.2027,5.2027,5.2027,5.2027,5.2027,5.2027,5.2027,5.2027,5.2009,5.1991,5.1991,5.1973,5.1973,5.1881,5.1676,5.1676,5.1602,5.1416,5.1416,5.1416,5.1416,5.1416,5.1416,5.1416,5.1416,5.0896,4.9596,4.9447,4.9447,4.9447,4.9447,4.9412,4.9341,4.9341,4.9269,4.9104,4.9104,4.9066,4.8954,4.8954,4.8954,4.8991,4.9617,4.9911,4.9911,5.063,5.1035,5.5586,5.5808,5.5865,5.5776,5.5766,5.5263,5.3464,5.3004,5.2414,5.0577,5.0684,5.142,5.2275,5.3016,5.3792,5.4799,5.4951,5.5587,5.7332,5.759,5.819,5.9863,6.0068,6.0068,6.0068,6.0068,6.0068,6.0068,5.8658,5.7306,5.6247,5.5345,5.4852,5.4852,5.4875,5.4837,5.4837,5.4837,5.4837,5.4837,5.4837,5.4837,5.4837,5.4837,5.4837,5.4837,5.4837,5.4837,0.0,5.4837,5.4897,5.4956,5.4971,5.5028,5.5085,5.5071,5.5033,5.5033,5.5019,5.5057,5.5004,5.4895,5.4532,5.4149,5.4132,5.4132,5.4132,5.4132,5.4132,5.4132,5.4132,5.4132,5.4078,5.3991,5.3956,5.392,5.3795,5.3758,5.3498,5.2661,5.2494,5.2271,5.1528,5.1416,5.1416,5.1416,5.1416,5.1416,5.1416,5.1416,5.1342,5.1193,5.1156,5.1156,5.1156,5.1156,5.1156,5.1138,5.1138,5.1138,5.112,5.112,5.112,5.1102,5.1102,5.1102,5.1102,5.1176,5.1213,5.1213,5.1287,5.1733,5.4525,5.5195,5.5941,5.5933,5.5924,5.5442,5.3639,5.3195,5.2826,5.1474,5.1403,5.19,5.3175,5.363,5.4058,5.4876,5.5071,5.5698,5.7458,5.7769,5.8462,6.0212,6.0481,6.0507,6.0507,6.0507,6.0507,6.0507,5.9422,5.8374,5.7405,5.5908,5.5099,5.5099,5.5057,5.5028,5.5028,5.5028,5.5028,5.5028,5.5028,5.5028,5.5028,5.5028,5.5028,5.5028,5.5028,5.5028,0.0,5.5071,5.5102,5.5183,5.5262,5.5326,5.5389,5.5389,5.5389,5.5389,5.5339,5.5326,5.5326,5.5301,5.5159,5.5019,5.4738,5.4645,5.4645,5.4645,5.4645,5.4645,5.4645,5.4613,5.4549,5.4468,5.4401,5.4371,5.4303,5.4288,5.4123,5.3751,5.3659,5.3584,5.3265,5.3227,5.3227,5.3227,5.3227,5.3192,5.3102,5.3084,5.3048,5.2977,5.201,5.1416,5.1416,5.1416,5.1416,5.1416,5.1416,5.1416,5.1416,5.1416,5.1416,5.1416,5.1416,5.1416,5.1416,5.1899,5.2122,5.2122,5.2605,5.3014,5.3964,5.4793,5.5728,5.5956,5.5822,5.5311,5.403,5.3522,5.3128,5.2473,5.2423,5.2867,5.3966,5.4279,5.46,5.5199,5.5314,5.5861,5.7391,5.7668,5.8289,5.9758,6.0035,6.0184,6.0453,6.0723,6.0877,6.0877,6.003,5.9183,5.8325,5.6671,5.5657,5.5339,5.5301,5.5275,5.5275,5.5275,5.5275,5.5275,5.5275,5.5275,5.5275,5.5275,5.5275,5.5275,5.5275,5.5275,0.0,5.5326,5.5389,5.5449,5.5531,5.5638,5.5692,5.5692,5.5692,5.5682,5.5638,5.5626,5.5626,5.5626,5.5626,5.5543,5.5224,5.5078,5.5009,5.5009,5.5009,5.5009,5.5009,5.4966,5.4909,5.4806,5.4784,5.4723,5.4645,5.4581,5.4554,5.4538,5.4522,5.4522,5.4522,5.4522,5.4522,5.4522,5.4522,5.4489,5.4368,5.4351,5.4282,5.4145,5.3065,5.2249,5.2141,5.2122,5.2122,5.2122,5.2122,5.2122,5.2122,5.2122,5.2122,5.2122,5.2122,5.2122,5.2122,5.2679,5.294,5.2977,5.3534,5.3794,5.4435,5.4893,5.5118,5.5893,5.5459,5.4831,5.4782,5.4083,5.3391,5.3383,5.3966,5.4477,5.4477,5.5119,5.5665,5.5703,5.5703,5.6032,5.696,5.7125,5.7454,5.8315,5.8402,5.8749,5.9637,6.0485,6.0987,6.0987,6.0187,5.93,5.8441,5.7602,5.6703,5.5742,5.5703,5.5703,5.5703,5.5703,5.5703,5.5703,5.5703,5.5703,5.5703,5.5703,5.5703,5.5703,5.5703,5.5703,0.0,5.5703,5.5735,5.5787,5.5787,5.5855,5.5895,5.5895,5.5895,5.5895,5.5895,5.5895,5.5895,5.5895,5.5895,5.5895,5.5895,5.5703,5.5473,5.5473,5.5473,5.5473,5.5473,5.5473,5.5449,5.5326,5.5288,5.5236,5.4966,5.4909,5.4895,5.4806,5.4791,5.4791,5.4791,5.4791,5.4791,5.4791,5.4791,5.4761,5.47,5.4685,5.4623,5.4522,5.4468,5.4282,5.3795,5.3794,5.3794,5.3794,5.3794,5.3794,5.3794,5.3794,5.3794,5.3794,5.3794,5.3794,5.3794,5.3794,5.3794,5.3794,5.3794,5.3794,5.3035,5.3596,5.4079,5.4343,5.4645,5.4715,5.4126,5.4173,5.4373,5.4373,5.4491,5.4814,5.5431,5.5692,5.5855,5.5855,5.5855,5.6145,5.7043,5.7168,5.7497,5.8433,5.906,5.9756,6.0568,6.0916,6.107,6.107,6.08,6.0027,5.8596,5.8287,5.7438,5.5894,5.5855,5.5855,5.5855,5.5855,5.5855,5.5855,5.5855,5.5855,5.5855,5.5855,5.5855,5.5855,5.5855,5.5855,5.5855,5.5855,5.5885,5.5933,5.5933,5.5961,5.5959,5.5959,5.5959,5.5959,5.5959,5.5959,5.5959,5.5959,5.5959,5.5959,5.5959,5.5876,5.5756,5.5756,5.5756,5.5756,5.5724,5.5714,5.5692,5.5577,5.552,5.5473,5.5413,5.5326,5.5288,5.5301,5.5288,5.5288,5.5288,5.5288,5.5288,5.5288,5.5288,5.5237,5.5121,5.5119,5.5037,5.488,5.4806,5.4576,5.4089,5.4091,5.4073,5.4018,5.4,5.4,5.4,5.3982,5.3944,5.3944,5.3869,5.3794,5.3794,5.3794,5.3794,5.3794,5.3794,5.3794,5.2337,5.2783,5.3229,5.3564,5.4069,5.4372,5.4163,5.449,5.494,5.525,5.5288,5.544,5.5982,5.6016,5.5989,5.6007,5.5998,5.6161,5.6756,5.6833,5.716,5.8037,5.8927,5.9779,6.0592,6.0979,6.1173,6.1173,6.1173,6.0437,5.8734,5.8618,5.7818,5.6054,5.598,5.5952,5.5952,5.5952,5.5952,5.5952,5.5952,5.5952,5.5952,5.5952,5.5952,5.5952,5.5952,5.5952,0.0,5.5952,5.5971,5.6007,5.6007,5.5986,5.6012,5.6012,5.6012,5.6012,5.6012,5.6012,5.6012,5.6012,5.6012,5.6012,5.6012,5.5968,5.5952,5.5952,5.5952,5.5913,5.5885,5.5876,5.5866,5.5807,5.5766,5.5735,5.5714,5.5682,5.566,5.566,5.566,5.566,5.566,5.566,5.566,5.566,5.566,5.5599,5.5493,5.5508,5.5437,5.525,5.5198,5.5037,5.4647,5.4479,5.4351,5.4268,5.4268,5.4233,5.4145,5.4091,5.4074,5.4055,5.3944,5.3907,5.3907,5.3907,5.3888,5.3888,5.3813,5.3794,0.0,5.2407,5.2595,5.3495,5.376,5.398,5.476,5.4946,0.0,5.6032,5.618,5.6218,5.6218,5.6149,5.6133,5.6172,5.6149,5.6133,5.6172,5.6257,5.6606,5.7389,5.8273,5.9126,6.0026,6.084,6.1297,6.1297,6.122,6.0483,5.8777,5.8622,5.7885,5.6257,5.6062,5.602,5.602,5.602,5.602,5.602,5.602,5.602,5.602,5.602,5.602,5.602,5.602,5.6012,5.6012,5.6012,5.6012,5.6012,5.6012,5.6012,5.6012,5.6012,5.6012,5.6012,5.6012,5.6012,5.6012,5.6012,5.6012,5.6012,5.6012,5.6012,5.6012,5.6012,5.6012,5.6012,5.6012,5.6012,5.5995,5.5989,5.6018,5.5971,5.5924,5.5905,5.5905,5.5905,5.5905,5.5905,5.5905,5.5905,5.5905,5.5905,5.5905,5.5895,5.5817,5.5807,5.5766,5.5649,5.5638,5.5543,5.5349,5.4957,5.4707,5.4533,5.4554,5.4472,5.4248,5.4231,5.4178,5.4145,5.4127,5.4127,5.4127,5.4074,5.4019,5.4019,5.387,5.3813,5.2368,0.0,5.2601,5.3488,5.4181,5.4725,0.0,5.5468,5.5952,5.6146,5.6202,5.6218,5.6218,5.6172,5.6164,5.6218,5.6172,5.6172,5.6218,5.6722,5.7428,5.8273,5.9173,6.0026,6.0918,6.1181,6.1297,6.1297,6.0677,5.9824,5.8777,5.8079,5.7226,5.6218,5.6157,5.6149,5.6149,5.6149,5.6149,5.6149,5.6149,5.6149,5.6149,5.6149,5.6149,5.6149,5.6149,5.6133,5.6062,5.6062,5.6037,5.6012,5.6012,5.6012,5.6012,5.6012,5.6012,5.6012,5.6012,5.6012,5.6012,5.6012,5.6012,5.6012,5.6012,5.6012,5.6012,5.6012,5.6012,5.6012,5.6012,5.6012,5.6003,5.5995,5.5995,5.5986,5.5977,5.5977,5.5977,5.5977,5.5977,5.5977,5.5977,5.5977,5.5977,5.5977,5.5977,5.5968,5.5959,5.5971,5.5933,5.5905,5.5865,5.5776,5.5675,5.5338,5.5091,5.4957,5.4976,5.4903,5.4837,5.4661,5.4565,5.4484,5.4388,5.434,5.434,5.4323,5.4306,5.4306,5.418,5.4127,5.2795,5.2717,5.2601,5.35,5.4349,5.5009,5.5009,5.5657,5.6265,5.6265,5.6251,5.6231,5.6231,5.6216,5.6216,5.6231,5.6216,5.6372,5.6774,5.7208,5.779,5.8637,5.9148,5.9808,6.0662,6.074,6.074,6.074,6.0305,5.949,5.8256,5.7744,5.7123,5.6269,5.6231,5.6216,5.6218,5.6218,5.6218,5.6218,5.6218,5.6218,5.6218,5.6218,5.6218,5.6218,5.6218,5.6164,5.6149,5.6149,5.6133,5.607,5.607,5.607,5.607,5.607,5.607,5.607,5.607,5.607,5.607,5.607,5.607,5.607,5.607,5.6054,5.6037,5.6012,5.6012,5.6012,5.6012,5.6012,5.6012,5.6012,5.6012,5.6012,5.6012,5.6012,5.6012,5.6012,5.6012,5.6012,5.6012,5.6012,5.6012,5.6012,5.6012,5.6012,5.6012,5.5986,5.6007,5.6007,5.5989,5.5923,5.5895,5.5745,5.5543,5.535,5.5339,5.5262,5.513,5.5047,5.4947,5.4829,5.4738,5.473,5.473,5.4661,5.4629,5.4629,5.45,5.4451,5.3267,5.3145,5.2834,5.385,5.466,5.5204,5.5204,5.5786,5.6291,5.6291,5.6175,5.6136,5.6291,5.6149,5.6103,5.6447,5.6537,5.6879,5.7651,5.7891,5.824,5.8933,5.9127,5.9477,6.0215,6.0176,6.0099,6.0099,5.9865,5.9088,5.7696,5.7463,5.7075,5.633,5.6291,5.6265,5.6241,5.6241,5.6241,5.6241,5.6241,5.6241,5.6241,5.6241,5.6241,5.6241,5.6241,0.0,5.6187,5.6187,5.6187,5.6218,5.6218,5.6218,5.6218,5.6218,5.6218,5.6218,5.6218,5.6218,5.6218,5.6218,5.6218,5.6218,5.6218,5.6157,5.6117,5.6037,5.602,5.6012,5.6012,5.6012,5.6012,5.6012,5.6012,5.6012,5.6012,5.6012,5.6012,5.6012,5.6012,5.6012,5.6012,5.6012,5.6012,5.6012,5.6012,5.6012,5.6012,5.6012,5.6012,5.6012,5.6012,5.6012,5.6012,5.6007,5.5914,5.5692,5.5671,5.5543,5.5364,5.5351,5.5288,5.5143,5.5143,5.5143,5.5143,5.5037,5.5009,5.5009,5.4866,5.4806,5.3423,5.3617,5.3889,5.5514,5.5981,5.6097,5.6097,5.6214,5.6291,5.6291,5.5709,5.5437,5.6175,5.5702,5.5663,5.7153,5.7962,5.846,5.8583,5.9244,5.9749,5.9904,6.0565,6.1063,6.1179,6.0526,6.0099,6.0099,5.8784,5.7891,5.7619,5.6919,5.6447,5.6291,5.6291,5.6285,5.6278,5.6278,5.6278,5.6278,5.6278,5.6278,5.6278,5.6278,5.6278,5.6278,0.0,5.6258,5.6192,5.6192,5.6209,5.6218,5.6218,5.6218,5.6218,5.6218,5.6218,5.6218,5.6218,5.6218,5.6218,5.6218,5.6218,5.6218,5.6218,5.6172,5.6172,5.6164,5.6109,5.6012,5.6012,5.6012,5.6012,5.6012,5.6012,5.6012,5.6012,5.6012,5.6012,5.6012,5.6012,5.6012,5.6012,5.6012,5.6012,5.6012,5.6012,5.6012,5.6012,5.6012,5.6012,5.6012,5.6012,5.6012,5.6012,5.6003,5.5986,5.5959,5.5876,5.5776,5.5621,5.5566,5.5497,5.5425,5.5425,5.5425,5.5425,5.5413,5.5413,5.5401,5.525,5.5224,5.3345,5.3695,5.4122,5.5864,5.6291,5.6291,5.6291,5.6291,5.6291,5.6291,5.5981,5.5825,5.6214,5.6369,5.6796,5.804,5.8545,5.8972,5.9438,5.9865,6.0099,6.0099,6.0448,6.0526,6.006,5.9632,5.9205,5.8784,5.8046,5.7386,5.6919,5.6524,5.6291,5.6291,5.6291,5.6291,5.6291,5.6291,5.6291,5.6291,5.6291,5.6291,5.6291,5.6291,5.6291,5.6291,0.0,5.6285,5.6265,5.6265,5.6258,5.6245,5.6245,5.6245,5.6245,5.6245,5.6245,5.6245,5.6245,5.6245,5.6245,5.6245,5.6245,5.6245,5.6245,5.6231,5.6209,5.6209,5.6172,5.6117,5.6054,5.6046,5.6037,5.6012,5.6012,5.6012,5.6012,5.6012,5.6012,5.6012,5.6012,5.6012,5.6012,5.6012,5.6012,5.6012,5.6012,5.6012,5.6012,5.6012,5.6012,5.6012,5.6012,5.6012,5.6012,5.6012,5.6012,5.6012,5.598,5.5924,5.5875,5.5787,5.5735,5.5714,5.5714,5.5714,5.5714,5.5714,5.5714,5.5714,5.5621,5.5577,5.2989,5.3384,5.3772,5.532,5.5981,5.6291,5.6291,5.6291,5.6291,5.6291,5.6136,5.6058,5.6253,5.7185,5.8078,5.87,5.9127,5.9632,6.0293,6.0409,6.0409,6.0409,6.0215,5.9827,5.9166,5.8739,5.8273,5.7658,5.7425,5.6997,5.633,5.6291,5.6291,5.6291,5.6291,5.6291,5.6291,5.6291,5.6291,5.6291,5.6291,5.6291,5.6291,5.6291,5.6291,5.6291,5.6291,5.6291,5.6291,5.6291,5.6291,5.6291,5.6291,5.6291,5.6291,5.6291,5.6291,5.6291,5.6291,5.6291,5.6291,5.6291,5.6291,5.6291,5.6291,5.6272,5.6213,5.6213,5.6231,5.6194,5.6141,5.6133,5.6125,5.6046,5.6037,5.6037,5.6037,5.6037,5.6037,5.6029,5.602,5.602,5.6012,5.6012,5.6012,5.6012,5.6012,5.6012,5.6012,5.6012,5.6012,5.6012,5.6012,5.6012,5.6012,5.6012,5.6012,5.6012,5.6016,5.5989,5.5989,5.5952,5.5933,5.5933,5.5933,5.5933,5.5933,5.5933,5.5933,5.5933,5.5866,5.5837,5.2251,5.2484,5.2717,5.3656,5.5087,5.6291,5.6291,5.6291,5.6291,5.6291,5.567,5.5359,5.6136,5.7612,5.8739,5.8778,6.0169,6.1218,6.1296,6.1296,6.1296,6.1296,6.0604,6.006,6.0021,5.859,5.7658,5.7619,5.6842,5.6369,5.6291,5.6291,5.6291,5.6291,5.6291,5.6291,5.6291,5.6291,5.6291,5.6291,5.6291,5.6291,5.6291,5.6291,5.6291,5.6291,5.6291,5.6291,5.6291,5.6291,5.6291,5.6291,5.6291,5.6291,5.6291,5.6291,5.6291,5.6291,5.6291,5.6291,5.6291,5.6291,5.6291,5.6291,5.6291,5.6291,5.6291,5.6291,5.6285,5.6272,5.6194,5.6172,5.6172,5.6172,5.6172,5.6172,5.6172,5.6172,5.6157,5.6117,5.607,5.6062,5.6012,5.6012,5.6012,5.6012,5.6012,5.6012,5.6012,5.6012,5.6012,5.6012,5.6012,5.6012,5.6012,5.6012,5.6012,5.6012,5.6003,5.6003,5.6003,5.6003,5.5995,5.5995,5.5995,5.5995,5.5995,5.5995,5.5995,5.5995,5.5995,5.6007,5.2173,5.2407,5.2601,5.35,5.4582,5.5631,5.6175,5.6719,5.7263,5.7768,5.7185,5.6719,5.7036,5.804,5.8972,5.9516,6.0604,6.1218,6.0681,6.0604,6.0409,5.9865,5.9477,5.9088,5.859,5.7968,5.7386,5.6842,5.6486,5.6291,5.6291,5.6291,5.6291,5.6291,5.6291,5.6291,5.6291,5.6291,5.6291,5.6291,5.6291,5.6291,5.6291,5.6291,5.6291,5.6291,5.6291,5.6291,5.6291,5.6291,5.6291,5.6291,5.6291,5.6291,5.6291,5.6291,5.6291,5.6291,5.6291,5.6291,5.6291,5.6291,5.6291,5.6291,5.6291,5.6291,5.6291,5.6291,5.6291,5.6285,5.6231,5.6216,5.6209,5.6187,5.6218,5.6218,5.6218,5.6218,5.6172,5.6157,5.6157,5.6149,5.6133,5.6133,5.6133,5.6133,5.6133,5.6133,5.6133,5.6133,5.6117,5.6054,5.6029,5.6012,5.6012,5.6012,5.6012,5.6012,5.6012,5.6012,5.6012,5.6012,5.6012,5.6012,5.6012,5.6012,5.6012,5.6012,5.6012,5.6012,5.6012,5.5995,5.1874,5.2036,5.2152,5.2747,5.3757,5.4923,5.6051,5.6777,5.7425,5.8234,5.8195,5.7891,5.7658,5.804,5.8778,5.9904,6.0176,6.0176,6.0099,5.9865,5.9477,5.8855,5.8583,5.8195,5.7658,5.7347,5.6958,5.633,5.6291,5.6291,5.6291,5.6291,5.6291,5.6291,5.6291,5.6291,5.6291,5.6291,5.6291,5.6291,5.6291,5.6291,5.6291,5.6291,5.6291,5.6291,5.6291,5.6291,5.6291,5.6291,5.6291,5.6291,5.6291,5.6291,5.6291,5.6291,5.6291,5.6291,5.6291,5.6291,5.6291,5.6291,5.6291,5.6291,5.6291,5.6291,5.6291,5.6291,5.6291,5.6285,5.6226,5.6219,5.6213,5.6223,5.6216,5.6216,5.6216,5.6216,5.6216,5.6202,5.6202,5.6194,5.618,5.6218,5.6218,5.6218,5.6218,5.6218,5.6218,5.6218,5.6172,5.6141,5.6109,5.6054,5.6054,5.6054,5.6054,5.6054,5.6037,5.602,5.6012,5.6012,5.6012,5.6012,5.6012,5.6012,5.6012,5.6012,5.6012,5.6012,5.6012,5.6012,5.1203,5.1214,5.1219,5.1201,5.2534,5.4285,5.5997,5.6341,5.657,5.7425,5.8234,5.8545,5.7735,5.7619,5.8163,5.9827,5.8707,5.8202,5.9827,5.9322,5.8778,5.8778,5.8078,5.758,5.758,5.6803,5.6291,5.6291,5.6291,5.6291,5.6291,5.6291,5.6291,5.6291,5.6291,5.6291,5.6291,5.6291,5.6291,5.6291,5.6291,5.6291,5.6291,5.6291,5.6291,5.6291,5.6291,5.6291,5.6291,5.6291,5.6291,5.6291,5.6291,5.6291,5.6291,5.6291,5.6291,5.6291,5.6291,5.6291,5.6291,5.6291,5.6291,5.6291,5.6291,5.6291,5.6291,5.6291,5.6291,5.6291,5.6291,5.6291,5.6291,5.6291,5.6291,5.6291,5.6291,5.6291,5.6285,5.6206,5.6199,5.6185,5.6226,5.6218,5.6218,5.6218,5.6218,5.6218,5.6218,5.6218,5.6218,5.6218,5.6218,5.6218,5.6218,5.6218,5.6218,5.6218,5.618,5.6093,5.6012,5.6012,5.6012,5.6012,5.6012,5.6012,5.6012,5.6012,5.6012,5.6012,5.6012,5.6012,5.1196,5.2095,5.3029,5.3039,5.3896,5.5024,5.6158,5.6842,5.7286,5.7534,5.8713,5.9088,5.7068,5.7651,5.8428,5.8357,5.8389,5.8428,5.8357,5.8124,5.7729,5.7107,5.6835,5.668,5.668,5.6447,5.6291,5.6291,5.6291,5.6291,5.6291,5.6291,5.6291,5.6291,5.6291,5.6291,5.6291,5.6291,5.6291,5.6291,5.6291,5.6291,5.6291,5.6291,5.6291,5.6291,5.6291,5.6291,5.6291,5.6291,5.6291,5.6291,5.6291,5.6291,5.6291,5.6291,5.6291,5.6291,5.6291,5.6291,5.6291,5.6291,5.6291,5.6291,5.6291,5.6291,5.6291,5.6291,5.6291,5.6291,5.6291,5.6291,5.6291,5.6291,5.6291,5.6291,5.6291,5.6291,5.6291,5.6278,5.6278,5.6466,5.708,5.7197,5.7391,5.7928,5.8044,5.8044,5.8044,5.8023,5.8047,5.8047,5.7978,5.7963,5.7963,5.7963,5.7963,5.7963,5.7955,5.7381,5.614,5.6029,5.6012,5.6012,5.6012,5.6012,5.6012,5.6012,5.6012,5.6012,5.6622,5.6893,5.1225,5.247,5.3721,5.3394,5.4255,5.5268,5.5813,5.7069,5.8126,5.8114,5.9179,5.9555,5.7689,5.7612,5.7923,5.8084,5.7651,5.7378,5.7573,5.7307,5.6912,5.6356,5.631,5.631,5.6291,5.6304,5.631,5.631,5.6329,5.6335,5.6335,5.6335,5.6335,5.6335,5.6323,5.631,5.631,5.6298,5.6291,5.6291,5.6291,5.6291,5.6291,5.6291,5.6291,5.6291,5.6291,5.6291,5.6291,5.6291,5.6291,5.6291,5.6291,5.6291,5.6291,5.6291,5.6291,5.6291,5.6291,5.6291,5.6291,5.6291,5.6291,5.6291,5.6291,5.6291,5.6291,5.6291,5.6291,5.6291,5.6291,5.6291,5.6291,5.6291,5.6291,5.6291,5.6291,5.6291,5.6408,5.6758,5.6842,5.7068,5.7923,5.8078,5.8234,5.8739,5.8817,5.8817,5.8817,5.8796,5.8782,5.8782,5.876,5.8746,5.8746,5.8746,5.8746,5.8746,5.8731,5.8289,5.7219,5.7094,5.7069,5.7069,5.7069,5.7069,5.7069,5.7069,5.7069,5.7069,5.7611,5.7873,5.1291,5.2663,5.384,5.3022,5.416,5.5408,5.5333,5.7117,5.8776,5.8693,5.9427,5.9772,5.8843,5.7481,5.7019,5.8537,5.6864,5.5891,5.7486,5.7097,5.6625,5.6553,5.6553,5.6502,5.6433,5.6419,5.6397,5.6319,5.6381,5.6397,5.6397,5.6397,5.6397,5.6397,5.6331,5.6319,5.6319,5.6323,5.631,5.6304,5.6298,5.6298,5.6298,5.6298,5.6291,5.6291,5.6291,5.6291,5.6291,5.6291,5.6291,5.6291,5.6291,5.6291,5.6291,5.6291,5.633,5.6408,5.6408,5.6486,5.6524,5.6447,5.6408,5.6408,5.6408,5.6408,5.6447,5.6524,5.6524,5.6524,5.6524,5.6524,5.6524,5.6524,5.6486,5.6408,5.6408,5.6486,5.6758,5.758,5.7696,5.7968,5.8778,5.8933,5.8933,5.9011,5.905,5.905,5.905,5.905,5.905,5.905,5.905,5.905,5.905,5.905,5.905,5.905,5.9054,5.9039,5.9039,5.8801,5.87,5.87,5.87,5.87,5.87,5.87,5.87,5.87,5.8777,5.8839,5.1359,5.3582,5.5727,5.484,5.5942,5.7046,5.6394,5.7169,5.7811,5.7087,5.8145,5.8719,5.7225,5.7186,5.7541,5.7914,5.749,5.7494,5.8546,5.8546,5.8425,5.8437,5.8437,5.816,5.7488,5.7415,5.7103,5.6441,5.6372,5.6411,5.6411,5.6411,5.6411,5.6411,5.6407,5.6363,5.6363,5.6378,5.6363,5.6363,5.6319,5.6296,5.629,5.6304,5.6291,5.6291,5.6291,5.6291,5.6291,5.6291,5.6291,5.6291,5.6291,5.6291,5.6291,5.6291,5.6719,5.7308,5.7308,5.7729,5.8156,5.7541,5.7308,5.7308,5.7308,5.7308,5.7463,5.8078,5.8273,5.8273,5.8273,5.8273,5.8273,5.8273,5.7768,5.7308,5.7308,5.7806,5.8311,5.8506,5.8545,5.8817,5.9671,5.9827,6.006,6.0752,6.083,6.083,6.083,6.083,6.083,6.083,6.083,6.083,6.083,6.083,6.083,6.083,6.0823,6.0823,6.0823,5.9475,5.87,5.87,5.87,5.87,5.87,5.87,5.87,5.87,5.9405,5.9708,5.2364,5.4513,5.647,5.6445,5.6846,5.6971,5.6079,5.6548,5.7051,5.6569,5.7473,5.8109,5.7232,5.7431,5.7749,5.7765,5.808,5.8512,5.898,5.9058,5.9053,5.9,5.8997,5.8838,5.8361,5.7938,5.7512,5.7046,5.6659,5.6467,5.6467,5.6467,5.6467,5.6467,5.6452,5.6443,5.6443,5.6414,5.6394,5.6386,5.6359,5.6334,5.6347,5.6323,5.6291,5.6291,5.6291,5.6291,5.6291,5.6291,5.6563,5.6919,5.6919,5.7146,5.7496,5.7496,5.7768,5.8156,5.8156,5.8467,5.8739,5.8311,5.8156,5.8156,5.8156,5.8156,5.8273,5.87,5.8817,5.8817,5.8817,5.8817,5.8817,5.8817,5.8467,5.8156,5.8156,5.8506,5.8933,5.9322,5.9438,5.971,6.0565,6.072,6.0875,6.1335,6.1412,6.1412,6.1412,6.1412,6.1412,6.1412,6.1412,6.1412,6.1412,6.1412,6.1412,6.1412,6.1412,6.1412,6.1412,6.0483,6.0002,6.0002,6.0002,6.0002,6.0002,6.0002,6.0002,6.0002,6.0468,6.0655,5.309,5.4855,5.6545,5.7728,5.7421,5.6562,5.5625,5.5976,5.6484,5.6483,5.7065,5.7633,5.7761,5.7802,5.7884,5.8201,5.8865,5.9373,5.9529,5.9529,5.9528,5.9446,5.9445,5.9404,5.9242,5.8465,5.7882,5.7727,5.6947,5.6518,5.6518,5.6518,5.6518,5.6518,5.6508,5.6502,5.6504,5.6443,5.6422,5.641,5.6436,5.6488,5.6602,5.657,5.6439,5.6304,5.6304,5.6298,5.6291,5.6447,5.6958,5.7619,5.7735,5.8195,5.8817,5.8817,5.8894,5.9011,5.9011,5.9127,5.9205,5.9088,5.9011,5.9011,5.9011,5.9011,5.905,5.9205,5.9244,5.9244,5.9244,5.9244,5.9244,5.9244,5.9244,5.9205,5.905,5.9127,5.9477,6.0176,6.0332,6.0565,6.1296,6.1412,6.1412,6.1412,6.1412,6.1412,6.1412,6.1412,6.1412,6.1412,6.1412,6.1412,6.1412,6.1412,6.1412,6.1412,6.1412,6.1412,6.1412,6.1412,6.1412,6.1412,6.1412,6.1412,6.1412,6.1412,6.1412,6.1412,6.1412,6.1359,5.1676,5.3515,5.5937,5.8317,5.8272,5.7405,5.654,5.6421,5.6499,5.6497,5.6597,5.6914,5.7653,5.7807,5.8274,5.979,6.014,6.0454,6.1159,6.1276,6.1278,6.1245,6.1245,6.0972,6.0269,5.941,5.8589,5.7846,5.699,5.6483,5.6483,5.6562,5.6562,5.6483,5.6484,5.6483,5.6481,5.6484,5.6483,5.6482,5.6499,5.6857,5.7528,5.7502,5.7055,5.6296,5.6296,5.6284,5.6369,5.7114,5.7502,5.7658,5.835,5.87,5.8817,5.8817,5.9283,5.9943,5.9943,6.0409,6.0907,6.0176,5.9943,5.9943,5.9943,5.9943,6.0099,6.0837,6.1063,6.1063,6.1063,6.1063,6.1063,6.1063,6.1063,6.0837,6.0099,6.0526,6.1102,6.1179,6.1218,6.1257,6.1373,6.1412,6.1412,6.1412,6.1412,6.1412,6.1412,6.1412,6.1412,6.1412,6.1412,6.1412,6.1412,6.1412,6.1412,6.1412,6.1412,6.1412,6.1412,6.1412,6.1412,6.1412,6.1412,6.1412,6.1412,6.1412,6.1412,6.1412,6.1412,6.1412,5.2573,5.4364,5.6193,5.7358,5.7701,5.769,5.7325,5.7596,5.783,5.7314,5.7607,5.7894,5.7818,5.8599,5.9493,6.0261,6.0768,6.1197,6.1551,6.159,6.1593,6.1598,6.1598,6.1442,6.113,6.031,5.9685,5.9293,5.8439,5.774,5.7233,5.7276,5.7042,5.653,5.6497,5.6499,5.6493,5.6507,5.6748,5.722,5.7226,5.7653,5.8463,5.8499,5.8226,5.7804,5.779,5.7808,5.7854,5.8243,5.8653,5.9083,5.9471,5.984,6.0247,6.0247,6.0487,6.0837,6.0837,6.107,6.1335,6.0953,6.0837,6.0837,6.0837,6.0837,6.0914,6.1296,6.1412,6.1412,6.1412,6.1412,6.1412,6.1412,6.1412,6.1296,6.0914,6.1147,6.1412,6.1412,6.1412,6.1412,6.1412,6.1412,6.1412,6.1412,6.1412,6.1412,6.1412,6.1412,6.1412,6.1412,6.1412,6.1412,6.1412,6.1412,6.1412,6.1412,6.1412,6.1412,6.1412,6.1412,6.1412,6.1412,6.1412,6.1412,6.1412,6.1412,6.1412,6.1412,6.1412,6.1412,5.352,5.4879,5.5889,5.6113,5.665,5.7187,5.7407,5.7953,5.8379,5.813,5.8749,5.9147,5.8552,5.9492,6.0464,6.0683,6.1229,6.158,6.158,6.158,6.158,6.158,6.158,6.158,6.158,6.0878,6.0371,6.0371,5.9556,5.878,5.8152,5.8116,5.773,5.6868,5.6842,5.6728,5.6491,5.6506,5.6951,5.7783,5.7791,5.8386,5.941,5.9412,5.9529,5.9644,5.918,5.8991,5.9001,5.923,5.9659,6.0227,6.0454,6.0896,6.1401,6.1394,6.1394,6.1388,6.1419,6.1412,6.1412,6.1412,6.1412,6.1412,6.1412,6.1412,6.1412,6.1412,6.1412,6.1412,6.1412,6.1412,6.1412,6.1412,6.1412,6.1412,6.1412,6.1412,6.1412,6.1412,6.1412,6.1412,6.1412,6.1412,6.1412,6.1412,6.1412,6.1412,6.1412,6.1412,6.1412,6.1412,6.1412,6.1412,6.1412,6.1412,6.1412,6.1412,6.1412,6.1412,6.1412,6.1412,6.1412,6.1412,6.1412,6.1412,6.1412,6.1412,6.1412,6.1412,6.1412,6.1412,5.3451,5.3979,5.4238,5.506,5.5315,5.5533,5.639,5.6589,5.7052,5.8611,5.9624,6.0209,6.017,6.0248,6.056,6.1417,6.1573,6.1612,6.1612,6.1612,6.1612,6.1612,6.1612,6.1612,6.1612,6.0794,6.0326,6.0326,5.949,5.8995,5.8952,5.901,5.8623,5.7747,5.7747,5.735,5.6511,5.6488,5.6946,5.7796,5.7796,5.8702,6.0315,6.0327,6.0764,6.1355,5.9722,5.8992,5.9045,5.9885,6.0204,6.0273,6.111,6.1468,6.1472,6.1402,6.1396,6.1389,6.1388,6.1412,6.1412,6.1412,6.1412,6.1412,6.1412,6.1412,6.1412,6.1412,6.1412,6.1412,6.1412,6.1412,6.1412,6.1412,6.1412,6.1412,6.1412,6.1412,6.1412,6.1412,6.1412,6.1412,6.1412,6.1412,6.1412,6.1412,6.1412,6.1412,6.1412,6.1412,6.1412,6.1412,6.1412,6.1412,6.1412,6.1412,6.1412,6.1412,6.1412,6.1412,6.1412,6.1412,6.1412,6.1412,6.1412,6.1412,6.1412,6.1412,6.1412,6.1412,6.1412,6.1412,5.2083,5.2621,5.3124,5.3436,5.4363,5.529,5.5606,5.6113,5.6663,5.7286,5.8066,5.8802,5.9347,6.036,6.1257,6.1568,6.1607,6.1607,6.1607,6.1607,6.1607,6.1607,6.1607,6.1607,6.1607,6.1334,6.114,6.114,6.0837,6.0413,5.9867,5.9876,5.9486,5.8581,5.8035,5.7606,5.7286,5.7251,5.8005,5.9381,5.9381,6.0017,6.1166,6.1173,6.1339,6.1588,6.0948,6.066,6.07,6.1008,6.111,6.1116,6.1439,6.1552,6.15,6.1473,6.1445,6.1466,6.1453,6.1434,6.1415,6.1415,6.1394,6.1412,6.1412,6.1412,6.1412,6.1412,6.1412,6.1412,6.1412,6.1412,6.1412,6.1412,6.1412,6.1412,6.1412,6.1412,6.1412,6.1412,6.1412,6.1412,6.1412,6.1412,6.1412,6.1412,6.1412,6.1412,6.1412,6.1412,6.1412,6.1412,6.1412,6.1412,6.1412,6.1412,6.1412,6.1412,6.1412,6.1412,6.1412,6.1412,6.1412,6.1412,6.1412,6.1412,6.1412,6.1412,6.1412,6.1412,6.1412,6.1412,5.132,5.171,5.2177,5.2177,5.3034,5.4043,5.4628,5.5217,5.5879,5.6741,5.7559,5.8412,5.9269,6.0633,6.1607,6.1607,6.1607,6.1607,6.1607,6.1607,6.1607,6.1607,6.1607,6.1607,6.1607,6.1607,6.1607,6.1607,6.1607,6.1334,6.075,6.075,6.0321,5.9464,5.8607,5.8139,5.8139,5.8139,5.8841,6.0282,6.0282,6.0759,6.1591,6.1591,6.1599,6.1615,6.1615,6.1582,6.159,6.1595,6.1601,6.1594,6.1618,6.1585,6.153,6.1534,6.1539,6.1512,6.1528,6.1472,6.1415,6.1415,6.1434,6.1415,6.1415,6.1415,6.1408,6.1401,6.1394,6.1394,6.1419,6.1412,6.1412,6.1412,6.1412,6.1412,6.1412,6.1412,6.1412,6.1412,6.1412,6.1412,6.1412,6.1412,6.1412,6.1412,6.1412,6.1412,6.1412,6.1412,6.1412,6.1412,6.1412,6.1412,6.1412,6.1412,6.1412,6.1412,6.1412,6.1412,6.1412,6.1412,6.1412,6.1412,6.1412,6.1412,6.1412,6.1412,6.1412,6.1412,6.1412,6.1412,0.0,0.0,0.0,5.132,5.132,5.1749,5.3424,5.381,5.4554,5.7087,5.8295,5.9191,6.0126,6.0984,6.1568,6.1607,6.1607,6.1607,6.1646,6.1646,6.1646,6.1685,6.1685,6.1646,6.1646,6.1646,6.1646,6.1607,6.1607,6.1607,6.1607,6.1607,6.1218,6.0321,5.9464,5.9035,5.9035,5.9035,5.9464,6.0321,6.0321,6.0789,6.1607,6.1607,6.1607,6.1607,6.1607,6.1608,6.1582,6.1596,6.158,6.1599,6.1601,6.1591,6.1598,6.1588,6.1591,6.1602,6.1546,6.1484,6.1484,6.1484,6.1484,6.1484,6.1484,6.1484,6.1478,6.1408,6.1396,6.1389,6.1388,6.1419,6.1419,6.1412,6.1412,6.1412,6.1412,6.1412,6.1412,6.1412,6.1412,6.1412,6.1412,6.1451,6.1451,6.1451,6.149,6.149,6.149,6.1451,6.1451,6.1451,6.1412,6.1412,6.1412,6.1412,6.1412,6.1412,6.1412,6.1412,6.1412,6.1412,6.1412,6.1412,6.1412,6.1412,6.1412,6.1412,6.1412,6.1412,6.1412,6.1412,5.132,0.0,0.0,0.0,0.0,0.0,5.1904,5.2021,5.2762,5.5372,5.6074,5.7087,5.9815,6.0516,6.0867,6.149,6.1607,6.1802,6.2465,6.2542,6.2776,6.3322,6.34,6.3166,6.2581,6.2542,6.227,6.1646,6.1607,6.1607,6.1607,6.1607,6.1218,6.0321,6.0088,5.9932,5.9932,5.9932,6.036,6.1257,6.1257,6.1373,6.1607,6.1607,6.1607,6.1607,6.1607,6.1621,6.1599,6.158,6.1605,6.1596,6.1663,6.1679,6.1675,6.1653,6.1624,6.1595,6.1591,6.1564,6.1544,6.1523,6.1501,6.1484,6.1484,6.1484,6.1517,6.1472,6.1472,6.146,6.1428,6.1383,6.1415,6.1381,6.1412,6.1412,6.1412,6.1412,6.1412,6.1412,6.1412,6.1606,6.2235,6.2352,6.2546,6.3206,6.3284,6.3284,6.3284,6.274,6.2352,6.2352,6.1762,6.1412,6.1412,6.1412,6.1412,6.1412,6.1412,6.1412,6.1412,6.1412,6.1412,6.1412,6.1412,6.1412,6.1412,6.1412,6.1412,6.1412,6.1412,6.1412,5.132,5.132,5.132,5.132,0.0,0.0,5.132,5.132,5.206,5.4667,5.5169,5.61,5.9177,5.9713,6.0025,6.0931,6.1359,6.187,6.2776,6.2893,6.3205,6.3984,6.4101,6.3906,6.3439,6.3088,6.2698,6.2192,6.1802,6.1607,6.1607,6.1607,6.1373,6.0867,6.0828,6.0828,6.0828,6.0828,6.1101,6.1607,6.1607,6.1607,6.1607,6.1607,6.1607,6.1607,6.1607,6.1607,6.1607,6.1582,6.1603,6.1588,6.1627,6.1697,6.1716,6.1716,6.1663,6.1642,6.1651,6.1627,6.1573,6.156,6.1539,6.1554,6.1554,6.1549,6.1534,6.1523,6.1501,6.1478,6.146,6.1453,6.1447,6.1428,6.1732,6.1966,6.1945,6.2217,6.2373,6.2002,6.1924,6.2235,6.309,6.3245,6.3401,6.3906,6.3983,6.3983,6.3983,6.3556,6.3245,6.3245,6.2779,6.2468,6.2468,6.2468,6.2468,6.2468,6.2157,6.1924,6.1924,6.1606,6.1412,6.1412,6.1412,6.1412,6.1412,6.1412,6.1412,6.1412,6.1412,6.1412,5.132,5.132,5.132,5.132,5.132,0.0,5.1316,5.1316,5.2017,5.4546,5.5073,5.5882,5.8374,5.8898,5.916,6.0004,6.0827,6.1772,6.2888,6.3127,6.3478,6.4296,6.4374,6.4335,6.4257,6.3595,6.3088,6.2893,6.2075,6.1607,6.1607,6.1607,6.1607,6.1607,6.1607,6.1607,6.1607,6.1607,6.1607,6.1607,6.1607,6.1607,6.1607,6.1607,6.1607,6.1607,6.1607,6.1607,6.1607,6.1612,6.1582,6.1599,6.1584,6.1624,6.1696,6.1677,6.1679,6.1711,6.1696,6.164,6.1627,6.1588,6.1615,6.1598,6.1598,6.1584,6.1603,6.1582,6.1539,6.1495,6.1495,6.1567,6.1645,6.1639,6.2301,6.2918,6.288,6.3463,6.3806,6.3104,6.2896,6.3129,6.3983,6.4139,6.4178,6.4255,6.4294,6.4294,6.4294,6.4178,6.4139,6.4139,6.4061,6.3983,6.3983,6.3983,6.3983,6.3983,6.3284,6.2857,6.2857,6.2119,6.1645,6.1529,6.1529,6.1529,6.1529,6.1451,6.1412,6.1412,6.1412,6.1412,5.132,5.132,5.132,5.132,5.132,0.0,5.13,5.1295,5.1836,5.3682,5.4611,5.5696,5.7603,5.8454,5.896,5.9121,5.9921,6.1305,6.3551,6.4452,6.5231,6.6088,6.6205,6.5933,6.5192,6.4997,6.4335,6.301,6.2075,6.1607,6.1607,6.1607,6.1607,6.1607,6.1607,6.1607,6.1607,6.1607,6.1607,6.1607,6.1607,6.1607,6.1607,6.1607,6.1607,6.1607,6.1607,6.1607,6.1607,6.1586,6.1586,6.1616,6.1599,6.1627,6.1615,6.1607,6.1666,6.1677,6.164,6.1634,6.1662,6.1616,6.1598,6.1615,6.1615,6.1605,6.1588,6.1588,6.1603,6.1578,6.1598,6.2045,6.2569,6.254,6.3196,6.3857,6.3851,6.3968,6.4228,6.4694,6.4238,6.4022,6.4838,6.4955,6.5188,6.5926,6.6003,6.6003,6.6003,6.5421,6.4955,6.4955,6.4372,6.3983,6.3983,6.3983,6.3983,6.3983,6.3828,6.375,6.375,6.3595,6.3168,6.2468,6.2468,6.2468,6.2429,6.1723,6.1412,6.1412,6.1412,6.1412,5.132,5.132,5.132,5.132,0.0,0.0,0.0,5.1278,5.1731,5.3434,5.3807,5.4458,5.6603,5.6975,5.7247,5.8114,5.8999,6.0199,6.1977,6.3663,6.5231,6.6556,6.6712,6.6517,6.6088,6.566,6.4686,6.3049,6.2075,6.1607,6.1607,6.1607,6.1607,6.1607,6.1607,6.1607,6.1607,6.1607,6.1607,6.1607,6.1607,6.1607,6.1607,6.1607,6.1607,6.1607,6.1607,6.1616,6.1586,6.1612,6.1619,6.1619,6.1619,6.163,6.1651,6.1635,6.1653,6.1705,6.1675,6.168,6.1677,6.1675,6.1663,6.1642,6.1642,6.1942,6.2272,6.2262,6.2563,6.2906,6.2894,6.3198,6.3496,6.3482,6.4169,6.4777,6.4766,6.51,6.551,6.5862,6.5609,6.5394,6.5778,6.5848,6.6003,6.6431,6.6508,6.6508,6.6508,6.612,6.5848,6.5848,6.5498,6.5265,6.5265,6.5265,6.5265,6.5265,6.4838,6.4605,6.4605,6.4216,6.3789,6.3362,6.3362,6.3362,6.3362,6.2896,6.2701,6.2701,6.2701,6.2701,5.132,5.132,5.132,5.132,0.0,5.1287,0.0,0.0,0.0,5.3024,5.2847,5.3102,5.5169,5.5261,5.5443,5.6873,5.7965,5.8965,5.9888,6.1977,6.4023,6.5777,6.5972,6.6088,6.6439,6.5504,6.4374,6.301,6.1958,6.1334,6.1334,6.149,6.1607,6.1607,6.1607,6.1607,6.1607,6.1607,6.1607,6.1607,6.1607,6.1607,6.1607,6.1607,6.1607,6.1607,6.1607,6.1582,6.1603,6.1591,6.1612,6.1627,6.1612,6.1654,6.1705,6.1715,6.1688,6.1699,6.1705,6.1714,6.1719,6.1719,6.1794,6.1933,6.193,6.2542,6.3224,6.3172,6.3673,6.4216,6.4216,6.4333,6.4446,6.4446,6.5133,6.5736,6.5679,6.62,6.668,6.6645,6.6639,6.6614,6.6546,6.6531,6.6531,6.6524,6.6516,6.6516,6.6508,6.6508,6.6508,6.6508,6.6508,6.6508,6.6508,6.6508,6.6508,6.6508,6.5848,6.5452,6.5452,6.4683,6.4216,6.4216,6.4216,6.4216,6.4216,6.4411,6.4333,6.3983,6.3983,6.3983,0.0,0.0,0.0,0.0,5.1304,5.1282,5.122,0.0,5.1247,5.1453,0.0,5.249,5.2801,0.0,0.0,5.5249,5.6664,5.8065,5.8927,6.002,6.1373,6.3127,6.3322,6.3906,6.5387,6.4101,6.3127,6.2893,6.1373,6.0438,6.0438,6.1179,6.1607,6.1607,6.1607,6.1607,6.1607,6.1607,6.1607,6.1607,6.1607,6.1607,6.1607,6.1607,6.1607,6.1607,6.1607,6.1582,6.1603,6.1605,6.1635,6.1694,6.1681,6.1676,6.1718,6.1718,6.1688,6.1697,6.1699,6.1709,6.1717,6.1717,6.2226,6.2838,6.2861,6.3477,6.414,6.4138,6.4166,6.4193,6.4193,6.4769,6.5344,6.5344,6.6003,6.6662,6.6619,6.6681,6.6693,6.6707,6.6686,6.6657,6.662,6.6569,6.6601,6.6606,6.6599,6.6585,6.6508,6.6508,6.6508,6.6508,6.6508,6.6508,6.6508,6.6508,6.6508,6.6508,6.6392,6.6353,6.6353,6.5537,6.5064,6.5064,6.5064,6.5064,6.5064,6.5848,6.546,6.3983,6.3983,6.3983,0.0,0.0,0.0,0.0,0.0,0.0,5.1211,0.0,5.122,0.0,0.0,0.0,0.0,0.0,0.0,0.0,5.6386,5.7014,5.7403,5.7839,5.9113,6.1802,6.2153,6.2426,6.3127,6.2114,6.1373,6.1373,6.0711,6.0282,6.0282,6.114,6.1607,6.1607,6.1607,6.1607,6.1607,6.1607,6.1607,6.1607,6.1607,6.1607,6.1607,6.1607,6.1607,6.1607,6.1607,6.1582,6.1603,6.1605,6.1637,6.1699,6.1704,6.1709,6.1711,6.1711,6.1713,6.1715,6.1715,6.1718,6.1797,6.2302,6.2686,6.3107,6.3601,6.4375,6.5038,6.5038,6.5387,6.5694,6.5694,6.5962,6.6232,6.6232,6.6535,6.6801,6.6801,6.6783,6.6767,6.6759,6.675,6.6736,6.6727,6.6635,6.662,6.6601,6.6601,6.6588,6.6546,6.6546,6.6531,6.6508,6.6508,6.6508,6.6508,6.6508,6.6508,6.6508,6.6508,6.6508,6.6508,6.6159,6.5965,6.5965,6.5965,6.5965,6.5965,6.6314,6.6159,6.546,6.546,6.546,5.2032,0.0,0.0,0.0,0.0,0.0,0.0,0.0,0.0,0.0,0.0,0.0,0.0,0.0,5.5216,5.5838,0.0,5.6402,5.6402,5.6441,5.752,6.0204,6.0945,6.1257,6.1257,6.0477,5.9932,5.9932,5.9737,5.9581,5.9581,6.0633,6.1257,6.1257,6.149,6.1607,6.1607,6.1607,6.1607,6.1607,6.1607,6.1607,6.1607,6.1607,6.1607,6.1607,6.1607,6.1582,6.1603,6.1602,6.1632,6.1657,6.1674,6.1718,6.1719,6.1719,6.1719,6.1719,6.1718,6.1874,6.2144,6.2794,6.3336,6.3841,6.4458,6.5234,6.5936,6.5936,6.6366,6.6795,6.6795,6.6795,6.6795,6.6795,6.6787,6.6817,6.6817,6.6805,6.6791,6.6791,6.6787,6.6783,6.6783,6.6683,6.6618,6.6612,6.6639,6.662,6.6613,6.6606,6.6553,6.6508,6.6508,6.6508,6.6508,6.6508,6.6508,6.6508,6.6508,6.6508,6.6508,6.6508,6.6508,6.6508,6.6508,6.6508,6.6508,6.6508,6.6508,6.6508,6.6508,6.6508,0.0,0.0,0.0,5.2561,0.0,0.0,0.0,0.0,5.1434,0.0,0.0,0.0,0.0,0.0,0.0,0.0,0.0,0.0,0.0,5.645,5.6819,5.7715,5.9308,6.0321,6.0321,5.9542,5.9035,5.9035,5.8256,5.7793,5.7793,5.9425,6.0321,6.0321,6.1179,6.1607,6.1607,6.1607,6.1607,6.1607,6.1607,6.1607,6.1607,6.1607,6.1607,6.1607,6.1607,6.1582,6.1603,6.1588,6.1618,6.1605,6.1672,6.1718,6.1719,6.1719,6.1719,6.1719,6.1717,6.2261,6.2958,6.2988,6.4156,6.552,6.5548,6.6131,6.6756,6.6756,6.6795,6.6795,6.6795,6.6795,6.6795,6.6795,6.6795,6.6795,6.6795,6.6784,6.6811,6.6811,6.6798,6.6783,6.6783,6.6724,6.6697,6.6712,6.6686,6.6684,6.662,6.6606,6.6553,6.6508,6.6508,6.6508,6.6508,6.6508,6.6508,6.6508,6.6508,6.6508,6.6508,6.6508,6.6508,6.6508,6.6508,6.6508,6.6508,6.6508,6.6508,6.6508,6.6508,6.6508,0.0,0.0,5.2661,5.2679,0.0,0.0,0.0,0.0,0.0,0.0,0.0,0.0,0.0,0.0,0.0,0.0,0.0,0.0,0.0,5.645,5.6585,5.6858,5.7442,5.7793,5.7793,5.752,5.7364,5.7364,5.7559,5.7949,5.8529,5.9659,6.0555,6.114,6.1451,6.1607,6.1607,6.1607,6.1607,6.1607,6.1607,6.1607,6.1607,6.1607,6.1607,6.1607,6.1607,6.1612,6.1582,6.1603,6.1591,6.1618,6.1688,6.1705,6.1716,6.1718,6.1714,6.1791,6.2372,6.2758,6.3183,6.4345,6.5121,6.5707,6.6212,6.6561,6.6795,6.6795,6.6795,6.6795,6.6795,6.6795,6.6795,6.6795,6.6795,6.6795,6.6795,6.6792,6.679,6.679,6.6784,6.6781,6.6781,6.6766,6.6744,6.6702,6.6693,6.6707,6.6684,6.6678,6.6627,6.6549,6.6567,6.6585,6.6585,6.6524,6.6508,6.6508,6.6508,6.6508,6.6508,6.6508,6.6508,6.6508,6.6508,6.6508,6.6508,6.6508,6.6508,6.6508,6.6508,6.6508,5.4921,5.4294,0.0,5.3609,5.2928,0.0,5.2217,0.0,5.2477,0.0,0.0,0.0,0.0,0.0,0.0,0.0,0.0,0.0,0.0,5.6459,5.6507,5.6507,5.6507,5.6507,5.6507,5.6507,5.6507,5.6507,5.6974,5.752,5.8066,5.8918,5.962,6.0204,6.0516,6.0828,6.114,6.114,6.1295,6.1607,6.1607,6.1607,6.1607,6.1607,6.1607,6.1607,6.1607,6.1607,6.1607,6.1586,6.1599,6.1619,6.1654,6.164,6.1662,6.168,6.1911,6.2222,6.2804,6.3426,6.4127,6.5245,6.5787,6.6136,6.6641,6.6795,6.6795,6.6795,6.6795,6.6795,6.6795,6.6795,6.6795,6.6795,6.6795,6.6795,6.6795,6.6795,6.6795,6.6795,6.6795,6.6795,6.6795,6.679,6.6772,6.674,6.672,6.6697,6.6691,6.6719,6.6663,6.6627,6.6601,6.6588,6.6588,6.6553,6.6531,6.6531,6.6516,6.6508,6.6508,6.6508,6.6508,6.6508,6.6508,6.6508,6.6508,6.6508,6.6508,6.6508,6.6508,6.6508]}]]